<?xml version="1.0" encoding="UTF-8" standalone="no" ?>
<gpx xmlns="http://www.topografix.com/GPX/1/1" xmlns:xsi="http://www.w3.org/2001/XMLSchema-instance" xsi:schemaLocation="http://www.topografix.com/GPX/1/1 http://www.topografix.com/GPX/1/1/gpx.xsd" version="1.1" creator="VisuGPX - https://www.visugpx.com">
  <metadata>
    <name>rando 50 km razac 2014</name>
    <desc><![CDATA[rando organisée par AL Razac s/ Isle
27 avril 2014
1200 D ]]></desc>
  </metadata>
  <trk>
    <name><![CDATA[Tracé actuel: 27 AVR 2014 08:25]]></name>
    <trkseg>
      <trkpt lat="45.16329" lon="0.6038">
        <ele>91</ele>
        <time>2014-04-27T06:25:38Z</time>
      </trkpt>
      <trkpt lat="45.16325" lon="0.60385">
        <ele>91</ele>
        <time>2014-04-27T06:25:57Z</time>
      </trkpt>
      <trkpt lat="45.16321" lon="0.60383">
        <ele>91</ele>
        <time>2014-04-27T06:26:00Z</time>
      </trkpt>
      <trkpt lat="45.16318" lon="0.60381">
        <ele>91</ele>
        <time>2014-04-27T06:26:01Z</time>
      </trkpt>
      <trkpt lat="45.16316" lon="0.60379">
        <ele>91</ele>
        <time>2014-04-27T06:26:02Z</time>
      </trkpt>
      <trkpt lat="45.1628" lon="0.60346">
        <ele>91</ele>
        <time>2014-04-27T06:26:15Z</time>
      </trkpt>
      <trkpt lat="45.16272" lon="0.60328">
        <ele>91</ele>
        <time>2014-04-27T06:26:22Z</time>
      </trkpt>
      <trkpt lat="45.16273" lon="0.60324">
        <ele>91</ele>
        <time>2014-04-27T06:26:23Z</time>
      </trkpt>
      <trkpt lat="45.16306" lon="0.6026">
        <ele>90</ele>
        <time>2014-04-27T06:26:38Z</time>
      </trkpt>
      <trkpt lat="45.16309" lon="0.6026">
        <ele>90</ele>
        <time>2014-04-27T06:26:39Z</time>
      </trkpt>
      <trkpt lat="45.16315" lon="0.60261">
        <ele>90</ele>
        <time>2014-04-27T06:26:41Z</time>
      </trkpt>
      <trkpt lat="45.16345" lon="0.60254">
        <ele>90</ele>
        <time>2014-04-27T06:26:55Z</time>
      </trkpt>
      <trkpt lat="45.16347" lon="0.60251">
        <ele>90</ele>
        <time>2014-04-27T06:27:06Z</time>
      </trkpt>
      <trkpt lat="45.16345" lon="0.60249">
        <ele>90</ele>
        <time>2014-04-27T06:27:20Z</time>
      </trkpt>
      <trkpt lat="45.16344" lon="0.60246">
        <ele>90</ele>
        <time>2014-04-27T06:27:39Z</time>
      </trkpt>
      <trkpt lat="45.16343" lon="0.60245">
        <ele>90</ele>
        <time>2014-04-27T06:27:58Z</time>
      </trkpt>
      <trkpt lat="45.16345" lon="0.60242">
        <ele>90</ele>
        <time>2014-04-27T06:28:15Z</time>
      </trkpt>
      <trkpt lat="45.16345" lon="0.60241">
        <ele>90</ele>
        <time>2014-04-27T06:28:34Z</time>
      </trkpt>
      <trkpt lat="45.16345" lon="0.60242">
        <ele>90</ele>
        <time>2014-04-27T06:28:55Z</time>
      </trkpt>
      <trkpt lat="45.16344" lon="0.60243">
        <ele>90</ele>
        <time>2014-04-27T06:29:21Z</time>
      </trkpt>
      <trkpt lat="45.16345" lon="0.60243">
        <ele>90</ele>
        <time>2014-04-27T06:29:33Z</time>
      </trkpt>
      <trkpt lat="45.16348" lon="0.60227">
        <ele>90</ele>
        <time>2014-04-27T06:29:40Z</time>
      </trkpt>
      <trkpt lat="45.16357" lon="0.60216">
        <ele>90</ele>
        <time>2014-04-27T06:29:50Z</time>
      </trkpt>
      <trkpt lat="45.16358" lon="0.60213">
        <ele>90</ele>
        <time>2014-04-27T06:30:03Z</time>
      </trkpt>
      <trkpt lat="45.16358" lon="0.60214">
        <ele>90</ele>
        <time>2014-04-27T06:30:25Z</time>
      </trkpt>
      <trkpt lat="45.16358" lon="0.60214">
        <ele>90</ele>
        <time>2014-04-27T06:30:45Z</time>
      </trkpt>
      <trkpt lat="45.16358" lon="0.60217">
        <ele>90</ele>
        <time>2014-04-27T06:31:20Z</time>
      </trkpt>
      <trkpt lat="45.16359" lon="0.60217">
        <ele>90</ele>
        <time>2014-04-27T06:31:46Z</time>
      </trkpt>
      <trkpt lat="45.16361" lon="0.60214">
        <ele>90</ele>
        <time>2014-04-27T06:32:17Z</time>
      </trkpt>
      <trkpt lat="45.16367" lon="0.60204">
        <ele>90</ele>
        <time>2014-04-27T06:32:28Z</time>
      </trkpt>
      <trkpt lat="45.16369" lon="0.60206">
        <ele>90</ele>
        <time>2014-04-27T06:32:29Z</time>
      </trkpt>
      <trkpt lat="45.16371" lon="0.60207">
        <ele>90</ele>
        <time>2014-04-27T06:32:30Z</time>
      </trkpt>
      <trkpt lat="45.16373" lon="0.60208">
        <ele>90</ele>
        <time>2014-04-27T06:32:31Z</time>
      </trkpt>
      <trkpt lat="45.16376" lon="0.60207">
        <ele>90</ele>
        <time>2014-04-27T06:32:32Z</time>
      </trkpt>
      <trkpt lat="45.16378" lon="0.60207">
        <ele>90</ele>
        <time>2014-04-27T06:32:33Z</time>
      </trkpt>
      <trkpt lat="45.16381" lon="0.60208">
        <ele>90</ele>
        <time>2014-04-27T06:32:34Z</time>
      </trkpt>
      <trkpt lat="45.16384" lon="0.60211">
        <ele>90</ele>
        <time>2014-04-27T06:32:35Z</time>
      </trkpt>
      <trkpt lat="45.16387" lon="0.60215">
        <ele>90</ele>
        <time>2014-04-27T06:32:36Z</time>
      </trkpt>
      <trkpt lat="45.16397" lon="0.60228">
        <ele>90</ele>
        <time>2014-04-27T06:32:39Z</time>
      </trkpt>
      <trkpt lat="45.16399" lon="0.60233">
        <ele>90</ele>
        <time>2014-04-27T06:32:40Z</time>
      </trkpt>
      <trkpt lat="45.16398" lon="0.60239">
        <ele>90</ele>
        <time>2014-04-27T06:32:41Z</time>
      </trkpt>
      <trkpt lat="45.16363" lon="0.60358">
        <ele>90</ele>
        <time>2014-04-27T06:33:00Z</time>
      </trkpt>
      <trkpt lat="45.16328" lon="0.60474">
        <ele>90</ele>
        <time>2014-04-27T06:33:18Z</time>
      </trkpt>
      <trkpt lat="45.16301" lon="0.6057">
        <ele>89</ele>
        <time>2014-04-27T06:33:33Z</time>
      </trkpt>
      <trkpt lat="45.16302" lon="0.60574">
        <ele>89</ele>
        <time>2014-04-27T06:33:34Z</time>
      </trkpt>
      <trkpt lat="45.16312" lon="0.60585">
        <ele>89</ele>
        <time>2014-04-27T06:33:37Z</time>
      </trkpt>
      <trkpt lat="45.16357" lon="0.60632">
        <ele>86</ele>
        <time>2014-04-27T06:33:47Z</time>
      </trkpt>
      <trkpt lat="45.16403" lon="0.6068">
        <ele>83</ele>
        <time>2014-04-27T06:33:54Z</time>
      </trkpt>
      <trkpt lat="45.16415" lon="0.60693">
        <ele>83</ele>
        <time>2014-04-27T06:33:56Z</time>
      </trkpt>
      <trkpt lat="45.16495" lon="0.60776">
        <ele>83</ele>
        <time>2014-04-27T06:34:11Z</time>
      </trkpt>
      <trkpt lat="45.16507" lon="0.60781">
        <ele>83</ele>
        <time>2014-04-27T06:34:14Z</time>
      </trkpt>
      <trkpt lat="45.1651" lon="0.60778">
        <ele>83</ele>
        <time>2014-04-27T06:34:15Z</time>
      </trkpt>
      <trkpt lat="45.16514" lon="0.60773">
        <ele>83</ele>
        <time>2014-04-27T06:34:16Z</time>
      </trkpt>
      <trkpt lat="45.16564" lon="0.60705">
        <ele>81</ele>
        <time>2014-04-27T06:34:29Z</time>
      </trkpt>
      <trkpt lat="45.16571" lon="0.60695">
        <ele>81</ele>
        <time>2014-04-27T06:34:31Z</time>
      </trkpt>
      <trkpt lat="45.16575" lon="0.60692">
        <ele>81</ele>
        <time>2014-04-27T06:34:32Z</time>
      </trkpt>
      <trkpt lat="45.16578" lon="0.60692">
        <ele>81</ele>
        <time>2014-04-27T06:34:33Z</time>
      </trkpt>
      <trkpt lat="45.16581" lon="0.60696">
        <ele>81</ele>
        <time>2014-04-27T06:34:34Z</time>
      </trkpt>
      <trkpt lat="45.16583" lon="0.60702">
        <ele>81</ele>
        <time>2014-04-27T06:34:35Z</time>
      </trkpt>
      <trkpt lat="45.16584" lon="0.60709">
        <ele>80</ele>
        <time>2014-04-27T06:34:36Z</time>
      </trkpt>
      <trkpt lat="45.16617" lon="0.60824">
        <ele>81</ele>
        <time>2014-04-27T06:34:50Z</time>
      </trkpt>
      <trkpt lat="45.16676" lon="0.60932">
        <ele>83</ele>
        <time>2014-04-27T06:35:04Z</time>
      </trkpt>
      <trkpt lat="45.16709" lon="0.61001">
        <ele>87</ele>
        <time>2014-04-27T06:35:13Z</time>
      </trkpt>
      <trkpt lat="45.16725" lon="0.61039">
        <ele>88</ele>
        <time>2014-04-27T06:35:19Z</time>
      </trkpt>
      <trkpt lat="45.16746" lon="0.61074">
        <ele>90</ele>
        <time>2014-04-27T06:35:25Z</time>
      </trkpt>
      <trkpt lat="45.16752" lon="0.61086">
        <ele>91</ele>
        <time>2014-04-27T06:35:27Z</time>
      </trkpt>
      <trkpt lat="45.16754" lon="0.61091">
        <ele>92</ele>
        <time>2014-04-27T06:35:28Z</time>
      </trkpt>
      <trkpt lat="45.16753" lon="0.61096">
        <ele>92</ele>
        <time>2014-04-27T06:35:29Z</time>
      </trkpt>
      <trkpt lat="45.16752" lon="0.61101">
        <ele>93</ele>
        <time>2014-04-27T06:35:30Z</time>
      </trkpt>
      <trkpt lat="45.16749" lon="0.61106">
        <ele>91</ele>
        <time>2014-04-27T06:35:31Z</time>
      </trkpt>
      <trkpt lat="45.16746" lon="0.61112">
        <ele>91</ele>
        <time>2014-04-27T06:35:32Z</time>
      </trkpt>
      <trkpt lat="45.16743" lon="0.61119">
        <ele>91</ele>
        <time>2014-04-27T06:35:33Z</time>
      </trkpt>
      <trkpt lat="45.16739" lon="0.61126">
        <ele>91</ele>
        <time>2014-04-27T06:35:34Z</time>
      </trkpt>
      <trkpt lat="45.16735" lon="0.61134">
        <ele>92</ele>
        <time>2014-04-27T06:35:35Z</time>
      </trkpt>
      <trkpt lat="45.16732" lon="0.61142">
        <ele>92</ele>
        <time>2014-04-27T06:35:36Z</time>
      </trkpt>
      <trkpt lat="45.16705" lon="0.61204">
        <ele>94</ele>
        <time>2014-04-27T06:35:45Z</time>
      </trkpt>
      <trkpt lat="45.16701" lon="0.61209">
        <ele>94</ele>
        <time>2014-04-27T06:35:46Z</time>
      </trkpt>
      <trkpt lat="45.16697" lon="0.61215">
        <ele>95</ele>
        <time>2014-04-27T06:35:47Z</time>
      </trkpt>
      <trkpt lat="45.16643" lon="0.61296">
        <ele>93</ele>
        <time>2014-04-27T06:36:01Z</time>
      </trkpt>
      <trkpt lat="45.16607" lon="0.61367">
        <ele>94</ele>
        <time>2014-04-27T06:36:13Z</time>
      </trkpt>
      <trkpt lat="45.16605" lon="0.61374">
        <ele>94</ele>
        <time>2014-04-27T06:36:14Z</time>
      </trkpt>
      <trkpt lat="45.16603" lon="0.6138">
        <ele>95</ele>
        <time>2014-04-27T06:36:15Z</time>
      </trkpt>
      <trkpt lat="45.166" lon="0.61386">
        <ele>95</ele>
        <time>2014-04-27T06:36:16Z</time>
      </trkpt>
      <trkpt lat="45.16597" lon="0.61392">
        <ele>95</ele>
        <time>2014-04-27T06:36:17Z</time>
      </trkpt>
      <trkpt lat="45.16594" lon="0.61398">
        <ele>95</ele>
        <time>2014-04-27T06:36:18Z</time>
      </trkpt>
      <trkpt lat="45.1659" lon="0.61404">
        <ele>95</ele>
        <time>2014-04-27T06:36:19Z</time>
      </trkpt>
      <trkpt lat="45.16585" lon="0.61416">
        <ele>95</ele>
        <time>2014-04-27T06:36:22Z</time>
      </trkpt>
      <trkpt lat="45.16585" lon="0.61418">
        <ele>95</ele>
        <time>2014-04-27T06:36:23Z</time>
      </trkpt>
      <trkpt lat="45.16586" lon="0.61421">
        <ele>95</ele>
        <time>2014-04-27T06:36:24Z</time>
      </trkpt>
      <trkpt lat="45.16587" lon="0.61425">
        <ele>96</ele>
        <time>2014-04-27T06:36:25Z</time>
      </trkpt>
      <trkpt lat="45.1659" lon="0.6143">
        <ele>96</ele>
        <time>2014-04-27T06:36:26Z</time>
      </trkpt>
      <trkpt lat="45.16593" lon="0.61435">
        <ele>96</ele>
        <time>2014-04-27T06:36:27Z</time>
      </trkpt>
      <trkpt lat="45.16603" lon="0.6145">
        <ele>97</ele>
        <time>2014-04-27T06:36:30Z</time>
      </trkpt>
      <trkpt lat="45.16607" lon="0.61453">
        <ele>97</ele>
        <time>2014-04-27T06:36:31Z</time>
      </trkpt>
      <trkpt lat="45.1661" lon="0.61456">
        <ele>97</ele>
        <time>2014-04-27T06:36:32Z</time>
      </trkpt>
      <trkpt lat="45.16614" lon="0.61458">
        <ele>97</ele>
        <time>2014-04-27T06:36:33Z</time>
      </trkpt>
      <trkpt lat="45.16618" lon="0.61462">
        <ele>97</ele>
        <time>2014-04-27T06:36:34Z</time>
      </trkpt>
      <trkpt lat="45.16622" lon="0.61465">
        <ele>97</ele>
        <time>2014-04-27T06:36:35Z</time>
      </trkpt>
      <trkpt lat="45.16634" lon="0.61476">
        <ele>98</ele>
        <time>2014-04-27T06:36:38Z</time>
      </trkpt>
      <trkpt lat="45.16662" lon="0.61488">
        <ele>98</ele>
        <time>2014-04-27T06:36:44Z</time>
      </trkpt>
      <trkpt lat="45.16666" lon="0.6149">
        <ele>98</ele>
        <time>2014-04-27T06:36:45Z</time>
      </trkpt>
      <trkpt lat="45.16731" lon="0.61512">
        <ele>100</ele>
        <time>2014-04-27T06:36:58Z</time>
      </trkpt>
      <trkpt lat="45.16735" lon="0.61514">
        <ele>100</ele>
        <time>2014-04-27T06:36:59Z</time>
      </trkpt>
      <trkpt lat="45.1674" lon="0.61514">
        <ele>100</ele>
        <time>2014-04-27T06:37:00Z</time>
      </trkpt>
      <trkpt lat="45.16755" lon="0.61513">
        <ele>100</ele>
        <time>2014-04-27T06:37:03Z</time>
      </trkpt>
      <trkpt lat="45.16797" lon="0.61504">
        <ele>100</ele>
        <time>2014-04-27T06:37:11Z</time>
      </trkpt>
      <trkpt lat="45.16802" lon="0.61503">
        <ele>100</ele>
        <time>2014-04-27T06:37:12Z</time>
      </trkpt>
      <trkpt lat="45.16871" lon="0.61492">
        <ele>99</ele>
        <time>2014-04-27T06:37:23Z</time>
      </trkpt>
      <trkpt lat="45.16876" lon="0.61493">
        <ele>98</ele>
        <time>2014-04-27T06:37:24Z</time>
      </trkpt>
      <trkpt lat="45.16881" lon="0.61496">
        <ele>98</ele>
        <time>2014-04-27T06:37:25Z</time>
      </trkpt>
      <trkpt lat="45.16884" lon="0.615">
        <ele>99</ele>
        <time>2014-04-27T06:37:26Z</time>
      </trkpt>
      <trkpt lat="45.16885" lon="0.61506">
        <ele>99</ele>
        <time>2014-04-27T06:37:27Z</time>
      </trkpt>
      <trkpt lat="45.16884" lon="0.61513">
        <ele>99</ele>
        <time>2014-04-27T06:37:28Z</time>
      </trkpt>
      <trkpt lat="45.16882" lon="0.61519">
        <ele>100</ele>
        <time>2014-04-27T06:37:29Z</time>
      </trkpt>
      <trkpt lat="45.16876" lon="0.61556">
        <ele>101</ele>
        <time>2014-04-27T06:37:34Z</time>
      </trkpt>
      <trkpt lat="45.16874" lon="0.61639">
        <ele>105</ele>
        <time>2014-04-27T06:37:45Z</time>
      </trkpt>
      <trkpt lat="45.16874" lon="0.61698">
        <ele>108</ele>
        <time>2014-04-27T06:37:53Z</time>
      </trkpt>
      <trkpt lat="45.16874" lon="0.61705">
        <ele>108</ele>
        <time>2014-04-27T06:37:54Z</time>
      </trkpt>
      <trkpt lat="45.16874" lon="0.61713">
        <ele>108</ele>
        <time>2014-04-27T06:37:55Z</time>
      </trkpt>
      <trkpt lat="45.16871" lon="0.61757">
        <ele>111</ele>
        <time>2014-04-27T06:38:01Z</time>
      </trkpt>
      <trkpt lat="45.16869" lon="0.61762">
        <ele>111</ele>
        <time>2014-04-27T06:38:02Z</time>
      </trkpt>
      <trkpt lat="45.16866" lon="0.61766">
        <ele>111</ele>
        <time>2014-04-27T06:38:03Z</time>
      </trkpt>
      <trkpt lat="45.16862" lon="0.6177">
        <ele>111</ele>
        <time>2014-04-27T06:38:04Z</time>
      </trkpt>
      <trkpt lat="45.16857" lon="0.61773">
        <ele>111</ele>
        <time>2014-04-27T06:38:05Z</time>
      </trkpt>
      <trkpt lat="45.16852" lon="0.61775">
        <ele>111</ele>
        <time>2014-04-27T06:38:06Z</time>
      </trkpt>
      <trkpt lat="45.16838" lon="0.6178">
        <ele>111</ele>
        <time>2014-04-27T06:38:09Z</time>
      </trkpt>
      <trkpt lat="45.16761" lon="0.61805">
        <ele>111</ele>
        <time>2014-04-27T06:38:25Z</time>
      </trkpt>
      <trkpt lat="45.1667" lon="0.61843">
        <ele>111</ele>
        <time>2014-04-27T06:38:41Z</time>
      </trkpt>
      <trkpt lat="45.16663" lon="0.61845">
        <ele>110</ele>
        <time>2014-04-27T06:38:42Z</time>
      </trkpt>
      <trkpt lat="45.16592" lon="0.61859">
        <ele>109</ele>
        <time>2014-04-27T06:38:53Z</time>
      </trkpt>
      <trkpt lat="45.16585" lon="0.61859">
        <ele>109</ele>
        <time>2014-04-27T06:38:54Z</time>
      </trkpt>
      <trkpt lat="45.16577" lon="0.61858">
        <ele>107</ele>
        <time>2014-04-27T06:38:55Z</time>
      </trkpt>
      <trkpt lat="45.16553" lon="0.61855">
        <ele>107</ele>
        <time>2014-04-27T06:38:58Z</time>
      </trkpt>
      <trkpt lat="45.16472" lon="0.6184">
        <ele>105</ele>
        <time>2014-04-27T06:39:09Z</time>
      </trkpt>
      <trkpt lat="45.16457" lon="0.6184">
        <ele>105</ele>
        <time>2014-04-27T06:39:11Z</time>
      </trkpt>
      <trkpt lat="45.16333" lon="0.61844">
        <ele>104</ele>
        <time>2014-04-27T06:39:27Z</time>
      </trkpt>
      <trkpt lat="45.16248" lon="0.61847">
        <ele>100</ele>
        <time>2014-04-27T06:39:39Z</time>
      </trkpt>
      <trkpt lat="45.1621" lon="0.61846">
        <ele>100</ele>
        <time>2014-04-27T06:39:44Z</time>
      </trkpt>
      <trkpt lat="45.16203" lon="0.61848">
        <ele>100</ele>
        <time>2014-04-27T06:39:45Z</time>
      </trkpt>
      <trkpt lat="45.16196" lon="0.61852">
        <ele>100</ele>
        <time>2014-04-27T06:39:46Z</time>
      </trkpt>
      <trkpt lat="45.16176" lon="0.61866">
        <ele>100</ele>
        <time>2014-04-27T06:39:49Z</time>
      </trkpt>
      <trkpt lat="45.16169" lon="0.61869">
        <ele>101</ele>
        <time>2014-04-27T06:39:50Z</time>
      </trkpt>
      <trkpt lat="45.16162" lon="0.61872">
        <ele>97</ele>
        <time>2014-04-27T06:39:51Z</time>
      </trkpt>
      <trkpt lat="45.16123" lon="0.61884">
        <ele>97</ele>
        <time>2014-04-27T06:39:56Z</time>
      </trkpt>
      <trkpt lat="45.16116" lon="0.6189">
        <ele>97</ele>
        <time>2014-04-27T06:39:57Z</time>
      </trkpt>
      <trkpt lat="45.1611" lon="0.61896">
        <ele>97</ele>
        <time>2014-04-27T06:39:58Z</time>
      </trkpt>
      <trkpt lat="45.16104" lon="0.61904">
        <ele>97</ele>
        <time>2014-04-27T06:39:59Z</time>
      </trkpt>
      <trkpt lat="45.16099" lon="0.61913">
        <ele>97</ele>
        <time>2014-04-27T06:40:00Z</time>
      </trkpt>
      <trkpt lat="45.16094" lon="0.61922">
        <ele>99</ele>
        <time>2014-04-27T06:40:01Z</time>
      </trkpt>
      <trkpt lat="45.16086" lon="0.61937">
        <ele>100</ele>
        <time>2014-04-27T06:40:03Z</time>
      </trkpt>
      <trkpt lat="45.16082" lon="0.61945">
        <ele>96</ele>
        <time>2014-04-27T06:40:04Z</time>
      </trkpt>
      <trkpt lat="45.1605" lon="0.61966">
        <ele>96</ele>
        <time>2014-04-27T06:40:10Z</time>
      </trkpt>
      <trkpt lat="45.16034" lon="0.61962">
        <ele>95</ele>
        <time>2014-04-27T06:40:12Z</time>
      </trkpt>
      <trkpt lat="45.16017" lon="0.61961">
        <ele>94</ele>
        <time>2014-04-27T06:40:14Z</time>
      </trkpt>
      <trkpt lat="45.15995" lon="0.61963">
        <ele>89</ele>
        <time>2014-04-27T06:40:17Z</time>
      </trkpt>
      <trkpt lat="45.15958" lon="0.6199">
        <ele>88</ele>
        <time>2014-04-27T06:40:26Z</time>
      </trkpt>
      <trkpt lat="45.15954" lon="0.61995">
        <ele>88</ele>
        <time>2014-04-27T06:40:27Z</time>
      </trkpt>
      <trkpt lat="45.15937" lon="0.62015">
        <ele>90</ele>
        <time>2014-04-27T06:40:31Z</time>
      </trkpt>
      <trkpt lat="45.15916" lon="0.62024">
        <ele>86</ele>
        <time>2014-04-27T06:40:35Z</time>
      </trkpt>
      <trkpt lat="45.15859" lon="0.62022">
        <ele>85</ele>
        <time>2014-04-27T06:40:47Z</time>
      </trkpt>
      <trkpt lat="45.15768" lon="0.62038">
        <ele>84</ele>
        <time>2014-04-27T06:41:03Z</time>
      </trkpt>
      <trkpt lat="45.15743" lon="0.62033">
        <ele>84</ele>
        <time>2014-04-27T06:41:07Z</time>
      </trkpt>
      <trkpt lat="45.15721" lon="0.62018">
        <ele>84</ele>
        <time>2014-04-27T06:41:11Z</time>
      </trkpt>
      <trkpt lat="45.15692" lon="0.61989">
        <ele>86</ele>
        <time>2014-04-27T06:41:17Z</time>
      </trkpt>
      <trkpt lat="45.15671" lon="0.62013">
        <ele>85</ele>
        <time>2014-04-27T06:41:23Z</time>
      </trkpt>
      <trkpt lat="45.15645" lon="0.62083">
        <ele>86</ele>
        <time>2014-04-27T06:41:32Z</time>
      </trkpt>
      <trkpt lat="45.15623" lon="0.62149">
        <ele>86</ele>
        <time>2014-04-27T06:41:41Z</time>
      </trkpt>
      <trkpt lat="45.15619" lon="0.62155">
        <ele>86</ele>
        <time>2014-04-27T06:41:42Z</time>
      </trkpt>
      <trkpt lat="45.15615" lon="0.62159">
        <ele>87</ele>
        <time>2014-04-27T06:41:43Z</time>
      </trkpt>
      <trkpt lat="45.1561" lon="0.62161">
        <ele>87</ele>
        <time>2014-04-27T06:41:44Z</time>
      </trkpt>
      <trkpt lat="45.15605" lon="0.6216">
        <ele>87</ele>
        <time>2014-04-27T06:41:45Z</time>
      </trkpt>
      <trkpt lat="45.15601" lon="0.62158">
        <ele>87</ele>
        <time>2014-04-27T06:41:46Z</time>
      </trkpt>
      <trkpt lat="45.15596" lon="0.62156">
        <ele>87</ele>
        <time>2014-04-27T06:41:47Z</time>
      </trkpt>
      <trkpt lat="45.15592" lon="0.62153">
        <ele>87</ele>
        <time>2014-04-27T06:41:48Z</time>
      </trkpt>
      <trkpt lat="45.15565" lon="0.62133">
        <ele>92</ele>
        <time>2014-04-27T06:41:56Z</time>
      </trkpt>
      <trkpt lat="45.15552" lon="0.62115">
        <ele>93</ele>
        <time>2014-04-27T06:42:02Z</time>
      </trkpt>
      <trkpt lat="45.15535" lon="0.62091">
        <ele>95</ele>
        <time>2014-04-27T06:42:11Z</time>
      </trkpt>
      <trkpt lat="45.15515" lon="0.62068">
        <ele>98</ele>
        <time>2014-04-27T06:42:21Z</time>
      </trkpt>
      <trkpt lat="45.15493" lon="0.62042">
        <ele>103</ele>
        <time>2014-04-27T06:42:32Z</time>
      </trkpt>
      <trkpt lat="45.1549" lon="0.62041">
        <ele>104</ele>
        <time>2014-04-27T06:42:33Z</time>
      </trkpt>
      <trkpt lat="45.15487" lon="0.62042">
        <ele>104</ele>
        <time>2014-04-27T06:42:34Z</time>
      </trkpt>
      <trkpt lat="45.15484" lon="0.62043">
        <ele>104</ele>
        <time>2014-04-27T06:42:35Z</time>
      </trkpt>
      <trkpt lat="45.15481" lon="0.62045">
        <ele>104</ele>
        <time>2014-04-27T06:42:36Z</time>
      </trkpt>
      <trkpt lat="45.15478" lon="0.62047">
        <ele>104</ele>
        <time>2014-04-27T06:42:37Z</time>
      </trkpt>
      <trkpt lat="45.15475" lon="0.62049">
        <ele>104</ele>
        <time>2014-04-27T06:42:38Z</time>
      </trkpt>
      <trkpt lat="45.15472" lon="0.62052">
        <ele>104</ele>
        <time>2014-04-27T06:42:39Z</time>
      </trkpt>
      <trkpt lat="45.1547" lon="0.62054">
        <ele>104</ele>
        <time>2014-04-27T06:42:40Z</time>
      </trkpt>
      <trkpt lat="45.15468" lon="0.62056">
        <ele>104</ele>
        <time>2014-04-27T06:42:41Z</time>
      </trkpt>
      <trkpt lat="45.15466" lon="0.62059">
        <ele>104</ele>
        <time>2014-04-27T06:42:42Z</time>
      </trkpt>
      <trkpt lat="45.15438" lon="0.62056">
        <ele>106</ele>
        <time>2014-04-27T06:42:51Z</time>
      </trkpt>
      <trkpt lat="45.15409" lon="0.62018">
        <ele>110</ele>
        <time>2014-04-27T06:43:01Z</time>
      </trkpt>
      <trkpt lat="45.15407" lon="0.62013">
        <ele>110</ele>
        <time>2014-04-27T06:43:02Z</time>
      </trkpt>
      <trkpt lat="45.15405" lon="0.62008">
        <ele>109</ele>
        <time>2014-04-27T06:43:03Z</time>
      </trkpt>
      <trkpt lat="45.15403" lon="0.62003">
        <ele>109</ele>
        <time>2014-04-27T06:43:04Z</time>
      </trkpt>
      <trkpt lat="45.15402" lon="0.61998">
        <ele>109</ele>
        <time>2014-04-27T06:43:05Z</time>
      </trkpt>
      <trkpt lat="45.154" lon="0.61993">
        <ele>110</ele>
        <time>2014-04-27T06:43:06Z</time>
      </trkpt>
      <trkpt lat="45.154" lon="0.61988">
        <ele>110</ele>
        <time>2014-04-27T06:43:07Z</time>
      </trkpt>
      <trkpt lat="45.15392" lon="0.61964">
        <ele>111</ele>
        <time>2014-04-27T06:43:12Z</time>
      </trkpt>
      <trkpt lat="45.15389" lon="0.61963">
        <ele>111</ele>
        <time>2014-04-27T06:43:13Z</time>
      </trkpt>
      <trkpt lat="45.15387" lon="0.61964">
        <ele>112</ele>
        <time>2014-04-27T06:43:14Z</time>
      </trkpt>
      <trkpt lat="45.15384" lon="0.61967">
        <ele>112</ele>
        <time>2014-04-27T06:43:15Z</time>
      </trkpt>
      <trkpt lat="45.15383" lon="0.61971">
        <ele>112</ele>
        <time>2014-04-27T06:43:16Z</time>
      </trkpt>
      <trkpt lat="45.15381" lon="0.61975">
        <ele>112</ele>
        <time>2014-04-27T06:43:17Z</time>
      </trkpt>
      <trkpt lat="45.15354" lon="0.62022">
        <ele>114</ele>
        <time>2014-04-27T06:43:28Z</time>
      </trkpt>
      <trkpt lat="45.1532" lon="0.62061">
        <ele>116</ele>
        <time>2014-04-27T06:43:39Z</time>
      </trkpt>
      <trkpt lat="45.15316" lon="0.62061">
        <ele>116</ele>
        <time>2014-04-27T06:43:40Z</time>
      </trkpt>
      <trkpt lat="45.15313" lon="0.6206">
        <ele>117</ele>
        <time>2014-04-27T06:43:41Z</time>
      </trkpt>
      <trkpt lat="45.1531" lon="0.62058">
        <ele>117</ele>
        <time>2014-04-27T06:43:42Z</time>
      </trkpt>
      <trkpt lat="45.15308" lon="0.62055">
        <ele>117</ele>
        <time>2014-04-27T06:43:43Z</time>
      </trkpt>
      <trkpt lat="45.15306" lon="0.62053">
        <ele>117</ele>
        <time>2014-04-27T06:43:44Z</time>
      </trkpt>
      <trkpt lat="45.153" lon="0.62045">
        <ele>117</ele>
        <time>2014-04-27T06:43:47Z</time>
      </trkpt>
      <trkpt lat="45.15273" lon="0.62015">
        <ele>119</ele>
        <time>2014-04-27T06:44:00Z</time>
      </trkpt>
      <trkpt lat="45.1525" lon="0.61987">
        <ele>122</ele>
        <time>2014-04-27T06:44:11Z</time>
      </trkpt>
      <trkpt lat="45.15223" lon="0.61968">
        <ele>127</ele>
        <time>2014-04-27T06:44:23Z</time>
      </trkpt>
      <trkpt lat="45.1519" lon="0.61954">
        <ele>130</ele>
        <time>2014-04-27T06:44:37Z</time>
      </trkpt>
      <trkpt lat="45.15157" lon="0.61949">
        <ele>134</ele>
        <time>2014-04-27T06:44:51Z</time>
      </trkpt>
      <trkpt lat="45.15122" lon="0.61942">
        <ele>135</ele>
        <time>2014-04-27T06:45:04Z</time>
      </trkpt>
      <trkpt lat="45.15088" lon="0.61913">
        <ele>143</ele>
        <time>2014-04-27T06:45:19Z</time>
      </trkpt>
      <trkpt lat="45.15079" lon="0.61872">
        <ele>145</ele>
        <time>2014-04-27T06:45:31Z</time>
      </trkpt>
      <trkpt lat="45.15062" lon="0.61833">
        <ele>154</ele>
        <time>2014-04-27T06:45:44Z</time>
      </trkpt>
      <trkpt lat="45.15036" lon="0.6181">
        <ele>155</ele>
        <time>2014-04-27T06:45:57Z</time>
      </trkpt>
      <trkpt lat="45.15008" lon="0.61795">
        <ele>156</ele>
        <time>2014-04-27T06:46:09Z</time>
      </trkpt>
      <trkpt lat="45.1497" lon="0.61779">
        <ele>157</ele>
        <time>2014-04-27T06:46:23Z</time>
      </trkpt>
      <trkpt lat="45.14938" lon="0.6176">
        <ele>160</ele>
        <time>2014-04-27T06:46:37Z</time>
      </trkpt>
      <trkpt lat="45.14903" lon="0.61734">
        <ele>170</ele>
        <time>2014-04-27T06:46:52Z</time>
      </trkpt>
      <trkpt lat="45.14869" lon="0.61711">
        <ele>172</ele>
        <time>2014-04-27T06:47:06Z</time>
      </trkpt>
      <trkpt lat="45.14839" lon="0.61688">
        <ele>174</ele>
        <time>2014-04-27T06:47:20Z</time>
      </trkpt>
      <trkpt lat="45.14811" lon="0.61659">
        <ele>179</ele>
        <time>2014-04-27T06:47:34Z</time>
      </trkpt>
      <trkpt lat="45.14783" lon="0.61629">
        <ele>180</ele>
        <time>2014-04-27T06:47:48Z</time>
      </trkpt>
      <trkpt lat="45.14758" lon="0.61596">
        <ele>183</ele>
        <time>2014-04-27T06:48:02Z</time>
      </trkpt>
      <trkpt lat="45.14733" lon="0.61561">
        <ele>186</ele>
        <time>2014-04-27T06:48:15Z</time>
      </trkpt>
      <trkpt lat="45.14711" lon="0.61529">
        <ele>188</ele>
        <time>2014-04-27T06:48:27Z</time>
      </trkpt>
      <trkpt lat="45.14693" lon="0.615">
        <ele>194</ele>
        <time>2014-04-27T06:48:41Z</time>
      </trkpt>
      <trkpt lat="45.14692" lon="0.61499">
        <ele>194</ele>
        <time>2014-04-27T06:49:16Z</time>
      </trkpt>
      <trkpt lat="45.14692" lon="0.61498">
        <ele>194</ele>
        <time>2014-04-27T06:49:31Z</time>
      </trkpt>
      <trkpt lat="45.14712" lon="0.61489">
        <ele>195</ele>
        <time>2014-04-27T06:49:42Z</time>
      </trkpt>
      <trkpt lat="45.14719" lon="0.61485">
        <ele>195</ele>
        <time>2014-04-27T06:49:47Z</time>
      </trkpt>
      <trkpt lat="45.14726" lon="0.61467">
        <ele>195</ele>
        <time>2014-04-27T06:49:53Z</time>
      </trkpt>
      <trkpt lat="45.14738" lon="0.61447">
        <ele>196</ele>
        <time>2014-04-27T06:50:00Z</time>
      </trkpt>
      <trkpt lat="45.14762" lon="0.61436">
        <ele>196</ele>
        <time>2014-04-27T06:50:10Z</time>
      </trkpt>
      <trkpt lat="45.14767" lon="0.61427">
        <ele>196</ele>
        <time>2014-04-27T06:50:13Z</time>
      </trkpt>
      <trkpt lat="45.14758" lon="0.61404">
        <ele>196</ele>
        <time>2014-04-27T06:50:19Z</time>
      </trkpt>
      <trkpt lat="45.14708" lon="0.61349">
        <ele>198</ele>
        <time>2014-04-27T06:50:33Z</time>
      </trkpt>
      <trkpt lat="45.14669" lon="0.61306">
        <ele>197</ele>
        <time>2014-04-27T06:50:43Z</time>
      </trkpt>
      <trkpt lat="45.14599" lon="0.61243">
        <ele>194</ele>
        <time>2014-04-27T06:50:59Z</time>
      </trkpt>
      <trkpt lat="45.14595" lon="0.61241">
        <ele>194</ele>
        <time>2014-04-27T06:51:00Z</time>
      </trkpt>
      <trkpt lat="45.1459" lon="0.61243">
        <ele>194</ele>
        <time>2014-04-27T06:51:01Z</time>
      </trkpt>
      <trkpt lat="45.14587" lon="0.61246">
        <ele>194</ele>
        <time>2014-04-27T06:51:02Z</time>
      </trkpt>
      <trkpt lat="45.14583" lon="0.6125">
        <ele>194</ele>
        <time>2014-04-27T06:51:03Z</time>
      </trkpt>
      <trkpt lat="45.1458" lon="0.61254">
        <ele>194</ele>
        <time>2014-04-27T06:51:04Z</time>
      </trkpt>
      <trkpt lat="45.14576" lon="0.61257">
        <ele>194</ele>
        <time>2014-04-27T06:51:05Z</time>
      </trkpt>
      <trkpt lat="45.14571" lon="0.61259">
        <ele>194</ele>
        <time>2014-04-27T06:51:06Z</time>
      </trkpt>
      <trkpt lat="45.14566" lon="0.61261">
        <ele>194</ele>
        <time>2014-04-27T06:51:07Z</time>
      </trkpt>
      <trkpt lat="45.14561" lon="0.61262">
        <ele>194</ele>
        <time>2014-04-27T06:51:08Z</time>
      </trkpt>
      <trkpt lat="45.14556" lon="0.61263">
        <ele>194</ele>
        <time>2014-04-27T06:51:09Z</time>
      </trkpt>
      <trkpt lat="45.14551" lon="0.61262">
        <ele>194</ele>
        <time>2014-04-27T06:51:10Z</time>
      </trkpt>
      <trkpt lat="45.14546" lon="0.61262">
        <ele>194</ele>
        <time>2014-04-27T06:51:11Z</time>
      </trkpt>
      <trkpt lat="45.14471" lon="0.61275">
        <ele>193</ele>
        <time>2014-04-27T06:51:25Z</time>
      </trkpt>
      <trkpt lat="45.14465" lon="0.61275">
        <ele>193</ele>
        <time>2014-04-27T06:51:26Z</time>
      </trkpt>
      <trkpt lat="45.14387" lon="0.61246">
        <ele>194</ele>
        <time>2014-04-27T06:51:40Z</time>
      </trkpt>
      <trkpt lat="45.14302" lon="0.61188">
        <ele>195</ele>
        <time>2014-04-27T06:51:56Z</time>
      </trkpt>
      <trkpt lat="45.14297" lon="0.61187">
        <ele>195</ele>
        <time>2014-04-27T06:51:57Z</time>
      </trkpt>
      <trkpt lat="45.14291" lon="0.61187">
        <ele>196</ele>
        <time>2014-04-27T06:51:58Z</time>
      </trkpt>
      <trkpt lat="45.14269" lon="0.61192">
        <ele>196</ele>
        <time>2014-04-27T06:52:02Z</time>
      </trkpt>
      <trkpt lat="45.1419" lon="0.61223">
        <ele>200</ele>
        <time>2014-04-27T06:52:16Z</time>
      </trkpt>
      <trkpt lat="45.1413" lon="0.61248">
        <ele>202</ele>
        <time>2014-04-27T06:52:27Z</time>
      </trkpt>
      <trkpt lat="45.1407" lon="0.61291">
        <ele>199</ele>
        <time>2014-04-27T06:52:38Z</time>
      </trkpt>
      <trkpt lat="45.14063" lon="0.61293">
        <ele>198</ele>
        <time>2014-04-27T06:52:39Z</time>
      </trkpt>
      <trkpt lat="45.13958" lon="0.61328">
        <ele>195</ele>
        <time>2014-04-27T06:52:55Z</time>
      </trkpt>
      <trkpt lat="45.1388" lon="0.61352">
        <ele>193</ele>
        <time>2014-04-27T06:53:06Z</time>
      </trkpt>
      <trkpt lat="45.13874" lon="0.61357">
        <ele>193</ele>
        <time>2014-04-27T06:53:07Z</time>
      </trkpt>
      <trkpt lat="45.13868" lon="0.61363">
        <ele>193</ele>
        <time>2014-04-27T06:53:08Z</time>
      </trkpt>
      <trkpt lat="45.13863" lon="0.61371">
        <ele>193</ele>
        <time>2014-04-27T06:53:09Z</time>
      </trkpt>
      <trkpt lat="45.13859" lon="0.61379">
        <ele>193</ele>
        <time>2014-04-27T06:53:10Z</time>
      </trkpt>
      <trkpt lat="45.13856" lon="0.61388">
        <ele>193</ele>
        <time>2014-04-27T06:53:11Z</time>
      </trkpt>
      <trkpt lat="45.13854" lon="0.61398">
        <ele>193</ele>
        <time>2014-04-27T06:53:12Z</time>
      </trkpt>
      <trkpt lat="45.1381" lon="0.61558">
        <ele>195</ele>
        <time>2014-04-27T06:53:30Z</time>
      </trkpt>
      <trkpt lat="45.13807" lon="0.61563">
        <ele>195</ele>
        <time>2014-04-27T06:53:31Z</time>
      </trkpt>
      <trkpt lat="45.13803" lon="0.61566">
        <ele>195</ele>
        <time>2014-04-27T06:53:32Z</time>
      </trkpt>
      <trkpt lat="45.13798" lon="0.61566">
        <ele>194</ele>
        <time>2014-04-27T06:53:33Z</time>
      </trkpt>
      <trkpt lat="45.13732" lon="0.61567">
        <ele>188</ele>
        <time>2014-04-27T06:53:43Z</time>
      </trkpt>
      <trkpt lat="45.13703" lon="0.61556">
        <ele>184</ele>
        <time>2014-04-27T06:53:47Z</time>
      </trkpt>
      <trkpt lat="45.13679" lon="0.61536">
        <ele>181</ele>
        <time>2014-04-27T06:53:50Z</time>
      </trkpt>
      <trkpt lat="45.13653" lon="0.61495">
        <ele>170</ele>
        <time>2014-04-27T06:53:54Z</time>
      </trkpt>
      <trkpt lat="45.13648" lon="0.61482">
        <ele>168</ele>
        <time>2014-04-27T06:53:55Z</time>
      </trkpt>
      <trkpt lat="45.13641" lon="0.61453">
        <ele>164</ele>
        <time>2014-04-27T06:53:57Z</time>
      </trkpt>
      <trkpt lat="45.13632" lon="0.61402">
        <ele>158</ele>
        <time>2014-04-27T06:54:00Z</time>
      </trkpt>
      <trkpt lat="45.13629" lon="0.61385">
        <ele>158</ele>
        <time>2014-04-27T06:54:01Z</time>
      </trkpt>
      <trkpt lat="45.13625" lon="0.6135">
        <ele>156</ele>
        <time>2014-04-27T06:54:03Z</time>
      </trkpt>
      <trkpt lat="45.13622" lon="0.61279">
        <ele>151</ele>
        <time>2014-04-27T06:54:07Z</time>
      </trkpt>
      <trkpt lat="45.13622" lon="0.61263">
        <ele>150</ele>
        <time>2014-04-27T06:54:08Z</time>
      </trkpt>
      <trkpt lat="45.13621" lon="0.61247">
        <ele>145</ele>
        <time>2014-04-27T06:54:09Z</time>
      </trkpt>
      <trkpt lat="45.13619" lon="0.61216">
        <ele>144</ele>
        <time>2014-04-27T06:54:11Z</time>
      </trkpt>
      <trkpt lat="45.13617" lon="0.61185">
        <ele>142</ele>
        <time>2014-04-27T06:54:13Z</time>
      </trkpt>
      <trkpt lat="45.13614" lon="0.61154">
        <ele>138</ele>
        <time>2014-04-27T06:54:15Z</time>
      </trkpt>
      <trkpt lat="45.13611" lon="0.61127">
        <ele>137</ele>
        <time>2014-04-27T06:54:17Z</time>
      </trkpt>
      <trkpt lat="45.13609" lon="0.61102">
        <ele>136</ele>
        <time>2014-04-27T06:54:19Z</time>
      </trkpt>
      <trkpt lat="45.13607" lon="0.61089">
        <ele>136</ele>
        <time>2014-04-27T06:54:20Z</time>
      </trkpt>
      <trkpt lat="45.13612" lon="0.6104">
        <ele>133</ele>
        <time>2014-04-27T06:54:24Z</time>
      </trkpt>
      <trkpt lat="45.13624" lon="0.60999">
        <ele>132</ele>
        <time>2014-04-27T06:54:27Z</time>
      </trkpt>
      <trkpt lat="45.1363" lon="0.60956">
        <ele>132</ele>
        <time>2014-04-27T06:54:30Z</time>
      </trkpt>
      <trkpt lat="45.1363" lon="0.60944">
        <ele>132</ele>
        <time>2014-04-27T06:54:31Z</time>
      </trkpt>
      <trkpt lat="45.13619" lon="0.60922">
        <ele>131</ele>
        <time>2014-04-27T06:54:35Z</time>
      </trkpt>
      <trkpt lat="45.13574" lon="0.60909">
        <ele>122</ele>
        <time>2014-04-27T06:54:43Z</time>
      </trkpt>
      <trkpt lat="45.13569" lon="0.60908">
        <ele>122</ele>
        <time>2014-04-27T06:54:44Z</time>
      </trkpt>
      <trkpt lat="45.13564" lon="0.60917">
        <ele>121</ele>
        <time>2014-04-27T06:54:47Z</time>
      </trkpt>
      <trkpt lat="45.13558" lon="0.60937">
        <ele>122</ele>
        <time>2014-04-27T06:54:50Z</time>
      </trkpt>
      <trkpt lat="45.13552" lon="0.60951">
        <ele>122</ele>
        <time>2014-04-27T06:54:52Z</time>
      </trkpt>
      <trkpt lat="45.13549" lon="0.60956">
        <ele>122</ele>
        <time>2014-04-27T06:54:53Z</time>
      </trkpt>
      <trkpt lat="45.13545" lon="0.60958">
        <ele>122</ele>
        <time>2014-04-27T06:54:54Z</time>
      </trkpt>
      <trkpt lat="45.13542" lon="0.60958">
        <ele>122</ele>
        <time>2014-04-27T06:54:55Z</time>
      </trkpt>
      <trkpt lat="45.13539" lon="0.60958">
        <ele>122</ele>
        <time>2014-04-27T06:54:56Z</time>
      </trkpt>
      <trkpt lat="45.13536" lon="0.60959">
        <ele>121</ele>
        <time>2014-04-27T06:54:57Z</time>
      </trkpt>
      <trkpt lat="45.13533" lon="0.60963">
        <ele>121</ele>
        <time>2014-04-27T06:54:58Z</time>
      </trkpt>
      <trkpt lat="45.13531" lon="0.60967">
        <ele>121</ele>
        <time>2014-04-27T06:54:59Z</time>
      </trkpt>
      <trkpt lat="45.1353" lon="0.60973">
        <ele>121</ele>
        <time>2014-04-27T06:55:00Z</time>
      </trkpt>
      <trkpt lat="45.13529" lon="0.60978">
        <ele>121</ele>
        <time>2014-04-27T06:55:01Z</time>
      </trkpt>
      <trkpt lat="45.13507" lon="0.61093">
        <ele>123</ele>
        <time>2014-04-27T06:55:17Z</time>
      </trkpt>
      <trkpt lat="45.13503" lon="0.6113">
        <ele>127</ele>
        <time>2014-04-27T06:55:22Z</time>
      </trkpt>
      <trkpt lat="45.13501" lon="0.61137">
        <ele>127</ele>
        <time>2014-04-27T06:55:23Z</time>
      </trkpt>
      <trkpt lat="45.13497" lon="0.61143">
        <ele>121</ele>
        <time>2014-04-27T06:55:24Z</time>
      </trkpt>
      <trkpt lat="45.13491" lon="0.61148">
        <ele>121</ele>
        <time>2014-04-27T06:55:25Z</time>
      </trkpt>
      <trkpt lat="45.13484" lon="0.61153">
        <ele>121</ele>
        <time>2014-04-27T06:55:26Z</time>
      </trkpt>
      <trkpt lat="45.13454" lon="0.61182">
        <ele>121</ele>
        <time>2014-04-27T06:55:30Z</time>
      </trkpt>
      <trkpt lat="45.13438" lon="0.61194">
        <ele>121</ele>
        <time>2014-04-27T06:55:32Z</time>
      </trkpt>
      <trkpt lat="45.1343" lon="0.61198">
        <ele>121</ele>
        <time>2014-04-27T06:55:33Z</time>
      </trkpt>
      <trkpt lat="45.13422" lon="0.61198">
        <ele>120</ele>
        <time>2014-04-27T06:55:34Z</time>
      </trkpt>
      <trkpt lat="45.13408" lon="0.61197">
        <ele>121</ele>
        <time>2014-04-27T06:55:36Z</time>
      </trkpt>
      <trkpt lat="45.13402" lon="0.612">
        <ele>122</ele>
        <time>2014-04-27T06:55:37Z</time>
      </trkpt>
      <trkpt lat="45.13397" lon="0.61203">
        <ele>122</ele>
        <time>2014-04-27T06:55:38Z</time>
      </trkpt>
      <trkpt lat="45.13393" lon="0.61206">
        <ele>122</ele>
        <time>2014-04-27T06:55:39Z</time>
      </trkpt>
      <trkpt lat="45.13391" lon="0.6121">
        <ele>123</ele>
        <time>2014-04-27T06:55:40Z</time>
      </trkpt>
      <trkpt lat="45.1339" lon="0.61213">
        <ele>123</ele>
        <time>2014-04-27T06:55:41Z</time>
      </trkpt>
      <trkpt lat="45.13389" lon="0.61216">
        <ele>123</ele>
        <time>2014-04-27T06:55:42Z</time>
      </trkpt>
      <trkpt lat="45.13388" lon="0.61219">
        <ele>123</ele>
        <time>2014-04-27T06:55:43Z</time>
      </trkpt>
      <trkpt lat="45.13387" lon="0.61222">
        <ele>123</ele>
        <time>2014-04-27T06:55:44Z</time>
      </trkpt>
      <trkpt lat="45.13385" lon="0.61231">
        <ele>124</ele>
        <time>2014-04-27T06:55:48Z</time>
      </trkpt>
      <trkpt lat="45.13384" lon="0.61233">
        <ele>124</ele>
        <time>2014-04-27T06:55:49Z</time>
      </trkpt>
      <trkpt lat="45.13383" lon="0.61236">
        <ele>124</ele>
        <time>2014-04-27T06:55:50Z</time>
      </trkpt>
      <trkpt lat="45.13382" lon="0.61238">
        <ele>124</ele>
        <time>2014-04-27T06:55:51Z</time>
      </trkpt>
      <trkpt lat="45.13381" lon="0.61241">
        <ele>124</ele>
        <time>2014-04-27T06:55:52Z</time>
      </trkpt>
      <trkpt lat="45.13366" lon="0.61272">
        <ele>129</ele>
        <time>2014-04-27T06:56:03Z</time>
      </trkpt>
      <trkpt lat="45.13353" lon="0.61297">
        <ele>130</ele>
        <time>2014-04-27T06:56:11Z</time>
      </trkpt>
      <trkpt lat="45.13339" lon="0.61319">
        <ele>133</ele>
        <time>2014-04-27T06:56:20Z</time>
      </trkpt>
      <trkpt lat="45.13324" lon="0.61341">
        <ele>139</ele>
        <time>2014-04-27T06:56:30Z</time>
      </trkpt>
      <trkpt lat="45.133" lon="0.61378">
        <ele>142</ele>
        <time>2014-04-27T06:56:45Z</time>
      </trkpt>
      <trkpt lat="45.13273" lon="0.61383">
        <ele>145</ele>
        <time>2014-04-27T06:56:57Z</time>
      </trkpt>
      <trkpt lat="45.13254" lon="0.61363">
        <ele>146</ele>
        <time>2014-04-27T06:57:09Z</time>
      </trkpt>
      <trkpt lat="45.13232" lon="0.61338">
        <ele>153</ele>
        <time>2014-04-27T06:57:20Z</time>
      </trkpt>
      <trkpt lat="45.13203" lon="0.61306">
        <ele>149</ele>
        <time>2014-04-27T06:57:33Z</time>
      </trkpt>
      <trkpt lat="45.13176" lon="0.61291">
        <ele>149</ele>
        <time>2014-04-27T06:57:39Z</time>
      </trkpt>
      <trkpt lat="45.1314" lon="0.61274">
        <ele>152</ele>
        <time>2014-04-27T06:57:45Z</time>
      </trkpt>
      <trkpt lat="45.13127" lon="0.61267">
        <ele>152</ele>
        <time>2014-04-27T06:57:47Z</time>
      </trkpt>
      <trkpt lat="45.13079" lon="0.61242">
        <ele>150</ele>
        <time>2014-04-27T06:57:53Z</time>
      </trkpt>
      <trkpt lat="45.13056" lon="0.61228">
        <ele>149</ele>
        <time>2014-04-27T06:57:56Z</time>
      </trkpt>
      <trkpt lat="45.13032" lon="0.61206">
        <ele>148</ele>
        <time>2014-04-27T06:58:00Z</time>
      </trkpt>
      <trkpt lat="45.12985" lon="0.61156">
        <ele>141</ele>
        <time>2014-04-27T06:58:09Z</time>
      </trkpt>
      <trkpt lat="45.12909" lon="0.61101">
        <ele>134</ele>
        <time>2014-04-27T06:58:21Z</time>
      </trkpt>
      <trkpt lat="45.12902" lon="0.61095">
        <ele>134</ele>
        <time>2014-04-27T06:58:22Z</time>
      </trkpt>
      <trkpt lat="45.12886" lon="0.61084">
        <ele>134</ele>
        <time>2014-04-27T06:58:24Z</time>
      </trkpt>
      <trkpt lat="45.12878" lon="0.61078">
        <ele>132</ele>
        <time>2014-04-27T06:58:25Z</time>
      </trkpt>
      <trkpt lat="45.1286" lon="0.61067">
        <ele>132</ele>
        <time>2014-04-27T06:58:27Z</time>
      </trkpt>
      <trkpt lat="45.12831" lon="0.61052">
        <ele>134</ele>
        <time>2014-04-27T06:58:31Z</time>
      </trkpt>
      <trkpt lat="45.12805" lon="0.6105">
        <ele>134</ele>
        <time>2014-04-27T06:58:37Z</time>
      </trkpt>
      <trkpt lat="45.12782" lon="0.61046">
        <ele>134</ele>
        <time>2014-04-27T06:58:44Z</time>
      </trkpt>
      <trkpt lat="45.12754" lon="0.61048">
        <ele>134</ele>
        <time>2014-04-27T06:58:54Z</time>
      </trkpt>
      <trkpt lat="45.12728" lon="0.61052">
        <ele>139</ele>
        <time>2014-04-27T06:59:05Z</time>
      </trkpt>
      <trkpt lat="45.12714" lon="0.61052">
        <ele>140</ele>
        <time>2014-04-27T06:59:11Z</time>
      </trkpt>
      <trkpt lat="45.12697" lon="0.61047">
        <ele>141</ele>
        <time>2014-04-27T06:59:21Z</time>
      </trkpt>
      <trkpt lat="45.12681" lon="0.61039">
        <ele>142</ele>
        <time>2014-04-27T06:59:31Z</time>
      </trkpt>
      <trkpt lat="45.12666" lon="0.61032">
        <ele>150</ele>
        <time>2014-04-27T06:59:42Z</time>
      </trkpt>
      <trkpt lat="45.1265" lon="0.61024">
        <ele>150</ele>
        <time>2014-04-27T06:59:53Z</time>
      </trkpt>
      <trkpt lat="45.1263" lon="0.61021">
        <ele>152</ele>
        <time>2014-04-27T07:00:05Z</time>
      </trkpt>
      <trkpt lat="45.12612" lon="0.61021">
        <ele>154</ele>
        <time>2014-04-27T07:00:16Z</time>
      </trkpt>
      <trkpt lat="45.12592" lon="0.61017">
        <ele>157</ele>
        <time>2014-04-27T07:00:27Z</time>
      </trkpt>
      <trkpt lat="45.12588" lon="0.61016">
        <ele>157</ele>
        <time>2014-04-27T07:00:29Z</time>
      </trkpt>
      <trkpt lat="45.12582" lon="0.61014">
        <ele>162</ele>
        <time>2014-04-27T07:00:33Z</time>
      </trkpt>
      <trkpt lat="45.1256" lon="0.61006">
        <ele>163</ele>
        <time>2014-04-27T07:00:46Z</time>
      </trkpt>
      <trkpt lat="45.12525" lon="0.60993">
        <ele>165</ele>
        <time>2014-04-27T07:01:03Z</time>
      </trkpt>
      <trkpt lat="45.12493" lon="0.6099">
        <ele>170</ele>
        <time>2014-04-27T07:01:17Z</time>
      </trkpt>
      <trkpt lat="45.12465" lon="0.60993">
        <ele>172</ele>
        <time>2014-04-27T07:01:30Z</time>
      </trkpt>
      <trkpt lat="45.12435" lon="0.61005">
        <ele>175</ele>
        <time>2014-04-27T07:01:45Z</time>
      </trkpt>
      <trkpt lat="45.12396" lon="0.61017">
        <ele>180</ele>
        <time>2014-04-27T07:02:01Z</time>
      </trkpt>
      <trkpt lat="45.12367" lon="0.61025">
        <ele>182</ele>
        <time>2014-04-27T07:02:13Z</time>
      </trkpt>
      <trkpt lat="45.12332" lon="0.61031">
        <ele>190</ele>
        <time>2014-04-27T07:02:28Z</time>
      </trkpt>
      <trkpt lat="45.12307" lon="0.61036">
        <ele>190</ele>
        <time>2014-04-27T07:02:39Z</time>
      </trkpt>
      <trkpt lat="45.12273" lon="0.61035">
        <ele>192</ele>
        <time>2014-04-27T07:02:53Z</time>
      </trkpt>
      <trkpt lat="45.1223" lon="0.61034">
        <ele>198</ele>
        <time>2014-04-27T07:03:07Z</time>
      </trkpt>
      <trkpt lat="45.12174" lon="0.61034">
        <ele>200</ele>
        <time>2014-04-27T07:03:22Z</time>
      </trkpt>
      <trkpt lat="45.12133" lon="0.61031">
        <ele>202</ele>
        <time>2014-04-27T07:03:33Z</time>
      </trkpt>
      <trkpt lat="45.12116" lon="0.61031">
        <ele>202</ele>
        <time>2014-04-27T07:03:37Z</time>
      </trkpt>
      <trkpt lat="45.12111" lon="0.61031">
        <ele>202</ele>
        <time>2014-04-27T07:03:38Z</time>
      </trkpt>
      <trkpt lat="45.12051" lon="0.61029">
        <ele>203</ele>
        <time>2014-04-27T07:03:51Z</time>
      </trkpt>
      <trkpt lat="45.12042" lon="0.6103">
        <ele>203</ele>
        <time>2014-04-27T07:03:53Z</time>
      </trkpt>
      <trkpt lat="45.12037" lon="0.6103">
        <ele>203</ele>
        <time>2014-04-27T07:03:54Z</time>
      </trkpt>
      <trkpt lat="45.12008" lon="0.61028">
        <ele>203</ele>
        <time>2014-04-27T07:04:00Z</time>
      </trkpt>
      <trkpt lat="45.11975" lon="0.61014">
        <ele>204</ele>
        <time>2014-04-27T07:04:07Z</time>
      </trkpt>
      <trkpt lat="45.1197" lon="0.61014">
        <ele>204</ele>
        <time>2014-04-27T07:04:08Z</time>
      </trkpt>
      <trkpt lat="45.11965" lon="0.61014">
        <ele>204</ele>
        <time>2014-04-27T07:04:09Z</time>
      </trkpt>
      <trkpt lat="45.11951" lon="0.61016">
        <ele>205</ele>
        <time>2014-04-27T07:04:12Z</time>
      </trkpt>
      <trkpt lat="45.11947" lon="0.61017">
        <ele>205</ele>
        <time>2014-04-27T07:04:13Z</time>
      </trkpt>
      <trkpt lat="45.11942" lon="0.61019">
        <ele>205</ele>
        <time>2014-04-27T07:04:14Z</time>
      </trkpt>
      <trkpt lat="45.11938" lon="0.6102">
        <ele>205</ele>
        <time>2014-04-27T07:04:15Z</time>
      </trkpt>
      <trkpt lat="45.11933" lon="0.6102">
        <ele>205</ele>
        <time>2014-04-27T07:04:16Z</time>
      </trkpt>
      <trkpt lat="45.11928" lon="0.6102">
        <ele>205</ele>
        <time>2014-04-27T07:04:17Z</time>
      </trkpt>
      <trkpt lat="45.11923" lon="0.61019">
        <ele>205</ele>
        <time>2014-04-27T07:04:18Z</time>
      </trkpt>
      <trkpt lat="45.11909" lon="0.61017">
        <ele>206</ele>
        <time>2014-04-27T07:04:21Z</time>
      </trkpt>
      <trkpt lat="45.11904" lon="0.61017">
        <ele>206</ele>
        <time>2014-04-27T07:04:22Z</time>
      </trkpt>
      <trkpt lat="45.11824" lon="0.61011">
        <ele>206</ele>
        <time>2014-04-27T07:04:38Z</time>
      </trkpt>
      <trkpt lat="45.1173" lon="0.61002">
        <ele>206</ele>
        <time>2014-04-27T07:04:55Z</time>
      </trkpt>
      <trkpt lat="45.11645" lon="0.61029">
        <ele>208</ele>
        <time>2014-04-27T07:05:09Z</time>
      </trkpt>
      <trkpt lat="45.11621" lon="0.61032">
        <ele>209</ele>
        <time>2014-04-27T07:05:13Z</time>
      </trkpt>
      <trkpt lat="45.1158" lon="0.61041">
        <ele>211</ele>
        <time>2014-04-27T07:05:19Z</time>
      </trkpt>
      <trkpt lat="45.11545" lon="0.61043">
        <ele>210</ele>
        <time>2014-04-27T07:05:24Z</time>
      </trkpt>
      <trkpt lat="45.11538" lon="0.61044">
        <ele>210</ele>
        <time>2014-04-27T07:05:25Z</time>
      </trkpt>
      <trkpt lat="45.1146" lon="0.61051">
        <ele>212</ele>
        <time>2014-04-27T07:05:36Z</time>
      </trkpt>
      <trkpt lat="45.1145" lon="0.61051">
        <ele>213</ele>
        <time>2014-04-27T07:05:38Z</time>
      </trkpt>
      <trkpt lat="45.11426" lon="0.61052">
        <ele>213</ele>
        <time>2014-04-27T07:05:43Z</time>
      </trkpt>
      <trkpt lat="45.11362" lon="0.61055">
        <ele>216</ele>
        <time>2014-04-27T07:05:57Z</time>
      </trkpt>
      <trkpt lat="45.11346" lon="0.61061">
        <ele>216</ele>
        <time>2014-04-27T07:06:01Z</time>
      </trkpt>
      <trkpt lat="45.11344" lon="0.61065">
        <ele>216</ele>
        <time>2014-04-27T07:06:02Z</time>
      </trkpt>
      <trkpt lat="45.11344" lon="0.61071">
        <ele>216</ele>
        <time>2014-04-27T07:06:03Z</time>
      </trkpt>
      <trkpt lat="45.11345" lon="0.61076">
        <ele>216</ele>
        <time>2014-04-27T07:06:04Z</time>
      </trkpt>
      <trkpt lat="45.11346" lon="0.61081">
        <ele>216</ele>
        <time>2014-04-27T07:06:05Z</time>
      </trkpt>
      <trkpt lat="45.11348" lon="0.61087">
        <ele>215</ele>
        <time>2014-04-27T07:06:06Z</time>
      </trkpt>
      <trkpt lat="45.11387" lon="0.612">
        <ele>214</ele>
        <time>2014-04-27T07:06:22Z</time>
      </trkpt>
      <trkpt lat="45.1144" lon="0.61351">
        <ele>214</ele>
        <time>2014-04-27T07:06:40Z</time>
      </trkpt>
      <trkpt lat="45.11472" lon="0.61435">
        <ele>212</ele>
        <time>2014-04-27T07:06:50Z</time>
      </trkpt>
      <trkpt lat="45.11475" lon="0.61439">
        <ele>212</ele>
        <time>2014-04-27T07:06:51Z</time>
      </trkpt>
      <trkpt lat="45.11479" lon="0.6144">
        <ele>212</ele>
        <time>2014-04-27T07:06:52Z</time>
      </trkpt>
      <trkpt lat="45.11483" lon="0.6144">
        <ele>212</ele>
        <time>2014-04-27T07:06:53Z</time>
      </trkpt>
      <trkpt lat="45.11486" lon="0.61441">
        <ele>212</ele>
        <time>2014-04-27T07:06:54Z</time>
      </trkpt>
      <trkpt lat="45.1149" lon="0.61443">
        <ele>212</ele>
        <time>2014-04-27T07:06:55Z</time>
      </trkpt>
      <trkpt lat="45.11494" lon="0.61446">
        <ele>212</ele>
        <time>2014-04-27T07:06:56Z</time>
      </trkpt>
      <trkpt lat="45.11571" lon="0.6148">
        <ele>214</ele>
        <time>2014-04-27T07:07:12Z</time>
      </trkpt>
      <trkpt lat="45.11657" lon="0.61517">
        <ele>214</ele>
        <time>2014-04-27T07:07:27Z</time>
      </trkpt>
      <trkpt lat="45.11663" lon="0.6152">
        <ele>214</ele>
        <time>2014-04-27T07:07:28Z</time>
      </trkpt>
      <trkpt lat="45.11669" lon="0.61521">
        <ele>213</ele>
        <time>2014-04-27T07:07:29Z</time>
      </trkpt>
      <trkpt lat="45.11673" lon="0.61523">
        <ele>213</ele>
        <time>2014-04-27T07:07:30Z</time>
      </trkpt>
      <trkpt lat="45.11675" lon="0.61526">
        <ele>213</ele>
        <time>2014-04-27T07:07:31Z</time>
      </trkpt>
      <trkpt lat="45.11673" lon="0.61546">
        <ele>213</ele>
        <time>2014-04-27T07:07:35Z</time>
      </trkpt>
      <trkpt lat="45.11672" lon="0.61557">
        <ele>214</ele>
        <time>2014-04-27T07:07:37Z</time>
      </trkpt>
      <trkpt lat="45.11669" lon="0.61568">
        <ele>214</ele>
        <time>2014-04-27T07:07:39Z</time>
      </trkpt>
      <trkpt lat="45.11668" lon="0.61579">
        <ele>215</ele>
        <time>2014-04-27T07:07:41Z</time>
      </trkpt>
      <trkpt lat="45.1167" lon="0.61584">
        <ele>216</ele>
        <time>2014-04-27T07:07:42Z</time>
      </trkpt>
      <trkpt lat="45.11673" lon="0.61587">
        <ele>216</ele>
        <time>2014-04-27T07:07:43Z</time>
      </trkpt>
      <trkpt lat="45.11677" lon="0.61591">
        <ele>215</ele>
        <time>2014-04-27T07:07:44Z</time>
      </trkpt>
      <trkpt lat="45.1174" lon="0.61667">
        <ele>214</ele>
        <time>2014-04-27T07:07:59Z</time>
      </trkpt>
      <trkpt lat="45.11757" lon="0.61687">
        <ele>214</ele>
        <time>2014-04-27T07:08:03Z</time>
      </trkpt>
      <trkpt lat="45.1176" lon="0.61695">
        <ele>214</ele>
        <time>2014-04-27T07:08:04Z</time>
      </trkpt>
      <trkpt lat="45.11761" lon="0.61703">
        <ele>214</ele>
        <time>2014-04-27T07:08:05Z</time>
      </trkpt>
      <trkpt lat="45.11762" lon="0.61711">
        <ele>214</ele>
        <time>2014-04-27T07:08:06Z</time>
      </trkpt>
      <trkpt lat="45.11763" lon="0.6172">
        <ele>214</ele>
        <time>2014-04-27T07:08:07Z</time>
      </trkpt>
      <trkpt lat="45.11767" lon="0.61771">
        <ele>215</ele>
        <time>2014-04-27T07:08:13Z</time>
      </trkpt>
      <trkpt lat="45.11766" lon="0.61785">
        <ele>214</ele>
        <time>2014-04-27T07:08:15Z</time>
      </trkpt>
      <trkpt lat="45.11765" lon="0.61823">
        <ele>214</ele>
        <time>2014-04-27T07:08:20Z</time>
      </trkpt>
      <trkpt lat="45.11765" lon="0.61848">
        <ele>213</ele>
        <time>2014-04-27T07:08:23Z</time>
      </trkpt>
      <trkpt lat="45.11748" lon="0.61939">
        <ele>213</ele>
        <time>2014-04-27T07:08:34Z</time>
      </trkpt>
      <trkpt lat="45.11742" lon="0.61964">
        <ele>213</ele>
        <time>2014-04-27T07:08:37Z</time>
      </trkpt>
      <trkpt lat="45.11728" lon="0.6208">
        <ele>213</ele>
        <time>2014-04-27T07:08:52Z</time>
      </trkpt>
      <trkpt lat="45.11732" lon="0.62095">
        <ele>213</ele>
        <time>2014-04-27T07:08:54Z</time>
      </trkpt>
      <trkpt lat="45.11737" lon="0.62112">
        <ele>212</ele>
        <time>2014-04-27T07:08:56Z</time>
      </trkpt>
      <trkpt lat="45.11741" lon="0.62141">
        <ele>212</ele>
        <time>2014-04-27T07:08:59Z</time>
      </trkpt>
      <trkpt lat="45.11746" lon="0.62165">
        <ele>211</ele>
        <time>2014-04-27T07:09:02Z</time>
      </trkpt>
      <trkpt lat="45.11777" lon="0.62225">
        <ele>210</ele>
        <time>2014-04-27T07:09:11Z</time>
      </trkpt>
      <trkpt lat="45.11789" lon="0.62243">
        <ele>210</ele>
        <time>2014-04-27T07:09:14Z</time>
      </trkpt>
      <trkpt lat="45.11814" lon="0.62255">
        <ele>210</ele>
        <time>2014-04-27T07:09:20Z</time>
      </trkpt>
      <trkpt lat="45.11841" lon="0.62232">
        <ele>203</ele>
        <time>2014-04-27T07:09:25Z</time>
      </trkpt>
      <trkpt lat="45.1186" lon="0.62238">
        <ele>201</ele>
        <time>2014-04-27T07:09:30Z</time>
      </trkpt>
      <trkpt lat="45.11886" lon="0.62315">
        <ele>203</ele>
        <time>2014-04-27T07:09:43Z</time>
      </trkpt>
      <trkpt lat="45.11895" lon="0.62365">
        <ele>203</ele>
        <time>2014-04-27T07:09:52Z</time>
      </trkpt>
      <trkpt lat="45.11893" lon="0.62369">
        <ele>203</ele>
        <time>2014-04-27T07:09:53Z</time>
      </trkpt>
      <trkpt lat="45.1189" lon="0.62371">
        <ele>203</ele>
        <time>2014-04-27T07:09:54Z</time>
      </trkpt>
      <trkpt lat="45.11886" lon="0.62373">
        <ele>204</ele>
        <time>2014-04-27T07:09:55Z</time>
      </trkpt>
      <trkpt lat="45.11882" lon="0.62375">
        <ele>204</ele>
        <time>2014-04-27T07:09:56Z</time>
      </trkpt>
      <trkpt lat="45.11832" lon="0.62383">
        <ele>209</ele>
        <time>2014-04-27T07:10:09Z</time>
      </trkpt>
      <trkpt lat="45.1182" lon="0.6238">
        <ele>209</ele>
        <time>2014-04-27T07:10:12Z</time>
      </trkpt>
      <trkpt lat="45.11816" lon="0.6238">
        <ele>209</ele>
        <time>2014-04-27T07:10:13Z</time>
      </trkpt>
      <trkpt lat="45.11812" lon="0.62381">
        <ele>209</ele>
        <time>2014-04-27T07:10:14Z</time>
      </trkpt>
      <trkpt lat="45.11782" lon="0.62397">
        <ele>210</ele>
        <time>2014-04-27T07:10:22Z</time>
      </trkpt>
      <trkpt lat="45.11762" lon="0.62417">
        <ele>210</ele>
        <time>2014-04-27T07:10:28Z</time>
      </trkpt>
      <trkpt lat="45.1169" lon="0.62443">
        <ele>209</ele>
        <time>2014-04-27T07:10:44Z</time>
      </trkpt>
      <trkpt lat="45.11683" lon="0.62447">
        <ele>209</ele>
        <time>2014-04-27T07:10:46Z</time>
      </trkpt>
      <trkpt lat="45.11681" lon="0.62452">
        <ele>209</ele>
        <time>2014-04-27T07:10:47Z</time>
      </trkpt>
      <trkpt lat="45.1168" lon="0.62458">
        <ele>209</ele>
        <time>2014-04-27T07:10:48Z</time>
      </trkpt>
      <trkpt lat="45.11668" lon="0.62571">
        <ele>208</ele>
        <time>2014-04-27T07:11:02Z</time>
      </trkpt>
      <trkpt lat="45.11648" lon="0.62741">
        <ele>211</ele>
        <time>2014-04-27T07:11:21Z</time>
      </trkpt>
      <trkpt lat="45.11651" lon="0.62856">
        <ele>214</ele>
        <time>2014-04-27T07:11:35Z</time>
      </trkpt>
      <trkpt lat="45.11659" lon="0.62995">
        <ele>216</ele>
        <time>2014-04-27T07:11:53Z</time>
      </trkpt>
      <trkpt lat="45.11661" lon="0.63032">
        <ele>216</ele>
        <time>2014-04-27T07:11:58Z</time>
      </trkpt>
      <trkpt lat="45.1166" lon="0.63038">
        <ele>216</ele>
        <time>2014-04-27T07:11:59Z</time>
      </trkpt>
      <trkpt lat="45.11657" lon="0.63042">
        <ele>215</ele>
        <time>2014-04-27T07:12:00Z</time>
      </trkpt>
      <trkpt lat="45.11653" lon="0.63045">
        <ele>215</ele>
        <time>2014-04-27T07:12:01Z</time>
      </trkpt>
      <trkpt lat="45.11649" lon="0.63046">
        <ele>215</ele>
        <time>2014-04-27T07:12:02Z</time>
      </trkpt>
      <trkpt lat="45.1162" lon="0.63057">
        <ele>215</ele>
        <time>2014-04-27T07:12:08Z</time>
      </trkpt>
      <trkpt lat="45.11616" lon="0.63061">
        <ele>215</ele>
        <time>2014-04-27T07:12:09Z</time>
      </trkpt>
      <trkpt lat="45.11608" lon="0.6307">
        <ele>215</ele>
        <time>2014-04-27T07:12:11Z</time>
      </trkpt>
      <trkpt lat="45.11604" lon="0.63076">
        <ele>216</ele>
        <time>2014-04-27T07:12:12Z</time>
      </trkpt>
      <trkpt lat="45.11601" lon="0.63081">
        <ele>216</ele>
        <time>2014-04-27T07:12:13Z</time>
      </trkpt>
      <trkpt lat="45.11583" lon="0.6312">
        <ele>217</ele>
        <time>2014-04-27T07:12:19Z</time>
      </trkpt>
      <trkpt lat="45.1153" lon="0.63219">
        <ele>217</ele>
        <time>2014-04-27T07:12:34Z</time>
      </trkpt>
      <trkpt lat="45.11524" lon="0.63235">
        <ele>216</ele>
        <time>2014-04-27T07:12:36Z</time>
      </trkpt>
      <trkpt lat="45.11521" lon="0.63244">
        <ele>216</ele>
        <time>2014-04-27T07:12:37Z</time>
      </trkpt>
      <trkpt lat="45.1152" lon="0.63253">
        <ele>216</ele>
        <time>2014-04-27T07:12:38Z</time>
      </trkpt>
      <trkpt lat="45.1152" lon="0.63262">
        <ele>216</ele>
        <time>2014-04-27T07:12:39Z</time>
      </trkpt>
      <trkpt lat="45.11521" lon="0.63271">
        <ele>216</ele>
        <time>2014-04-27T07:12:40Z</time>
      </trkpt>
      <trkpt lat="45.11522" lon="0.63281">
        <ele>216</ele>
        <time>2014-04-27T07:12:41Z</time>
      </trkpt>
      <trkpt lat="45.1154" lon="0.63417">
        <ele>217</ele>
        <time>2014-04-27T07:12:55Z</time>
      </trkpt>
      <trkpt lat="45.11546" lon="0.63469">
        <ele>216</ele>
        <time>2014-04-27T07:13:00Z</time>
      </trkpt>
      <trkpt lat="45.11545" lon="0.63478">
        <ele>216</ele>
        <time>2014-04-27T07:13:01Z</time>
      </trkpt>
      <trkpt lat="45.11542" lon="0.63486">
        <ele>216</ele>
        <time>2014-04-27T07:13:02Z</time>
      </trkpt>
      <trkpt lat="45.11537" lon="0.63493">
        <ele>216</ele>
        <time>2014-04-27T07:13:03Z</time>
      </trkpt>
      <trkpt lat="45.11531" lon="0.63499">
        <ele>216</ele>
        <time>2014-04-27T07:13:04Z</time>
      </trkpt>
      <trkpt lat="45.11524" lon="0.63503">
        <ele>216</ele>
        <time>2014-04-27T07:13:05Z</time>
      </trkpt>
      <trkpt lat="45.11492" lon="0.63528">
        <ele>213</ele>
        <time>2014-04-27T07:13:10Z</time>
      </trkpt>
      <trkpt lat="45.11473" lon="0.63549">
        <ele>212</ele>
        <time>2014-04-27T07:13:13Z</time>
      </trkpt>
      <trkpt lat="45.11428" lon="0.63595">
        <ele>209</ele>
        <time>2014-04-27T07:13:22Z</time>
      </trkpt>
      <trkpt lat="45.11404" lon="0.63614">
        <ele>209</ele>
        <time>2014-04-27T07:13:28Z</time>
      </trkpt>
      <trkpt lat="45.1136" lon="0.63629">
        <ele>210</ele>
        <time>2014-04-27T07:13:39Z</time>
      </trkpt>
      <trkpt lat="45.11344" lon="0.6361">
        <ele>210</ele>
        <time>2014-04-27T07:13:45Z</time>
      </trkpt>
      <trkpt lat="45.11331" lon="0.636">
        <ele>210</ele>
        <time>2014-04-27T07:13:48Z</time>
      </trkpt>
      <trkpt lat="45.11305" lon="0.63571">
        <ele>208</ele>
        <time>2014-04-27T07:13:54Z</time>
      </trkpt>
      <trkpt lat="45.11235" lon="0.63512">
        <ele>211</ele>
        <time>2014-04-27T07:14:07Z</time>
      </trkpt>
      <trkpt lat="45.11217" lon="0.63497">
        <ele>211</ele>
        <time>2014-04-27T07:14:11Z</time>
      </trkpt>
      <trkpt lat="45.11206" lon="0.63485">
        <ele>212</ele>
        <time>2014-04-27T07:14:14Z</time>
      </trkpt>
      <trkpt lat="45.11203" lon="0.63482">
        <ele>212</ele>
        <time>2014-04-27T07:14:15Z</time>
      </trkpt>
      <trkpt lat="45.112" lon="0.63479">
        <ele>212</ele>
        <time>2014-04-27T07:14:16Z</time>
      </trkpt>
      <trkpt lat="45.11197" lon="0.63476">
        <ele>212</ele>
        <time>2014-04-27T07:14:17Z</time>
      </trkpt>
      <trkpt lat="45.11168" lon="0.63448">
        <ele>212</ele>
        <time>2014-04-27T07:14:28Z</time>
      </trkpt>
      <trkpt lat="45.11154" lon="0.6343">
        <ele>213</ele>
        <time>2014-04-27T07:14:40Z</time>
      </trkpt>
      <trkpt lat="45.11151" lon="0.63429">
        <ele>213</ele>
        <time>2014-04-27T07:15:31Z</time>
      </trkpt>
      <trkpt lat="45.11151" lon="0.6343">
        <ele>213</ele>
        <time>2014-04-27T07:16:21Z</time>
      </trkpt>
      <trkpt lat="45.11151" lon="0.6343">
        <ele>213</ele>
        <time>2014-04-27T07:16:58Z</time>
      </trkpt>
      <trkpt lat="45.11153" lon="0.6343">
        <ele>213</ele>
        <time>2014-04-27T07:17:35Z</time>
      </trkpt>
      <trkpt lat="45.11152" lon="0.63428">
        <ele>213</ele>
        <time>2014-04-27T07:17:47Z</time>
      </trkpt>
      <trkpt lat="45.11151" lon="0.63428">
        <ele>213</ele>
        <time>2014-04-27T07:17:51Z</time>
      </trkpt>
      <trkpt lat="45.1115" lon="0.63427">
        <ele>213</ele>
        <time>2014-04-27T07:17:52Z</time>
      </trkpt>
      <trkpt lat="45.11138" lon="0.63421">
        <ele>213</ele>
        <time>2014-04-27T07:18:03Z</time>
      </trkpt>
      <trkpt lat="45.11104" lon="0.63418">
        <ele>212</ele>
        <time>2014-04-27T07:18:14Z</time>
      </trkpt>
      <trkpt lat="45.1109" lon="0.6341">
        <ele>212</ele>
        <time>2014-04-27T07:18:20Z</time>
      </trkpt>
      <trkpt lat="45.11043" lon="0.6341">
        <ele>209</ele>
        <time>2014-04-27T07:18:30Z</time>
      </trkpt>
      <trkpt lat="45.11012" lon="0.63415">
        <ele>208</ele>
        <time>2014-04-27T07:18:35Z</time>
      </trkpt>
      <trkpt lat="45.10993" lon="0.63419">
        <ele>207</ele>
        <time>2014-04-27T07:18:38Z</time>
      </trkpt>
      <trkpt lat="45.10956" lon="0.63427">
        <ele>207</ele>
        <time>2014-04-27T07:18:43Z</time>
      </trkpt>
      <trkpt lat="45.10928" lon="0.63437">
        <ele>207</ele>
        <time>2014-04-27T07:18:47Z</time>
      </trkpt>
      <trkpt lat="45.10887" lon="0.63456">
        <ele>207</ele>
        <time>2014-04-27T07:18:55Z</time>
      </trkpt>
      <trkpt lat="45.10852" lon="0.6348">
        <ele>207</ele>
        <time>2014-04-27T07:19:03Z</time>
      </trkpt>
      <trkpt lat="45.10838" lon="0.63494">
        <ele>208</ele>
        <time>2014-04-27T07:19:07Z</time>
      </trkpt>
      <trkpt lat="45.10832" lon="0.63502">
        <ele>208</ele>
        <time>2014-04-27T07:19:09Z</time>
      </trkpt>
      <trkpt lat="45.10828" lon="0.63503">
        <ele>208</ele>
        <time>2014-04-27T07:19:10Z</time>
      </trkpt>
      <trkpt lat="45.10823" lon="0.63503">
        <ele>207</ele>
        <time>2014-04-27T07:19:11Z</time>
      </trkpt>
      <trkpt lat="45.10819" lon="0.63501">
        <ele>207</ele>
        <time>2014-04-27T07:19:12Z</time>
      </trkpt>
      <trkpt lat="45.10814" lon="0.63498">
        <ele>207</ele>
        <time>2014-04-27T07:19:13Z</time>
      </trkpt>
      <trkpt lat="45.10738" lon="0.63435">
        <ele>205</ele>
        <time>2014-04-27T07:19:28Z</time>
      </trkpt>
      <trkpt lat="45.10734" lon="0.63431">
        <ele>205</ele>
        <time>2014-04-27T07:19:29Z</time>
      </trkpt>
      <trkpt lat="45.10729" lon="0.63426">
        <ele>205</ele>
        <time>2014-04-27T07:19:30Z</time>
      </trkpt>
      <trkpt lat="45.10692" lon="0.63382">
        <ele>204</ele>
        <time>2014-04-27T07:19:38Z</time>
      </trkpt>
      <trkpt lat="45.10675" lon="0.63367">
        <ele>203</ele>
        <time>2014-04-27T07:19:41Z</time>
      </trkpt>
      <trkpt lat="45.10669" lon="0.63364">
        <ele>203</ele>
        <time>2014-04-27T07:19:42Z</time>
      </trkpt>
      <trkpt lat="45.10663" lon="0.63363">
        <ele>200</ele>
        <time>2014-04-27T07:19:43Z</time>
      </trkpt>
      <trkpt lat="45.10659" lon="0.63366">
        <ele>200</ele>
        <time>2014-04-27T07:19:44Z</time>
      </trkpt>
      <trkpt lat="45.10657" lon="0.63372">
        <ele>199</ele>
        <time>2014-04-27T07:19:45Z</time>
      </trkpt>
      <trkpt lat="45.10657" lon="0.63377">
        <ele>199</ele>
        <time>2014-04-27T07:19:46Z</time>
      </trkpt>
      <trkpt lat="45.10657" lon="0.63383">
        <ele>200</ele>
        <time>2014-04-27T07:19:47Z</time>
      </trkpt>
      <trkpt lat="45.10657" lon="0.6341">
        <ele>201</ele>
        <time>2014-04-27T07:19:51Z</time>
      </trkpt>
      <trkpt lat="45.10657" lon="0.63418">
        <ele>201</ele>
        <time>2014-04-27T07:19:52Z</time>
      </trkpt>
      <trkpt lat="45.10648" lon="0.63519">
        <ele>201</ele>
        <time>2014-04-27T07:20:04Z</time>
      </trkpt>
      <trkpt lat="45.10648" lon="0.63527">
        <ele>201</ele>
        <time>2014-04-27T07:20:05Z</time>
      </trkpt>
      <trkpt lat="45.10647" lon="0.63548">
        <ele>201</ele>
        <time>2014-04-27T07:20:08Z</time>
      </trkpt>
      <trkpt lat="45.10637" lon="0.63562">
        <ele>201</ele>
        <time>2014-04-27T07:20:12Z</time>
      </trkpt>
      <trkpt lat="45.1063" lon="0.63569">
        <ele>201</ele>
        <time>2014-04-27T07:20:14Z</time>
      </trkpt>
      <trkpt lat="45.10597" lon="0.63602">
        <ele>199</ele>
        <time>2014-04-27T07:20:21Z</time>
      </trkpt>
      <trkpt lat="45.10561" lon="0.63624">
        <ele>191</ele>
        <time>2014-04-27T07:20:27Z</time>
      </trkpt>
      <trkpt lat="45.10532" lon="0.63634">
        <ele>188</ele>
        <time>2014-04-27T07:20:31Z</time>
      </trkpt>
      <trkpt lat="45.10516" lon="0.63641">
        <ele>187</ele>
        <time>2014-04-27T07:20:33Z</time>
      </trkpt>
      <trkpt lat="45.10485" lon="0.6367">
        <ele>181</ele>
        <time>2014-04-27T07:20:37Z</time>
      </trkpt>
      <trkpt lat="45.10456" lon="0.63702">
        <ele>177</ele>
        <time>2014-04-27T07:20:41Z</time>
      </trkpt>
      <trkpt lat="45.10448" lon="0.63709">
        <ele>176</ele>
        <time>2014-04-27T07:20:42Z</time>
      </trkpt>
      <trkpt lat="45.10432" lon="0.63728">
        <ele>175</ele>
        <time>2014-04-27T07:20:45Z</time>
      </trkpt>
      <trkpt lat="45.10401" lon="0.6376">
        <ele>169</ele>
        <time>2014-04-27T07:20:50Z</time>
      </trkpt>
      <trkpt lat="45.10384" lon="0.63796">
        <ele>166</ele>
        <time>2014-04-27T07:20:55Z</time>
      </trkpt>
      <trkpt lat="45.10377" lon="0.63824">
        <ele>165</ele>
        <time>2014-04-27T07:20:59Z</time>
      </trkpt>
      <trkpt lat="45.10367" lon="0.63838">
        <ele>159</ele>
        <time>2014-04-27T07:21:01Z</time>
      </trkpt>
      <trkpt lat="45.10355" lon="0.63853">
        <ele>158</ele>
        <time>2014-04-27T07:21:03Z</time>
      </trkpt>
      <trkpt lat="45.10337" lon="0.63882">
        <ele>156</ele>
        <time>2014-04-27T07:21:06Z</time>
      </trkpt>
      <trkpt lat="45.10331" lon="0.63891">
        <ele>152</ele>
        <time>2014-04-27T07:21:07Z</time>
      </trkpt>
      <trkpt lat="45.1032" lon="0.63908">
        <ele>151</ele>
        <time>2014-04-27T07:21:09Z</time>
      </trkpt>
      <trkpt lat="45.10305" lon="0.63936">
        <ele>145</ele>
        <time>2014-04-27T07:21:12Z</time>
      </trkpt>
      <trkpt lat="45.10291" lon="0.63955">
        <ele>143</ele>
        <time>2014-04-27T07:21:14Z</time>
      </trkpt>
      <trkpt lat="45.10275" lon="0.63974">
        <ele>142</ele>
        <time>2014-04-27T07:21:16Z</time>
      </trkpt>
      <trkpt lat="45.10256" lon="0.63992">
        <ele>140</ele>
        <time>2014-04-27T07:21:18Z</time>
      </trkpt>
      <trkpt lat="45.10236" lon="0.64014">
        <ele>136</ele>
        <time>2014-04-27T07:21:21Z</time>
      </trkpt>
      <trkpt lat="45.10233" lon="0.64037">
        <ele>135</ele>
        <time>2014-04-27T07:21:25Z</time>
      </trkpt>
      <trkpt lat="45.10236" lon="0.64042">
        <ele>135</ele>
        <time>2014-04-27T07:21:26Z</time>
      </trkpt>
      <trkpt lat="45.10269" lon="0.64115">
        <ele>139</ele>
        <time>2014-04-27T07:21:37Z</time>
      </trkpt>
      <trkpt lat="45.10269" lon="0.64118">
        <ele>139</ele>
        <time>2014-04-27T07:21:38Z</time>
      </trkpt>
      <trkpt lat="45.1027" lon="0.64129">
        <ele>140</ele>
        <time>2014-04-27T07:21:49Z</time>
      </trkpt>
      <trkpt lat="45.1027" lon="0.64136">
        <ele>140</ele>
        <time>2014-04-27T07:21:58Z</time>
      </trkpt>
      <trkpt lat="45.1027" lon="0.64154">
        <ele>139</ele>
        <time>2014-04-27T07:22:06Z</time>
      </trkpt>
      <trkpt lat="45.10281" lon="0.64199">
        <ele>141</ele>
        <time>2014-04-27T07:22:19Z</time>
      </trkpt>
      <trkpt lat="45.103" lon="0.64209">
        <ele>142</ele>
        <time>2014-04-27T07:22:30Z</time>
      </trkpt>
      <trkpt lat="45.10317" lon="0.64213">
        <ele>143</ele>
        <time>2014-04-27T07:22:41Z</time>
      </trkpt>
      <trkpt lat="45.10329" lon="0.6421">
        <ele>143</ele>
        <time>2014-04-27T07:22:51Z</time>
      </trkpt>
      <trkpt lat="45.10346" lon="0.64203">
        <ele>151</ele>
        <time>2014-04-27T07:23:03Z</time>
      </trkpt>
      <trkpt lat="45.10367" lon="0.64196">
        <ele>153</ele>
        <time>2014-04-27T07:23:17Z</time>
      </trkpt>
      <trkpt lat="45.10386" lon="0.64188">
        <ele>155</ele>
        <time>2014-04-27T07:23:29Z</time>
      </trkpt>
      <trkpt lat="45.10406" lon="0.64201">
        <ele>155</ele>
        <time>2014-04-27T07:23:42Z</time>
      </trkpt>
      <trkpt lat="45.1045" lon="0.64255">
        <ele>156</ele>
        <time>2014-04-27T07:23:57Z</time>
      </trkpt>
      <trkpt lat="45.10474" lon="0.64286">
        <ele>155</ele>
        <time>2014-04-27T07:24:02Z</time>
      </trkpt>
      <trkpt lat="45.10531" lon="0.64326">
        <ele>161</ele>
        <time>2014-04-27T07:24:13Z</time>
      </trkpt>
      <trkpt lat="45.10588" lon="0.64362">
        <ele>160</ele>
        <time>2014-04-27T07:24:27Z</time>
      </trkpt>
      <trkpt lat="45.10651" lon="0.64413">
        <ele>159</ele>
        <time>2014-04-27T07:24:41Z</time>
      </trkpt>
      <trkpt lat="45.10699" lon="0.64455">
        <ele>155</ele>
        <time>2014-04-27T07:24:51Z</time>
      </trkpt>
      <trkpt lat="45.10711" lon="0.64467">
        <ele>155</ele>
        <time>2014-04-27T07:24:53Z</time>
      </trkpt>
      <trkpt lat="45.10718" lon="0.64473">
        <ele>155</ele>
        <time>2014-04-27T07:24:54Z</time>
      </trkpt>
      <trkpt lat="45.10731" lon="0.64484">
        <ele>155</ele>
        <time>2014-04-27T07:24:56Z</time>
      </trkpt>
      <trkpt lat="45.1074" lon="0.64502">
        <ele>152</ele>
        <time>2014-04-27T07:25:00Z</time>
      </trkpt>
      <trkpt lat="45.10736" lon="0.64513">
        <ele>150</ele>
        <time>2014-04-27T07:25:02Z</time>
      </trkpt>
      <trkpt lat="45.10729" lon="0.64542">
        <ele>148</ele>
        <time>2014-04-27T07:25:06Z</time>
      </trkpt>
      <trkpt lat="45.10726" lon="0.64552">
        <ele>148</ele>
        <time>2014-04-27T07:25:08Z</time>
      </trkpt>
      <trkpt lat="45.10723" lon="0.64554">
        <ele>147</ele>
        <time>2014-04-27T07:25:09Z</time>
      </trkpt>
      <trkpt lat="45.1072" lon="0.64552">
        <ele>147</ele>
        <time>2014-04-27T07:25:10Z</time>
      </trkpt>
      <trkpt lat="45.10716" lon="0.64549">
        <ele>147</ele>
        <time>2014-04-27T07:25:11Z</time>
      </trkpt>
      <trkpt lat="45.10711" lon="0.64546">
        <ele>147</ele>
        <time>2014-04-27T07:25:12Z</time>
      </trkpt>
      <trkpt lat="45.10652" lon="0.64515">
        <ele>144</ele>
        <time>2014-04-27T07:25:21Z</time>
      </trkpt>
      <trkpt lat="45.10627" lon="0.64514">
        <ele>142</ele>
        <time>2014-04-27T07:25:24Z</time>
      </trkpt>
      <trkpt lat="45.10619" lon="0.64515">
        <ele>142</ele>
        <time>2014-04-27T07:25:25Z</time>
      </trkpt>
      <trkpt lat="45.10611" lon="0.64517">
        <ele>141</ele>
        <time>2014-04-27T07:25:26Z</time>
      </trkpt>
      <trkpt lat="45.10595" lon="0.64523">
        <ele>141</ele>
        <time>2014-04-27T07:25:28Z</time>
      </trkpt>
      <trkpt lat="45.10554" lon="0.64547">
        <ele>140</ele>
        <time>2014-04-27T07:25:34Z</time>
      </trkpt>
      <trkpt lat="45.10527" lon="0.6456">
        <ele>141</ele>
        <time>2014-04-27T07:25:38Z</time>
      </trkpt>
      <trkpt lat="45.10521" lon="0.64561">
        <ele>141</ele>
        <time>2014-04-27T07:25:39Z</time>
      </trkpt>
      <trkpt lat="45.10514" lon="0.64562">
        <ele>141</ele>
        <time>2014-04-27T07:25:40Z</time>
      </trkpt>
      <trkpt lat="45.10421" lon="0.64551">
        <ele>142</ele>
        <time>2014-04-27T07:25:55Z</time>
      </trkpt>
      <trkpt lat="45.10349" lon="0.6455">
        <ele>140</ele>
        <time>2014-04-27T07:26:07Z</time>
      </trkpt>
      <trkpt lat="45.10343" lon="0.64553">
        <ele>140</ele>
        <time>2014-04-27T07:26:08Z</time>
      </trkpt>
      <trkpt lat="45.10338" lon="0.64557">
        <ele>140</ele>
        <time>2014-04-27T07:26:09Z</time>
      </trkpt>
      <trkpt lat="45.10333" lon="0.64563">
        <ele>138</ele>
        <time>2014-04-27T07:26:10Z</time>
      </trkpt>
      <trkpt lat="45.10329" lon="0.64569">
        <ele>139</ele>
        <time>2014-04-27T07:26:11Z</time>
      </trkpt>
      <trkpt lat="45.10326" lon="0.64577">
        <ele>139</ele>
        <time>2014-04-27T07:26:12Z</time>
      </trkpt>
      <trkpt lat="45.10324" lon="0.64585">
        <ele>140</ele>
        <time>2014-04-27T07:26:13Z</time>
      </trkpt>
      <trkpt lat="45.10322" lon="0.64594">
        <ele>140</ele>
        <time>2014-04-27T07:26:14Z</time>
      </trkpt>
      <trkpt lat="45.10321" lon="0.64603">
        <ele>140</ele>
        <time>2014-04-27T07:26:15Z</time>
      </trkpt>
      <trkpt lat="45.1032" lon="0.64612">
        <ele>140</ele>
        <time>2014-04-27T07:26:16Z</time>
      </trkpt>
      <trkpt lat="45.10306" lon="0.64732">
        <ele>144</ele>
        <time>2014-04-27T07:26:29Z</time>
      </trkpt>
      <trkpt lat="45.10303" lon="0.64741">
        <ele>143</ele>
        <time>2014-04-27T07:26:30Z</time>
      </trkpt>
      <trkpt lat="45.10299" lon="0.64749">
        <ele>143</ele>
        <time>2014-04-27T07:26:31Z</time>
      </trkpt>
      <trkpt lat="45.10295" lon="0.64757">
        <ele>143</ele>
        <time>2014-04-27T07:26:32Z</time>
      </trkpt>
      <trkpt lat="45.10289" lon="0.64765">
        <ele>142</ele>
        <time>2014-04-27T07:26:33Z</time>
      </trkpt>
      <trkpt lat="45.10283" lon="0.64771">
        <ele>141</ele>
        <time>2014-04-27T07:26:34Z</time>
      </trkpt>
      <trkpt lat="45.10276" lon="0.64776">
        <ele>141</ele>
        <time>2014-04-27T07:26:35Z</time>
      </trkpt>
      <trkpt lat="45.10268" lon="0.6478">
        <ele>140</ele>
        <time>2014-04-27T07:26:36Z</time>
      </trkpt>
      <trkpt lat="45.10259" lon="0.64783">
        <ele>139</ele>
        <time>2014-04-27T07:26:37Z</time>
      </trkpt>
      <trkpt lat="45.10251" lon="0.64784">
        <ele>139</ele>
        <time>2014-04-27T07:26:38Z</time>
      </trkpt>
      <trkpt lat="45.10242" lon="0.64784">
        <ele>134</ele>
        <time>2014-04-27T07:26:39Z</time>
      </trkpt>
      <trkpt lat="45.10234" lon="0.64782">
        <ele>134</ele>
        <time>2014-04-27T07:26:40Z</time>
      </trkpt>
      <trkpt lat="45.10226" lon="0.6478">
        <ele>134</ele>
        <time>2014-04-27T07:26:41Z</time>
      </trkpt>
      <trkpt lat="45.10212" lon="0.64774">
        <ele>134</ele>
        <time>2014-04-27T07:26:43Z</time>
      </trkpt>
      <trkpt lat="45.10207" lon="0.64768">
        <ele>135</ele>
        <time>2014-04-27T07:26:44Z</time>
      </trkpt>
      <trkpt lat="45.10204" lon="0.64761">
        <ele>135</ele>
        <time>2014-04-27T07:26:45Z</time>
      </trkpt>
      <trkpt lat="45.10201" lon="0.64754">
        <ele>135</ele>
        <time>2014-04-27T07:26:46Z</time>
      </trkpt>
      <trkpt lat="45.10197" lon="0.64748">
        <ele>135</ele>
        <time>2014-04-27T07:26:47Z</time>
      </trkpt>
      <trkpt lat="45.10193" lon="0.64743">
        <ele>135</ele>
        <time>2014-04-27T07:26:48Z</time>
      </trkpt>
      <trkpt lat="45.10189" lon="0.64739">
        <ele>135</ele>
        <time>2014-04-27T07:26:49Z</time>
      </trkpt>
      <trkpt lat="45.10185" lon="0.64734">
        <ele>135</ele>
        <time>2014-04-27T07:26:50Z</time>
      </trkpt>
      <trkpt lat="45.10182" lon="0.6473">
        <ele>135</ele>
        <time>2014-04-27T07:26:51Z</time>
      </trkpt>
      <trkpt lat="45.1015" lon="0.6469">
        <ele>139</ele>
        <time>2014-04-27T07:27:02Z</time>
      </trkpt>
      <trkpt lat="45.10125" lon="0.6466">
        <ele>140</ele>
        <time>2014-04-27T07:27:13Z</time>
      </trkpt>
      <trkpt lat="45.1011" lon="0.64653">
        <ele>141</ele>
        <time>2014-04-27T07:27:22Z</time>
      </trkpt>
      <trkpt lat="45.10099" lon="0.64655">
        <ele>143</ele>
        <time>2014-04-27T07:27:31Z</time>
      </trkpt>
      <trkpt lat="45.10098" lon="0.64656">
        <ele>143</ele>
        <time>2014-04-27T07:27:32Z</time>
      </trkpt>
      <trkpt lat="45.10095" lon="0.64657">
        <ele>144</ele>
        <time>2014-04-27T07:27:34Z</time>
      </trkpt>
      <trkpt lat="45.10081" lon="0.64662">
        <ele>148</ele>
        <time>2014-04-27T07:27:44Z</time>
      </trkpt>
      <trkpt lat="45.10056" lon="0.64672">
        <ele>149</ele>
        <time>2014-04-27T07:28:01Z</time>
      </trkpt>
      <trkpt lat="45.10023" lon="0.64685">
        <ele>151</ele>
        <time>2014-04-27T07:28:18Z</time>
      </trkpt>
      <trkpt lat="45.09979" lon="0.64698">
        <ele>155</ele>
        <time>2014-04-27T07:28:34Z</time>
      </trkpt>
      <trkpt lat="45.09938" lon="0.64701">
        <ele>157</ele>
        <time>2014-04-27T07:28:49Z</time>
      </trkpt>
      <trkpt lat="45.09912" lon="0.647">
        <ele>165</ele>
        <time>2014-04-27T07:29:01Z</time>
      </trkpt>
      <trkpt lat="45.09885" lon="0.64696">
        <ele>167</ele>
        <time>2014-04-27T07:29:13Z</time>
      </trkpt>
      <trkpt lat="45.09868" lon="0.64687">
        <ele>170</ele>
        <time>2014-04-27T07:29:23Z</time>
      </trkpt>
      <trkpt lat="45.09857" lon="0.64687">
        <ele>171</ele>
        <time>2014-04-27T07:29:30Z</time>
      </trkpt>
      <trkpt lat="45.09832" lon="0.64676">
        <ele>181</ele>
        <time>2014-04-27T07:29:43Z</time>
      </trkpt>
      <trkpt lat="45.09809" lon="0.64658">
        <ele>184</ele>
        <time>2014-04-27T07:29:55Z</time>
      </trkpt>
      <trkpt lat="45.0977" lon="0.64621">
        <ele>188</ele>
        <time>2014-04-27T07:30:12Z</time>
      </trkpt>
      <trkpt lat="45.09737" lon="0.64615">
        <ele>196</ele>
        <time>2014-04-27T07:30:24Z</time>
      </trkpt>
      <trkpt lat="45.09727" lon="0.64604">
        <ele>196</ele>
        <time>2014-04-27T07:30:29Z</time>
      </trkpt>
      <trkpt lat="45.09726" lon="0.6457">
        <ele>199</ele>
        <time>2014-04-27T07:30:41Z</time>
      </trkpt>
      <trkpt lat="45.09724" lon="0.64544">
        <ele>200</ele>
        <time>2014-04-27T07:30:51Z</time>
      </trkpt>
      <trkpt lat="45.09723" lon="0.64542">
        <ele>200</ele>
        <time>2014-04-27T07:30:52Z</time>
      </trkpt>
      <trkpt lat="45.09703" lon="0.64534">
        <ele>201</ele>
        <time>2014-04-27T07:31:03Z</time>
      </trkpt>
      <trkpt lat="45.09671" lon="0.64539">
        <ele>203</ele>
        <time>2014-04-27T07:31:16Z</time>
      </trkpt>
      <trkpt lat="45.09657" lon="0.64515">
        <ele>208</ele>
        <time>2014-04-27T07:31:27Z</time>
      </trkpt>
      <trkpt lat="45.09657" lon="0.64474">
        <ele>208</ele>
        <time>2014-04-27T07:31:40Z</time>
      </trkpt>
      <trkpt lat="45.09639" lon="0.64459">
        <ele>209</ele>
        <time>2014-04-27T07:31:48Z</time>
      </trkpt>
      <trkpt lat="45.09584" lon="0.64478">
        <ele>210</ele>
        <time>2014-04-27T07:32:07Z</time>
      </trkpt>
      <trkpt lat="45.09537" lon="0.64515">
        <ele>212</ele>
        <time>2014-04-27T07:32:21Z</time>
      </trkpt>
      <trkpt lat="45.09492" lon="0.64545">
        <ele>212</ele>
        <time>2014-04-27T07:32:31Z</time>
      </trkpt>
      <trkpt lat="45.0947" lon="0.64553">
        <ele>212</ele>
        <time>2014-04-27T07:32:35Z</time>
      </trkpt>
      <trkpt lat="45.09458" lon="0.64553">
        <ele>212</ele>
        <time>2014-04-27T07:32:37Z</time>
      </trkpt>
      <trkpt lat="45.09425" lon="0.64545">
        <ele>212</ele>
        <time>2014-04-27T07:32:43Z</time>
      </trkpt>
      <trkpt lat="45.0942" lon="0.64525">
        <ele>213</ele>
        <time>2014-04-27T07:32:50Z</time>
      </trkpt>
      <trkpt lat="45.09425" lon="0.64517">
        <ele>213</ele>
        <time>2014-04-27T07:32:52Z</time>
      </trkpt>
      <trkpt lat="45.09446" lon="0.64474">
        <ele>211</ele>
        <time>2014-04-27T07:33:01Z</time>
      </trkpt>
      <trkpt lat="45.09459" lon="0.64427">
        <ele>210</ele>
        <time>2014-04-27T07:33:08Z</time>
      </trkpt>
      <trkpt lat="45.09459" lon="0.64401">
        <ele>208</ele>
        <time>2014-04-27T07:33:12Z</time>
      </trkpt>
      <trkpt lat="45.09461" lon="0.64359">
        <ele>207</ele>
        <time>2014-04-27T07:33:18Z</time>
      </trkpt>
      <trkpt lat="45.0946" lon="0.64352">
        <ele>207</ele>
        <time>2014-04-27T07:33:19Z</time>
      </trkpt>
      <trkpt lat="45.09459" lon="0.64345">
        <ele>207</ele>
        <time>2014-04-27T07:33:20Z</time>
      </trkpt>
      <trkpt lat="45.09459" lon="0.64338">
        <ele>207</ele>
        <time>2014-04-27T07:33:21Z</time>
      </trkpt>
      <trkpt lat="45.09459" lon="0.6433">
        <ele>206</ele>
        <time>2014-04-27T07:33:22Z</time>
      </trkpt>
      <trkpt lat="45.0946" lon="0.64321">
        <ele>206</ele>
        <time>2014-04-27T07:33:23Z</time>
      </trkpt>
      <trkpt lat="45.09458" lon="0.64206">
        <ele>204</ele>
        <time>2014-04-27T07:33:36Z</time>
      </trkpt>
      <trkpt lat="45.0944" lon="0.64095">
        <ele>202</ele>
        <time>2014-04-27T07:33:48Z</time>
      </trkpt>
      <trkpt lat="45.09396" lon="0.63985">
        <ele>199</ele>
        <time>2014-04-27T07:33:59Z</time>
      </trkpt>
      <trkpt lat="45.09352" lon="0.6392">
        <ele>197</ele>
        <time>2014-04-27T07:34:08Z</time>
      </trkpt>
      <trkpt lat="45.09347" lon="0.63915">
        <ele>196</ele>
        <time>2014-04-27T07:34:09Z</time>
      </trkpt>
      <trkpt lat="45.09342" lon="0.6391">
        <ele>196</ele>
        <time>2014-04-27T07:34:10Z</time>
      </trkpt>
      <trkpt lat="45.09337" lon="0.63906">
        <ele>196</ele>
        <time>2014-04-27T07:34:11Z</time>
      </trkpt>
      <trkpt lat="45.09331" lon="0.63903">
        <ele>194</ele>
        <time>2014-04-27T07:34:12Z</time>
      </trkpt>
      <trkpt lat="45.09325" lon="0.63899">
        <ele>193</ele>
        <time>2014-04-27T07:34:13Z</time>
      </trkpt>
      <trkpt lat="45.09318" lon="0.63896">
        <ele>192</ele>
        <time>2014-04-27T07:34:14Z</time>
      </trkpt>
      <trkpt lat="45.09312" lon="0.63894">
        <ele>192</ele>
        <time>2014-04-27T07:34:15Z</time>
      </trkpt>
      <trkpt lat="45.09305" lon="0.6389">
        <ele>191</ele>
        <time>2014-04-27T07:34:16Z</time>
      </trkpt>
      <trkpt lat="45.09298" lon="0.63886">
        <ele>191</ele>
        <time>2014-04-27T07:34:17Z</time>
      </trkpt>
      <trkpt lat="45.09292" lon="0.63882">
        <ele>190</ele>
        <time>2014-04-27T07:34:18Z</time>
      </trkpt>
      <trkpt lat="45.09286" lon="0.63877">
        <ele>190</ele>
        <time>2014-04-27T07:34:19Z</time>
      </trkpt>
      <trkpt lat="45.09274" lon="0.63865">
        <ele>190</ele>
        <time>2014-04-27T07:34:21Z</time>
      </trkpt>
      <trkpt lat="45.09267" lon="0.6386">
        <ele>189</ele>
        <time>2014-04-27T07:34:22Z</time>
      </trkpt>
      <trkpt lat="45.0926" lon="0.63855">
        <ele>189</ele>
        <time>2014-04-27T07:34:23Z</time>
      </trkpt>
      <trkpt lat="45.09244" lon="0.63841">
        <ele>183</ele>
        <time>2014-04-27T07:34:26Z</time>
      </trkpt>
      <trkpt lat="45.09239" lon="0.63835">
        <ele>183</ele>
        <time>2014-04-27T07:34:27Z</time>
      </trkpt>
      <trkpt lat="45.09233" lon="0.63829">
        <ele>185</ele>
        <time>2014-04-27T07:34:28Z</time>
      </trkpt>
      <trkpt lat="45.09212" lon="0.63811">
        <ele>182</ele>
        <time>2014-04-27T07:34:31Z</time>
      </trkpt>
      <trkpt lat="45.09192" lon="0.63791">
        <ele>181</ele>
        <time>2014-04-27T07:34:34Z</time>
      </trkpt>
      <trkpt lat="45.09132" lon="0.63736">
        <ele>176</ele>
        <time>2014-04-27T07:34:43Z</time>
      </trkpt>
      <trkpt lat="45.09104" lon="0.63719">
        <ele>173</ele>
        <time>2014-04-27T07:34:46Z</time>
      </trkpt>
      <trkpt lat="45.09074" lon="0.63699">
        <ele>160</ele>
        <time>2014-04-27T07:34:49Z</time>
      </trkpt>
      <trkpt lat="45.09064" lon="0.6369">
        <ele>161</ele>
        <time>2014-04-27T07:34:50Z</time>
      </trkpt>
      <trkpt lat="45.09054" lon="0.6368">
        <ele>160</ele>
        <time>2014-04-27T07:34:51Z</time>
      </trkpt>
      <trkpt lat="45.09046" lon="0.63668">
        <ele>159</ele>
        <time>2014-04-27T07:34:52Z</time>
      </trkpt>
      <trkpt lat="45.09023" lon="0.63634">
        <ele>161</ele>
        <time>2014-04-27T07:34:55Z</time>
      </trkpt>
      <trkpt lat="45.09011" lon="0.63619">
        <ele>160</ele>
        <time>2014-04-27T07:34:57Z</time>
      </trkpt>
      <trkpt lat="45.09006" lon="0.63612">
        <ele>160</ele>
        <time>2014-04-27T07:34:58Z</time>
      </trkpt>
      <trkpt lat="45.09" lon="0.63608">
        <ele>147</ele>
        <time>2014-04-27T07:34:59Z</time>
      </trkpt>
      <trkpt lat="45.08993" lon="0.63604">
        <ele>147</ele>
        <time>2014-04-27T07:35:00Z</time>
      </trkpt>
      <trkpt lat="45.08985" lon="0.63602">
        <ele>146</ele>
        <time>2014-04-27T07:35:01Z</time>
      </trkpt>
      <trkpt lat="45.08978" lon="0.63602">
        <ele>145</ele>
        <time>2014-04-27T07:35:02Z</time>
      </trkpt>
      <trkpt lat="45.08971" lon="0.63604">
        <ele>144</ele>
        <time>2014-04-27T07:35:03Z</time>
      </trkpt>
      <trkpt lat="45.08963" lon="0.63607">
        <ele>143</ele>
        <time>2014-04-27T07:35:04Z</time>
      </trkpt>
      <trkpt lat="45.08939" lon="0.6362">
        <ele>140</ele>
        <time>2014-04-27T07:35:07Z</time>
      </trkpt>
      <trkpt lat="45.08932" lon="0.63627">
        <ele>139</ele>
        <time>2014-04-27T07:35:08Z</time>
      </trkpt>
      <trkpt lat="45.08919" lon="0.63643">
        <ele>138</ele>
        <time>2014-04-27T07:35:10Z</time>
      </trkpt>
      <trkpt lat="45.08912" lon="0.63648">
        <ele>129</ele>
        <time>2014-04-27T07:35:11Z</time>
      </trkpt>
      <trkpt lat="45.08904" lon="0.6365">
        <ele>129</ele>
        <time>2014-04-27T07:35:12Z</time>
      </trkpt>
      <trkpt lat="45.08896" lon="0.6365">
        <ele>128</ele>
        <time>2014-04-27T07:35:13Z</time>
      </trkpt>
      <trkpt lat="45.08887" lon="0.63649">
        <ele>127</ele>
        <time>2014-04-27T07:35:14Z</time>
      </trkpt>
      <trkpt lat="45.08871" lon="0.63647">
        <ele>126</ele>
        <time>2014-04-27T07:35:16Z</time>
      </trkpt>
      <trkpt lat="45.08856" lon="0.63642">
        <ele>124</ele>
        <time>2014-04-27T07:35:19Z</time>
      </trkpt>
      <trkpt lat="45.08855" lon="0.63638">
        <ele>124</ele>
        <time>2014-04-27T07:35:20Z</time>
      </trkpt>
      <trkpt lat="45.08855" lon="0.63632">
        <ele>124</ele>
        <time>2014-04-27T07:35:21Z</time>
      </trkpt>
      <trkpt lat="45.08867" lon="0.63529">
        <ele>124</ele>
        <time>2014-04-27T07:35:33Z</time>
      </trkpt>
      <trkpt lat="45.08877" lon="0.63381">
        <ele>123</ele>
        <time>2014-04-27T07:35:48Z</time>
      </trkpt>
      <trkpt lat="45.08874" lon="0.63374">
        <ele>122</ele>
        <time>2014-04-27T07:35:49Z</time>
      </trkpt>
      <trkpt lat="45.08868" lon="0.6337">
        <ele>122</ele>
        <time>2014-04-27T07:35:50Z</time>
      </trkpt>
      <trkpt lat="45.08861" lon="0.63368">
        <ele>121</ele>
        <time>2014-04-27T07:35:51Z</time>
      </trkpt>
      <trkpt lat="45.08854" lon="0.63367">
        <ele>121</ele>
        <time>2014-04-27T07:35:52Z</time>
      </trkpt>
      <trkpt lat="45.08782" lon="0.6335">
        <ele>117</ele>
        <time>2014-04-27T07:36:01Z</time>
      </trkpt>
      <trkpt lat="45.08775" lon="0.63347">
        <ele>117</ele>
        <time>2014-04-27T07:36:02Z</time>
      </trkpt>
      <trkpt lat="45.08738" lon="0.63328">
        <ele>119</ele>
        <time>2014-04-27T07:36:08Z</time>
      </trkpt>
      <trkpt lat="45.08734" lon="0.63323">
        <ele>120</ele>
        <time>2014-04-27T07:36:09Z</time>
      </trkpt>
      <trkpt lat="45.08733" lon="0.63318">
        <ele>120</ele>
        <time>2014-04-27T07:36:10Z</time>
      </trkpt>
      <trkpt lat="45.08733" lon="0.63313">
        <ele>120</ele>
        <time>2014-04-27T07:36:11Z</time>
      </trkpt>
      <trkpt lat="45.08733" lon="0.63307">
        <ele>120</ele>
        <time>2014-04-27T07:36:12Z</time>
      </trkpt>
      <trkpt lat="45.08732" lon="0.63259">
        <ele>120</ele>
        <time>2014-04-27T07:36:20Z</time>
      </trkpt>
      <trkpt lat="45.0873" lon="0.63231">
        <ele>121</ele>
        <time>2014-04-27T07:36:24Z</time>
      </trkpt>
      <trkpt lat="45.08729" lon="0.63211">
        <ele>122</ele>
        <time>2014-04-27T07:36:27Z</time>
      </trkpt>
      <trkpt lat="45.08717" lon="0.63146">
        <ele>122</ele>
        <time>2014-04-27T07:36:38Z</time>
      </trkpt>
      <trkpt lat="45.08699" lon="0.63062">
        <ele>122</ele>
        <time>2014-04-27T07:36:54Z</time>
      </trkpt>
      <trkpt lat="45.08681" lon="0.63002">
        <ele>123</ele>
        <time>2014-04-27T07:37:06Z</time>
      </trkpt>
      <trkpt lat="45.08668" lon="0.62943">
        <ele>120</ele>
        <time>2014-04-27T07:37:17Z</time>
      </trkpt>
      <trkpt lat="45.08658" lon="0.62884">
        <ele>124</ele>
        <time>2014-04-27T07:37:26Z</time>
      </trkpt>
      <trkpt lat="45.08653" lon="0.6286">
        <ele>124</ele>
        <time>2014-04-27T07:37:30Z</time>
      </trkpt>
      <trkpt lat="45.08648" lon="0.62842">
        <ele>123</ele>
        <time>2014-04-27T07:37:33Z</time>
      </trkpt>
      <trkpt lat="45.08617" lon="0.62771">
        <ele>122</ele>
        <time>2014-04-27T07:37:49Z</time>
      </trkpt>
      <trkpt lat="45.08578" lon="0.62696">
        <ele>122</ele>
        <time>2014-04-27T07:38:08Z</time>
      </trkpt>
      <trkpt lat="45.08526" lon="0.62638">
        <ele>122</ele>
        <time>2014-04-27T07:38:27Z</time>
      </trkpt>
      <trkpt lat="45.0851" lon="0.62607">
        <ele>124</ele>
        <time>2014-04-27T07:38:39Z</time>
      </trkpt>
      <trkpt lat="45.08486" lon="0.62584">
        <ele>129</ele>
        <time>2014-04-27T07:38:53Z</time>
      </trkpt>
      <trkpt lat="45.08468" lon="0.62576">
        <ele>134</ele>
        <time>2014-04-27T07:39:05Z</time>
      </trkpt>
      <trkpt lat="45.08467" lon="0.62576">
        <ele>134</ele>
        <time>2014-04-27T07:39:06Z</time>
      </trkpt>
      <trkpt lat="45.08457" lon="0.62562">
        <ele>136</ele>
        <time>2014-04-27T07:39:19Z</time>
      </trkpt>
      <trkpt lat="45.08454" lon="0.62525">
        <ele>137</ele>
        <time>2014-04-27T07:39:36Z</time>
      </trkpt>
      <trkpt lat="45.08451" lon="0.6248">
        <ele>139</ele>
        <time>2014-04-27T07:39:53Z</time>
      </trkpt>
      <trkpt lat="45.08442" lon="0.6243">
        <ele>140</ele>
        <time>2014-04-27T07:40:09Z</time>
      </trkpt>
      <trkpt lat="45.08426" lon="0.62383">
        <ele>140</ele>
        <time>2014-04-27T07:40:25Z</time>
      </trkpt>
      <trkpt lat="45.0841" lon="0.62344">
        <ele>150</ele>
        <time>2014-04-27T07:40:40Z</time>
      </trkpt>
      <trkpt lat="45.084" lon="0.62318">
        <ele>150</ele>
        <time>2014-04-27T07:40:52Z</time>
      </trkpt>
      <trkpt lat="45.08385" lon="0.62291">
        <ele>152</ele>
        <time>2014-04-27T07:41:05Z</time>
      </trkpt>
      <trkpt lat="45.08356" lon="0.62267">
        <ele>156</ele>
        <time>2014-04-27T07:41:19Z</time>
      </trkpt>
      <trkpt lat="45.08334" lon="0.62248">
        <ele>160</ele>
        <time>2014-04-27T07:41:32Z</time>
      </trkpt>
      <trkpt lat="45.08319" lon="0.62206">
        <ele>163</ele>
        <time>2014-04-27T07:41:45Z</time>
      </trkpt>
      <trkpt lat="45.08297" lon="0.62149">
        <ele>159</ele>
        <time>2014-04-27T07:41:58Z</time>
      </trkpt>
      <trkpt lat="45.08275" lon="0.62101">
        <ele>161</ele>
        <time>2014-04-27T07:42:10Z</time>
      </trkpt>
      <trkpt lat="45.08249" lon="0.62045">
        <ele>168</ele>
        <time>2014-04-27T07:42:26Z</time>
      </trkpt>
      <trkpt lat="45.08235" lon="0.62026">
        <ele>168</ele>
        <time>2014-04-27T07:42:35Z</time>
      </trkpt>
      <trkpt lat="45.08227" lon="0.62024">
        <ele>168</ele>
        <time>2014-04-27T07:42:39Z</time>
      </trkpt>
      <trkpt lat="45.08211" lon="0.6203">
        <ele>170</ele>
        <time>2014-04-27T07:42:49Z</time>
      </trkpt>
      <trkpt lat="45.0821" lon="0.62031">
        <ele>170</ele>
        <time>2014-04-27T07:42:50Z</time>
      </trkpt>
      <trkpt lat="45.08207" lon="0.62033">
        <ele>170</ele>
        <time>2014-04-27T07:42:52Z</time>
      </trkpt>
      <trkpt lat="45.08195" lon="0.62055">
        <ele>172</ele>
        <time>2014-04-27T07:43:03Z</time>
      </trkpt>
      <trkpt lat="45.08191" lon="0.62065">
        <ele>173</ele>
        <time>2014-04-27T07:43:07Z</time>
      </trkpt>
      <trkpt lat="45.08187" lon="0.62085">
        <ele>177</ele>
        <time>2014-04-27T07:43:15Z</time>
      </trkpt>
      <trkpt lat="45.08181" lon="0.62132">
        <ele>179</ele>
        <time>2014-04-27T07:43:30Z</time>
      </trkpt>
      <trkpt lat="45.08173" lon="0.62172">
        <ele>185</ele>
        <time>2014-04-27T07:43:43Z</time>
      </trkpt>
      <trkpt lat="45.08166" lon="0.6221">
        <ele>185</ele>
        <time>2014-04-27T07:43:55Z</time>
      </trkpt>
      <trkpt lat="45.0816" lon="0.62258">
        <ele>188</ele>
        <time>2014-04-27T07:44:07Z</time>
      </trkpt>
      <trkpt lat="45.08161" lon="0.62321">
        <ele>188</ele>
        <time>2014-04-27T07:44:20Z</time>
      </trkpt>
      <trkpt lat="45.08163" lon="0.62394">
        <ele>186</ele>
        <time>2014-04-27T07:44:32Z</time>
      </trkpt>
      <trkpt lat="45.08163" lon="0.62488">
        <ele>185</ele>
        <time>2014-04-27T07:44:45Z</time>
      </trkpt>
      <trkpt lat="45.08156" lon="0.62575">
        <ele>184</ele>
        <time>2014-04-27T07:44:54Z</time>
      </trkpt>
      <trkpt lat="45.08147" lon="0.62605">
        <ele>185</ele>
        <time>2014-04-27T07:44:58Z</time>
      </trkpt>
      <trkpt lat="45.08142" lon="0.62608">
        <ele>185</ele>
        <time>2014-04-27T07:44:59Z</time>
      </trkpt>
      <trkpt lat="45.08128" lon="0.62596">
        <ele>185</ele>
        <time>2014-04-27T07:45:03Z</time>
      </trkpt>
      <trkpt lat="45.08108" lon="0.62544">
        <ele>182</ele>
        <time>2014-04-27T07:45:09Z</time>
      </trkpt>
      <trkpt lat="45.08098" lon="0.62523">
        <ele>180</ele>
        <time>2014-04-27T07:45:11Z</time>
      </trkpt>
      <trkpt lat="45.08093" lon="0.62511">
        <ele>179</ele>
        <time>2014-04-27T07:45:12Z</time>
      </trkpt>
      <trkpt lat="45.08075" lon="0.62471">
        <ele>171</ele>
        <time>2014-04-27T07:45:15Z</time>
      </trkpt>
      <trkpt lat="45.08061" lon="0.62441">
        <ele>170</ele>
        <time>2014-04-27T07:45:17Z</time>
      </trkpt>
      <trkpt lat="45.08044" lon="0.62412">
        <ele>168</ele>
        <time>2014-04-27T07:45:19Z</time>
      </trkpt>
      <trkpt lat="45.08028" lon="0.62384">
        <ele>166</ele>
        <time>2014-04-27T07:45:21Z</time>
      </trkpt>
      <trkpt lat="45.08012" lon="0.6234">
        <ele>163</ele>
        <time>2014-04-27T07:45:24Z</time>
      </trkpt>
      <trkpt lat="45.08004" lon="0.62314">
        <ele>165</ele>
        <time>2014-04-27T07:45:26Z</time>
      </trkpt>
      <trkpt lat="45.07987" lon="0.62268">
        <ele>155</ele>
        <time>2014-04-27T07:45:30Z</time>
      </trkpt>
      <trkpt lat="45.07983" lon="0.62258">
        <ele>155</ele>
        <time>2014-04-27T07:45:31Z</time>
      </trkpt>
      <trkpt lat="45.07961" lon="0.62235">
        <ele>153</ele>
        <time>2014-04-27T07:45:35Z</time>
      </trkpt>
      <trkpt lat="45.07954" lon="0.62232">
        <ele>152</ele>
        <time>2014-04-27T07:45:36Z</time>
      </trkpt>
      <trkpt lat="45.07928" lon="0.62205">
        <ele>150</ele>
        <time>2014-04-27T07:45:40Z</time>
      </trkpt>
      <trkpt lat="45.07912" lon="0.62163">
        <ele>144</ele>
        <time>2014-04-27T07:45:44Z</time>
      </trkpt>
      <trkpt lat="45.07909" lon="0.62153">
        <ele>141</ele>
        <time>2014-04-27T07:45:45Z</time>
      </trkpt>
      <trkpt lat="45.07891" lon="0.62152">
        <ele>138</ele>
        <time>2014-04-27T07:45:50Z</time>
      </trkpt>
      <trkpt lat="45.07873" lon="0.62166">
        <ele>135</ele>
        <time>2014-04-27T07:45:54Z</time>
      </trkpt>
      <trkpt lat="45.07862" lon="0.62147">
        <ele>134</ele>
        <time>2014-04-27T07:45:57Z</time>
      </trkpt>
      <trkpt lat="45.07861" lon="0.62138">
        <ele>134</ele>
        <time>2014-04-27T07:45:58Z</time>
      </trkpt>
      <trkpt lat="45.0786" lon="0.62127">
        <ele>133</ele>
        <time>2014-04-27T07:45:59Z</time>
      </trkpt>
      <trkpt lat="45.07861" lon="0.62105">
        <ele>133</ele>
        <time>2014-04-27T07:46:01Z</time>
      </trkpt>
      <trkpt lat="45.07862" lon="0.62094">
        <ele>132</ele>
        <time>2014-04-27T07:46:02Z</time>
      </trkpt>
      <trkpt lat="45.07858" lon="0.62058">
        <ele>128</ele>
        <time>2014-04-27T07:46:05Z</time>
      </trkpt>
      <trkpt lat="45.07852" lon="0.62034">
        <ele>127</ele>
        <time>2014-04-27T07:46:07Z</time>
      </trkpt>
      <trkpt lat="45.07841" lon="0.61996">
        <ele>118</ele>
        <time>2014-04-27T07:46:10Z</time>
      </trkpt>
      <trkpt lat="45.07834" lon="0.61971">
        <ele>119</ele>
        <time>2014-04-27T07:46:12Z</time>
      </trkpt>
      <trkpt lat="45.07832" lon="0.61958">
        <ele>108</ele>
        <time>2014-04-27T07:46:13Z</time>
      </trkpt>
      <trkpt lat="45.0783" lon="0.61945">
        <ele>107</ele>
        <time>2014-04-27T07:46:14Z</time>
      </trkpt>
      <trkpt lat="45.07831" lon="0.61931">
        <ele>108</ele>
        <time>2014-04-27T07:46:15Z</time>
      </trkpt>
      <trkpt lat="45.07831" lon="0.61917">
        <ele>109</ele>
        <time>2014-04-27T07:46:16Z</time>
      </trkpt>
      <trkpt lat="45.07832" lon="0.61874">
        <ele>104</ele>
        <time>2014-04-27T07:46:19Z</time>
      </trkpt>
      <trkpt lat="45.0783" lon="0.61853">
        <ele>104</ele>
        <time>2014-04-27T07:46:21Z</time>
      </trkpt>
      <trkpt lat="45.07827" lon="0.61847">
        <ele>104</ele>
        <time>2014-04-27T07:46:22Z</time>
      </trkpt>
      <trkpt lat="45.07821" lon="0.61841">
        <ele>104</ele>
        <time>2014-04-27T07:46:23Z</time>
      </trkpt>
      <trkpt lat="45.07815" lon="0.61836">
        <ele>103</ele>
        <time>2014-04-27T07:46:24Z</time>
      </trkpt>
      <trkpt lat="45.07808" lon="0.61832">
        <ele>101</ele>
        <time>2014-04-27T07:46:25Z</time>
      </trkpt>
      <trkpt lat="45.07697" lon="0.61752">
        <ele>95</ele>
        <time>2014-04-27T07:46:42Z</time>
      </trkpt>
      <trkpt lat="45.07663" lon="0.61727">
        <ele>95</ele>
        <time>2014-04-27T07:46:48Z</time>
      </trkpt>
      <trkpt lat="45.0766" lon="0.61722">
        <ele>95</ele>
        <time>2014-04-27T07:46:49Z</time>
      </trkpt>
      <trkpt lat="45.07658" lon="0.61714">
        <ele>95</ele>
        <time>2014-04-27T07:46:50Z</time>
      </trkpt>
      <trkpt lat="45.07659" lon="0.61707">
        <ele>95</ele>
        <time>2014-04-27T07:46:51Z</time>
      </trkpt>
      <trkpt lat="45.07661" lon="0.61699">
        <ele>95</ele>
        <time>2014-04-27T07:46:52Z</time>
      </trkpt>
      <trkpt lat="45.07664" lon="0.61692">
        <ele>95</ele>
        <time>2014-04-27T07:46:53Z</time>
      </trkpt>
      <trkpt lat="45.07671" lon="0.61659">
        <ele>95</ele>
        <time>2014-04-27T07:46:57Z</time>
      </trkpt>
      <trkpt lat="45.07671" lon="0.61651">
        <ele>95</ele>
        <time>2014-04-27T07:46:58Z</time>
      </trkpt>
      <trkpt lat="45.07669" lon="0.61643">
        <ele>95</ele>
        <time>2014-04-27T07:46:59Z</time>
      </trkpt>
      <trkpt lat="45.07665" lon="0.61637">
        <ele>94</ele>
        <time>2014-04-27T07:47:00Z</time>
      </trkpt>
      <trkpt lat="45.07662" lon="0.61632">
        <ele>94</ele>
        <time>2014-04-27T07:47:01Z</time>
      </trkpt>
      <trkpt lat="45.07657" lon="0.61627">
        <ele>94</ele>
        <time>2014-04-27T07:47:02Z</time>
      </trkpt>
      <trkpt lat="45.07653" lon="0.61623">
        <ele>94</ele>
        <time>2014-04-27T07:47:03Z</time>
      </trkpt>
      <trkpt lat="45.07584" lon="0.61565">
        <ele>94</ele>
        <time>2014-04-27T07:47:16Z</time>
      </trkpt>
      <trkpt lat="45.07508" lon="0.61504">
        <ele>96</ele>
        <time>2014-04-27T07:47:33Z</time>
      </trkpt>
      <trkpt lat="45.0747" lon="0.6148">
        <ele>99</ele>
        <time>2014-04-27T07:47:44Z</time>
      </trkpt>
      <trkpt lat="45.07423" lon="0.61448">
        <ele>101</ele>
        <time>2014-04-27T07:48:00Z</time>
      </trkpt>
      <trkpt lat="45.07409" lon="0.61438">
        <ele>104</ele>
        <time>2014-04-27T07:48:05Z</time>
      </trkpt>
      <trkpt lat="45.0737" lon="0.61412">
        <ele>107</ele>
        <time>2014-04-27T07:48:19Z</time>
      </trkpt>
      <trkpt lat="45.07338" lon="0.61394">
        <ele>109</ele>
        <time>2014-04-27T07:48:32Z</time>
      </trkpt>
      <trkpt lat="45.07313" lon="0.6138">
        <ele>116</ele>
        <time>2014-04-27T07:48:44Z</time>
      </trkpt>
      <trkpt lat="45.07288" lon="0.61366">
        <ele>117</ele>
        <time>2014-04-27T07:48:58Z</time>
      </trkpt>
      <trkpt lat="45.07265" lon="0.61354">
        <ele>119</ele>
        <time>2014-04-27T07:49:10Z</time>
      </trkpt>
      <trkpt lat="45.07245" lon="0.61347">
        <ele>127</ele>
        <time>2014-04-27T07:49:21Z</time>
      </trkpt>
      <trkpt lat="45.07225" lon="0.61338">
        <ele>129</ele>
        <time>2014-04-27T07:49:33Z</time>
      </trkpt>
      <trkpt lat="45.07204" lon="0.61329">
        <ele>130</ele>
        <time>2014-04-27T07:49:45Z</time>
      </trkpt>
      <trkpt lat="45.0719" lon="0.61327">
        <ele>133</ele>
        <time>2014-04-27T07:49:56Z</time>
      </trkpt>
      <trkpt lat="45.07172" lon="0.61325">
        <ele>136</ele>
        <time>2014-04-27T07:50:08Z</time>
      </trkpt>
      <trkpt lat="45.07169" lon="0.61325">
        <ele>137</ele>
        <time>2014-04-27T07:50:10Z</time>
      </trkpt>
      <trkpt lat="45.07167" lon="0.61325">
        <ele>137</ele>
        <time>2014-04-27T07:50:11Z</time>
      </trkpt>
      <trkpt lat="45.07165" lon="0.61324">
        <ele>141</ele>
        <time>2014-04-27T07:50:12Z</time>
      </trkpt>
      <trkpt lat="45.07164" lon="0.61324">
        <ele>141</ele>
        <time>2014-04-27T07:50:13Z</time>
      </trkpt>
      <trkpt lat="45.07147" lon="0.61324">
        <ele>143</ele>
        <time>2014-04-27T07:50:24Z</time>
      </trkpt>
      <trkpt lat="45.07133" lon="0.61324">
        <ele>145</ele>
        <time>2014-04-27T07:50:34Z</time>
      </trkpt>
      <trkpt lat="45.07115" lon="0.61322">
        <ele>148</ele>
        <time>2014-04-27T07:50:47Z</time>
      </trkpt>
      <trkpt lat="45.07097" lon="0.6132">
        <ele>151</ele>
        <time>2014-04-27T07:50:59Z</time>
      </trkpt>
      <trkpt lat="45.07079" lon="0.61318">
        <ele>161</ele>
        <time>2014-04-27T07:51:12Z</time>
      </trkpt>
      <trkpt lat="45.07061" lon="0.61315">
        <ele>163</ele>
        <time>2014-04-27T07:51:24Z</time>
      </trkpt>
      <trkpt lat="45.07054" lon="0.61314">
        <ele>164</ele>
        <time>2014-04-27T07:51:28Z</time>
      </trkpt>
      <trkpt lat="45.07037" lon="0.61308">
        <ele>167</ele>
        <time>2014-04-27T07:51:41Z</time>
      </trkpt>
      <trkpt lat="45.07017" lon="0.613">
        <ele>169</ele>
        <time>2014-04-27T07:51:56Z</time>
      </trkpt>
      <trkpt lat="45.06997" lon="0.61291">
        <ele>182</ele>
        <time>2014-04-27T07:52:10Z</time>
      </trkpt>
      <trkpt lat="45.06982" lon="0.61287">
        <ele>183</ele>
        <time>2014-04-27T07:52:20Z</time>
      </trkpt>
      <trkpt lat="45.06963" lon="0.61279">
        <ele>185</ele>
        <time>2014-04-27T07:52:34Z</time>
      </trkpt>
      <trkpt lat="45.06947" lon="0.61269">
        <ele>187</ele>
        <time>2014-04-27T07:52:47Z</time>
      </trkpt>
      <trkpt lat="45.06932" lon="0.61248">
        <ele>189</ele>
        <time>2014-04-27T07:53:00Z</time>
      </trkpt>
      <trkpt lat="45.0692" lon="0.61224">
        <ele>189</ele>
        <time>2014-04-27T07:53:12Z</time>
      </trkpt>
      <trkpt lat="45.06913" lon="0.61195">
        <ele>200</ele>
        <time>2014-04-27T07:53:26Z</time>
      </trkpt>
      <trkpt lat="45.06912" lon="0.61167">
        <ele>198</ele>
        <time>2014-04-27T07:53:39Z</time>
      </trkpt>
      <trkpt lat="45.06914" lon="0.61162">
        <ele>199</ele>
        <time>2014-04-27T07:53:42Z</time>
      </trkpt>
      <trkpt lat="45.06916" lon="0.61152">
        <ele>201</ele>
        <time>2014-04-27T07:53:47Z</time>
      </trkpt>
      <trkpt lat="45.06922" lon="0.61136">
        <ele>196</ele>
        <time>2014-04-27T07:53:54Z</time>
      </trkpt>
      <trkpt lat="45.06924" lon="0.61124">
        <ele>197</ele>
        <time>2014-04-27T07:54:01Z</time>
      </trkpt>
      <trkpt lat="45.06919" lon="0.61124">
        <ele>197</ele>
        <time>2014-04-27T07:54:06Z</time>
      </trkpt>
      <trkpt lat="45.06902" lon="0.61127">
        <ele>205</ele>
        <time>2014-04-27T07:54:22Z</time>
      </trkpt>
      <trkpt lat="45.069" lon="0.61128">
        <ele>205</ele>
        <time>2014-04-27T07:54:24Z</time>
      </trkpt>
      <trkpt lat="45.06882" lon="0.6114">
        <ele>205</ele>
        <time>2014-04-27T07:54:39Z</time>
      </trkpt>
      <trkpt lat="45.06867" lon="0.61152">
        <ele>206</ele>
        <time>2014-04-27T07:54:51Z</time>
      </trkpt>
      <trkpt lat="45.06849" lon="0.61165">
        <ele>207</ele>
        <time>2014-04-27T07:55:02Z</time>
      </trkpt>
      <trkpt lat="45.06846" lon="0.61166">
        <ele>208</ele>
        <time>2014-04-27T07:55:03Z</time>
      </trkpt>
      <trkpt lat="45.06839" lon="0.61166">
        <ele>208</ele>
        <time>2014-04-27T07:55:06Z</time>
      </trkpt>
      <trkpt lat="45.06833" lon="0.6116">
        <ele>209</ele>
        <time>2014-04-27T07:55:10Z</time>
      </trkpt>
      <trkpt lat="45.06805" lon="0.61141">
        <ele>209</ele>
        <time>2014-04-27T07:55:24Z</time>
      </trkpt>
      <trkpt lat="45.06769" lon="0.61126">
        <ele>208</ele>
        <time>2014-04-27T07:55:38Z</time>
      </trkpt>
      <trkpt lat="45.06738" lon="0.61119">
        <ele>205</ele>
        <time>2014-04-27T07:55:45Z</time>
      </trkpt>
      <trkpt lat="45.06733" lon="0.61118">
        <ele>205</ele>
        <time>2014-04-27T07:55:46Z</time>
      </trkpt>
      <trkpt lat="45.06727" lon="0.61116">
        <ele>204</ele>
        <time>2014-04-27T07:55:47Z</time>
      </trkpt>
      <trkpt lat="45.0672" lon="0.61115">
        <ele>204</ele>
        <time>2014-04-27T07:55:48Z</time>
      </trkpt>
      <trkpt lat="45.067" lon="0.61111">
        <ele>203</ele>
        <time>2014-04-27T07:55:51Z</time>
      </trkpt>
      <trkpt lat="45.06694" lon="0.61111">
        <ele>203</ele>
        <time>2014-04-27T07:55:52Z</time>
      </trkpt>
      <trkpt lat="45.0669" lon="0.61111">
        <ele>202</ele>
        <time>2014-04-27T07:55:53Z</time>
      </trkpt>
      <trkpt lat="45.06685" lon="0.61109">
        <ele>202</ele>
        <time>2014-04-27T07:55:54Z</time>
      </trkpt>
      <trkpt lat="45.0668" lon="0.61104">
        <ele>201</ele>
        <time>2014-04-27T07:55:55Z</time>
      </trkpt>
      <trkpt lat="45.06675" lon="0.611">
        <ele>201</ele>
        <time>2014-04-27T07:55:56Z</time>
      </trkpt>
      <trkpt lat="45.06668" lon="0.61097">
        <ele>200</ele>
        <time>2014-04-27T07:55:57Z</time>
      </trkpt>
      <trkpt lat="45.06662" lon="0.61097">
        <ele>196</ele>
        <time>2014-04-27T07:55:58Z</time>
      </trkpt>
      <trkpt lat="45.06655" lon="0.61097">
        <ele>195</ele>
        <time>2014-04-27T07:55:59Z</time>
      </trkpt>
      <trkpt lat="45.06648" lon="0.61099">
        <ele>195</ele>
        <time>2014-04-27T07:56:00Z</time>
      </trkpt>
      <trkpt lat="45.0664" lon="0.61101">
        <ele>194</ele>
        <time>2014-04-27T07:56:01Z</time>
      </trkpt>
      <trkpt lat="45.06632" lon="0.61103">
        <ele>193</ele>
        <time>2014-04-27T07:56:02Z</time>
      </trkpt>
      <trkpt lat="45.06616" lon="0.61107">
        <ele>192</ele>
        <time>2014-04-27T07:56:04Z</time>
      </trkpt>
      <trkpt lat="45.0661" lon="0.6111">
        <ele>192</ele>
        <time>2014-04-27T07:56:05Z</time>
      </trkpt>
      <trkpt lat="45.06605" lon="0.61114">
        <ele>191</ele>
        <time>2014-04-27T07:56:06Z</time>
      </trkpt>
      <trkpt lat="45.06591" lon="0.61132">
        <ele>192</ele>
        <time>2014-04-27T07:56:10Z</time>
      </trkpt>
      <trkpt lat="45.0658" lon="0.6115">
        <ele>185</ele>
        <time>2014-04-27T07:56:14Z</time>
      </trkpt>
      <trkpt lat="45.06568" lon="0.61172">
        <ele>188</ele>
        <time>2014-04-27T07:56:18Z</time>
      </trkpt>
      <trkpt lat="45.06565" lon="0.61189">
        <ele>188</ele>
        <time>2014-04-27T07:56:20Z</time>
      </trkpt>
      <trkpt lat="45.06546" lon="0.61239">
        <ele>189</ele>
        <time>2014-04-27T07:56:26Z</time>
      </trkpt>
      <trkpt lat="45.06508" lon="0.61244">
        <ele>188</ele>
        <time>2014-04-27T07:56:31Z</time>
      </trkpt>
      <trkpt lat="45.06501" lon="0.6124">
        <ele>187</ele>
        <time>2014-04-27T07:56:32Z</time>
      </trkpt>
      <trkpt lat="45.06473" lon="0.61223">
        <ele>183</ele>
        <time>2014-04-27T07:56:36Z</time>
      </trkpt>
      <trkpt lat="45.06453" lon="0.6121">
        <ele>182</ele>
        <time>2014-04-27T07:56:39Z</time>
      </trkpt>
      <trkpt lat="45.06428" lon="0.61186">
        <ele>180</ele>
        <time>2014-04-27T07:56:43Z</time>
      </trkpt>
      <trkpt lat="45.06415" lon="0.61177">
        <ele>178</ele>
        <time>2014-04-27T07:56:45Z</time>
      </trkpt>
      <trkpt lat="45.06378" lon="0.61158">
        <ele>171</ele>
        <time>2014-04-27T07:56:50Z</time>
      </trkpt>
      <trkpt lat="45.06364" lon="0.61151">
        <ele>171</ele>
        <time>2014-04-27T07:56:52Z</time>
      </trkpt>
      <trkpt lat="45.06353" lon="0.61139">
        <ele>170</ele>
        <time>2014-04-27T07:56:54Z</time>
      </trkpt>
      <trkpt lat="45.06344" lon="0.61122">
        <ele>169</ele>
        <time>2014-04-27T07:56:56Z</time>
      </trkpt>
      <trkpt lat="45.06338" lon="0.61102">
        <ele>168</ele>
        <time>2014-04-27T07:56:58Z</time>
      </trkpt>
      <trkpt lat="45.06336" lon="0.61078">
        <ele>165</ele>
        <time>2014-04-27T07:57:00Z</time>
      </trkpt>
      <trkpt lat="45.06334" lon="0.61003">
        <ele>161</ele>
        <time>2014-04-27T07:57:06Z</time>
      </trkpt>
      <trkpt lat="45.06332" lon="0.60976">
        <ele>154</ele>
        <time>2014-04-27T07:57:08Z</time>
      </trkpt>
      <trkpt lat="45.06335" lon="0.60923">
        <ele>157</ele>
        <time>2014-04-27T07:57:12Z</time>
      </trkpt>
      <trkpt lat="45.06328" lon="0.60857">
        <ele>151</ele>
        <time>2014-04-27T07:57:18Z</time>
      </trkpt>
      <trkpt lat="45.06334" lon="0.60816">
        <ele>154</ele>
        <time>2014-04-27T07:57:22Z</time>
      </trkpt>
      <trkpt lat="45.06345" lon="0.60787">
        <ele>152</ele>
        <time>2014-04-27T07:57:25Z</time>
      </trkpt>
      <trkpt lat="45.06356" lon="0.6074">
        <ele>147</ele>
        <time>2014-04-27T07:57:29Z</time>
      </trkpt>
      <trkpt lat="45.06362" lon="0.60712">
        <ele>145</ele>
        <time>2014-04-27T07:57:31Z</time>
      </trkpt>
      <trkpt lat="45.06365" lon="0.60654">
        <ele>138</ele>
        <time>2014-04-27T07:57:35Z</time>
      </trkpt>
      <trkpt lat="45.06366" lon="0.60612">
        <ele>136</ele>
        <time>2014-04-27T07:57:38Z</time>
      </trkpt>
      <trkpt lat="45.06359" lon="0.60574">
        <ele>131</ele>
        <time>2014-04-27T07:57:41Z</time>
      </trkpt>
      <trkpt lat="45.06351" lon="0.60548">
        <ele>130</ele>
        <time>2014-04-27T07:57:43Z</time>
      </trkpt>
      <trkpt lat="45.06347" lon="0.60503">
        <ele>127</ele>
        <time>2014-04-27T07:57:47Z</time>
      </trkpt>
      <trkpt lat="45.0635" lon="0.60464">
        <ele>123</ele>
        <time>2014-04-27T07:57:50Z</time>
      </trkpt>
      <trkpt lat="45.06348" lon="0.60413">
        <ele>117</ele>
        <time>2014-04-27T07:57:54Z</time>
      </trkpt>
      <trkpt lat="45.06331" lon="0.60359">
        <ele>115</ele>
        <time>2014-04-27T07:57:59Z</time>
      </trkpt>
      <trkpt lat="45.06306" lon="0.60294">
        <ele>117</ele>
        <time>2014-04-27T07:58:07Z</time>
      </trkpt>
      <trkpt lat="45.06306" lon="0.60287">
        <ele>117</ele>
        <time>2014-04-27T07:58:08Z</time>
      </trkpt>
      <trkpt lat="45.06308" lon="0.60281">
        <ele>117</ele>
        <time>2014-04-27T07:58:09Z</time>
      </trkpt>
      <trkpt lat="45.06312" lon="0.60276">
        <ele>117</ele>
        <time>2014-04-27T07:58:10Z</time>
      </trkpt>
      <trkpt lat="45.06316" lon="0.60271">
        <ele>117</ele>
        <time>2014-04-27T07:58:11Z</time>
      </trkpt>
      <trkpt lat="45.0632" lon="0.60265">
        <ele>116</ele>
        <time>2014-04-27T07:58:12Z</time>
      </trkpt>
      <trkpt lat="45.06324" lon="0.6026">
        <ele>116</ele>
        <time>2014-04-27T07:58:13Z</time>
      </trkpt>
      <trkpt lat="45.06353" lon="0.60218">
        <ele>115</ele>
        <time>2014-04-27T07:58:20Z</time>
      </trkpt>
      <trkpt lat="45.06395" lon="0.60116">
        <ele>115</ele>
        <time>2014-04-27T07:58:35Z</time>
      </trkpt>
      <trkpt lat="45.06409" lon="0.6009">
        <ele>115</ele>
        <time>2014-04-27T07:58:42Z</time>
      </trkpt>
      <trkpt lat="45.06408" lon="0.60086">
        <ele>114</ele>
        <time>2014-04-27T07:58:43Z</time>
      </trkpt>
      <trkpt lat="45.06405" lon="0.6008">
        <ele>115</ele>
        <time>2014-04-27T07:58:45Z</time>
      </trkpt>
      <trkpt lat="45.06353" lon="0.60035">
        <ele>118</ele>
        <time>2014-04-27T07:59:03Z</time>
      </trkpt>
      <trkpt lat="45.06312" lon="0.59993">
        <ele>122</ele>
        <time>2014-04-27T07:59:19Z</time>
      </trkpt>
      <trkpt lat="45.06284" lon="0.59966">
        <ele>122</ele>
        <time>2014-04-27T07:59:30Z</time>
      </trkpt>
      <trkpt lat="45.06248" lon="0.59926">
        <ele>124</ele>
        <time>2014-04-27T07:59:45Z</time>
      </trkpt>
      <trkpt lat="45.06213" lon="0.59895">
        <ele>126</ele>
        <time>2014-04-27T07:59:59Z</time>
      </trkpt>
      <trkpt lat="45.06161" lon="0.59897">
        <ele>129</ele>
        <time>2014-04-27T08:00:12Z</time>
      </trkpt>
      <trkpt lat="45.0612" lon="0.59899">
        <ele>131</ele>
        <time>2014-04-27T08:00:21Z</time>
      </trkpt>
      <trkpt lat="45.06106" lon="0.59898">
        <ele>131</ele>
        <time>2014-04-27T08:00:24Z</time>
      </trkpt>
      <trkpt lat="45.06101" lon="0.59898">
        <ele>131</ele>
        <time>2014-04-27T08:00:25Z</time>
      </trkpt>
      <trkpt lat="45.06091" lon="0.59895">
        <ele>132</ele>
        <time>2014-04-27T08:00:27Z</time>
      </trkpt>
      <trkpt lat="45.06063" lon="0.59879">
        <ele>135</ele>
        <time>2014-04-27T08:00:33Z</time>
      </trkpt>
      <trkpt lat="45.06059" lon="0.59877">
        <ele>135</ele>
        <time>2014-04-27T08:00:34Z</time>
      </trkpt>
      <trkpt lat="45.06056" lon="0.59875">
        <ele>135</ele>
        <time>2014-04-27T08:00:35Z</time>
      </trkpt>
      <trkpt lat="45.06033" lon="0.59855">
        <ele>136</ele>
        <time>2014-04-27T08:00:41Z</time>
      </trkpt>
      <trkpt lat="45.06029" lon="0.59852">
        <ele>136</ele>
        <time>2014-04-27T08:00:42Z</time>
      </trkpt>
      <trkpt lat="45.06" lon="0.59831">
        <ele>137</ele>
        <time>2014-04-27T08:00:49Z</time>
      </trkpt>
      <trkpt lat="45.05982" lon="0.59823">
        <ele>140</ele>
        <time>2014-04-27T08:00:53Z</time>
      </trkpt>
      <trkpt lat="45.05934" lon="0.59813">
        <ele>140</ele>
        <time>2014-04-27T08:01:06Z</time>
      </trkpt>
      <trkpt lat="45.05892" lon="0.59809">
        <ele>139</ele>
        <time>2014-04-27T08:01:19Z</time>
      </trkpt>
      <trkpt lat="45.05853" lon="0.59782">
        <ele>139</ele>
        <time>2014-04-27T08:01:31Z</time>
      </trkpt>
      <trkpt lat="45.05814" lon="0.5977">
        <ele>139</ele>
        <time>2014-04-27T08:01:42Z</time>
      </trkpt>
      <trkpt lat="45.05788" lon="0.59789">
        <ele>140</ele>
        <time>2014-04-27T08:01:51Z</time>
      </trkpt>
      <trkpt lat="45.05746" lon="0.59787">
        <ele>144</ele>
        <time>2014-04-27T08:02:02Z</time>
      </trkpt>
      <trkpt lat="45.05731" lon="0.59781">
        <ele>144</ele>
        <time>2014-04-27T08:02:06Z</time>
      </trkpt>
      <trkpt lat="45.05713" lon="0.59762">
        <ele>144</ele>
        <time>2014-04-27T08:02:11Z</time>
      </trkpt>
      <trkpt lat="45.05679" lon="0.59737">
        <ele>145</ele>
        <time>2014-04-27T08:02:22Z</time>
      </trkpt>
      <trkpt lat="45.05641" lon="0.59708">
        <ele>149</ele>
        <time>2014-04-27T08:02:33Z</time>
      </trkpt>
      <trkpt lat="45.05596" lon="0.59669">
        <ele>150</ele>
        <time>2014-04-27T08:02:46Z</time>
      </trkpt>
      <trkpt lat="45.05557" lon="0.5964">
        <ele>155</ele>
        <time>2014-04-27T08:02:58Z</time>
      </trkpt>
      <trkpt lat="45.05514" lon="0.5962">
        <ele>157</ele>
        <time>2014-04-27T08:03:09Z</time>
      </trkpt>
      <trkpt lat="45.05495" lon="0.59613">
        <ele>158</ele>
        <time>2014-04-27T08:03:15Z</time>
      </trkpt>
      <trkpt lat="45.05488" lon="0.59589">
        <ele>159</ele>
        <time>2014-04-27T08:03:24Z</time>
      </trkpt>
      <trkpt lat="45.05482" lon="0.59587">
        <ele>159</ele>
        <time>2014-04-27T08:03:27Z</time>
      </trkpt>
      <trkpt lat="45.05442" lon="0.59593">
        <ele>160</ele>
        <time>2014-04-27T08:03:40Z</time>
      </trkpt>
      <trkpt lat="45.05412" lon="0.59608">
        <ele>162</ele>
        <time>2014-04-27T08:03:51Z</time>
      </trkpt>
      <trkpt lat="45.05354" lon="0.59642">
        <ele>160</ele>
        <time>2014-04-27T08:04:06Z</time>
      </trkpt>
      <trkpt lat="45.05339" lon="0.59645">
        <ele>160</ele>
        <time>2014-04-27T08:04:10Z</time>
      </trkpt>
      <trkpt lat="45.05318" lon="0.59677">
        <ele>161</ele>
        <time>2014-04-27T08:04:19Z</time>
      </trkpt>
      <trkpt lat="45.05295" lon="0.59684">
        <ele>162</ele>
        <time>2014-04-27T08:04:30Z</time>
      </trkpt>
      <trkpt lat="45.05282" lon="0.59685">
        <ele>163</ele>
        <time>2014-04-27T08:04:37Z</time>
      </trkpt>
      <trkpt lat="45.05267" lon="0.59686">
        <ele>162</ele>
        <time>2014-04-27T08:04:48Z</time>
      </trkpt>
      <trkpt lat="45.05248" lon="0.59682">
        <ele>163</ele>
        <time>2014-04-27T08:05:00Z</time>
      </trkpt>
      <trkpt lat="45.05233" lon="0.59679">
        <ele>164</ele>
        <time>2014-04-27T08:05:11Z</time>
      </trkpt>
      <trkpt lat="45.05215" lon="0.59684">
        <ele>166</ele>
        <time>2014-04-27T08:05:25Z</time>
      </trkpt>
      <trkpt lat="45.05206" lon="0.59691">
        <ele>167</ele>
        <time>2014-04-27T08:05:33Z</time>
      </trkpt>
      <trkpt lat="45.05185" lon="0.59706">
        <ele>168</ele>
        <time>2014-04-27T08:05:49Z</time>
      </trkpt>
      <trkpt lat="45.0517" lon="0.59718">
        <ele>170</ele>
        <time>2014-04-27T08:06:00Z</time>
      </trkpt>
      <trkpt lat="45.05163" lon="0.59721">
        <ele>173</ele>
        <time>2014-04-27T08:06:04Z</time>
      </trkpt>
      <trkpt lat="45.05142" lon="0.59738">
        <ele>174</ele>
        <time>2014-04-27T08:06:18Z</time>
      </trkpt>
      <trkpt lat="45.05127" lon="0.59752">
        <ele>181</ele>
        <time>2014-04-27T08:06:29Z</time>
      </trkpt>
      <trkpt lat="45.05113" lon="0.5976">
        <ele>181</ele>
        <time>2014-04-27T08:06:37Z</time>
      </trkpt>
      <trkpt lat="45.05078" lon="0.59764">
        <ele>180</ele>
        <time>2014-04-27T08:06:53Z</time>
      </trkpt>
      <trkpt lat="45.05029" lon="0.59776">
        <ele>181</ele>
        <time>2014-04-27T08:07:10Z</time>
      </trkpt>
      <trkpt lat="45.04985" lon="0.5979">
        <ele>181</ele>
        <time>2014-04-27T08:07:26Z</time>
      </trkpt>
      <trkpt lat="45.04934" lon="0.59822">
        <ele>183</ele>
        <time>2014-04-27T08:07:42Z</time>
      </trkpt>
      <trkpt lat="45.04892" lon="0.59851">
        <ele>186</ele>
        <time>2014-04-27T08:07:57Z</time>
      </trkpt>
      <trkpt lat="45.04873" lon="0.5987">
        <ele>186</ele>
        <time>2014-04-27T08:08:06Z</time>
      </trkpt>
      <trkpt lat="45.04872" lon="0.59874">
        <ele>186</ele>
        <time>2014-04-27T08:08:08Z</time>
      </trkpt>
      <trkpt lat="45.0487" lon="0.59874">
        <ele>186</ele>
        <time>2014-04-27T08:08:09Z</time>
      </trkpt>
      <trkpt lat="45.04869" lon="0.59873">
        <ele>186</ele>
        <time>2014-04-27T08:08:10Z</time>
      </trkpt>
      <trkpt lat="45.04869" lon="0.59871">
        <ele>186</ele>
        <time>2014-04-27T08:08:11Z</time>
      </trkpt>
      <trkpt lat="45.0487" lon="0.59869">
        <ele>186</ele>
        <time>2014-04-27T08:08:12Z</time>
      </trkpt>
      <trkpt lat="45.04872" lon="0.59867">
        <ele>186</ele>
        <time>2014-04-27T08:08:13Z</time>
      </trkpt>
      <trkpt lat="45.04875" lon="0.59865">
        <ele>186</ele>
        <time>2014-04-27T08:08:14Z</time>
      </trkpt>
      <trkpt lat="45.04878" lon="0.59863">
        <ele>186</ele>
        <time>2014-04-27T08:08:15Z</time>
      </trkpt>
      <trkpt lat="45.04881" lon="0.59861">
        <ele>186</ele>
        <time>2014-04-27T08:08:16Z</time>
      </trkpt>
      <trkpt lat="45.04884" lon="0.59858">
        <ele>186</ele>
        <time>2014-04-27T08:08:17Z</time>
      </trkpt>
      <trkpt lat="45.04946" lon="0.59812">
        <ele>182</ele>
        <time>2014-04-27T08:08:32Z</time>
      </trkpt>
      <trkpt lat="45.05012" lon="0.59778">
        <ele>180</ele>
        <time>2014-04-27T08:08:44Z</time>
      </trkpt>
      <trkpt lat="45.05071" lon="0.59767">
        <ele>181</ele>
        <time>2014-04-27T08:08:54Z</time>
      </trkpt>
      <trkpt lat="45.05095" lon="0.59764">
        <ele>181</ele>
        <time>2014-04-27T08:08:58Z</time>
      </trkpt>
      <trkpt lat="45.05123" lon="0.59753">
        <ele>181</ele>
        <time>2014-04-27T08:09:03Z</time>
      </trkpt>
      <trkpt lat="45.05135" lon="0.59741">
        <ele>174</ele>
        <time>2014-04-27T08:09:05Z</time>
      </trkpt>
      <trkpt lat="45.05155" lon="0.59727">
        <ele>174</ele>
        <time>2014-04-27T08:09:08Z</time>
      </trkpt>
      <trkpt lat="45.05178" lon="0.59708">
        <ele>169</ele>
        <time>2014-04-27T08:09:12Z</time>
      </trkpt>
      <trkpt lat="45.05192" lon="0.59698">
        <ele>168</ele>
        <time>2014-04-27T08:09:14Z</time>
      </trkpt>
      <trkpt lat="45.05206" lon="0.59688">
        <ele>166</ele>
        <time>2014-04-27T08:09:16Z</time>
      </trkpt>
      <trkpt lat="45.05224" lon="0.59682">
        <ele>165</ele>
        <time>2014-04-27T08:09:19Z</time>
      </trkpt>
      <trkpt lat="45.05243" lon="0.59687">
        <ele>164</ele>
        <time>2014-04-27T08:09:22Z</time>
      </trkpt>
      <trkpt lat="45.05265" lon="0.59689">
        <ele>163</ele>
        <time>2014-04-27T08:09:25Z</time>
      </trkpt>
      <trkpt lat="45.0528" lon="0.59689">
        <ele>163</ele>
        <time>2014-04-27T08:09:27Z</time>
      </trkpt>
      <trkpt lat="45.05328" lon="0.59648">
        <ele>159</ele>
        <time>2014-04-27T08:09:35Z</time>
      </trkpt>
      <trkpt lat="45.05334" lon="0.59646">
        <ele>160</ele>
        <time>2014-04-27T08:09:36Z</time>
      </trkpt>
      <trkpt lat="45.05345" lon="0.59644">
        <ele>160</ele>
        <time>2014-04-27T08:09:38Z</time>
      </trkpt>
      <trkpt lat="45.0541" lon="0.59606">
        <ele>162</ele>
        <time>2014-04-27T08:09:50Z</time>
      </trkpt>
      <trkpt lat="45.0544" lon="0.59582">
        <ele>165</ele>
        <time>2014-04-27T08:10:01Z</time>
      </trkpt>
      <trkpt lat="45.05453" lon="0.59564">
        <ele>166</ele>
        <time>2014-04-27T08:10:10Z</time>
      </trkpt>
      <trkpt lat="45.05469" lon="0.59543">
        <ele>167</ele>
        <time>2014-04-27T08:10:22Z</time>
      </trkpt>
      <trkpt lat="45.0548" lon="0.59514">
        <ele>168</ele>
        <time>2014-04-27T08:10:36Z</time>
      </trkpt>
      <trkpt lat="45.05485" lon="0.59493">
        <ele>173</ele>
        <time>2014-04-27T08:10:47Z</time>
      </trkpt>
      <trkpt lat="45.05496" lon="0.59472">
        <ele>175</ele>
        <time>2014-04-27T08:11:01Z</time>
      </trkpt>
      <trkpt lat="45.05505" lon="0.59465">
        <ele>175</ele>
        <time>2014-04-27T08:11:08Z</time>
      </trkpt>
      <trkpt lat="45.05524" lon="0.59444">
        <ele>176</ele>
        <time>2014-04-27T08:11:22Z</time>
      </trkpt>
      <trkpt lat="45.05551" lon="0.59415">
        <ele>180</ele>
        <time>2014-04-27T08:11:39Z</time>
      </trkpt>
      <trkpt lat="45.0557" lon="0.59395">
        <ele>180</ele>
        <time>2014-04-27T08:11:52Z</time>
      </trkpt>
      <trkpt lat="45.05594" lon="0.59376">
        <ele>180</ele>
        <time>2014-04-27T08:12:06Z</time>
      </trkpt>
      <trkpt lat="45.05597" lon="0.59351">
        <ele>180</ele>
        <time>2014-04-27T08:12:16Z</time>
      </trkpt>
      <trkpt lat="45.05598" lon="0.59347">
        <ele>181</ele>
        <time>2014-04-27T08:12:17Z</time>
      </trkpt>
      <trkpt lat="45.056" lon="0.59343">
        <ele>181</ele>
        <time>2014-04-27T08:12:18Z</time>
      </trkpt>
      <trkpt lat="45.05603" lon="0.5934">
        <ele>181</ele>
        <time>2014-04-27T08:12:19Z</time>
      </trkpt>
      <trkpt lat="45.05606" lon="0.59336">
        <ele>180</ele>
        <time>2014-04-27T08:12:20Z</time>
      </trkpt>
      <trkpt lat="45.05633" lon="0.59312">
        <ele>180</ele>
        <time>2014-04-27T08:12:26Z</time>
      </trkpt>
      <trkpt lat="45.0564" lon="0.59309">
        <ele>180</ele>
        <time>2014-04-27T08:12:27Z</time>
      </trkpt>
      <trkpt lat="45.05654" lon="0.59302">
        <ele>180</ele>
        <time>2014-04-27T08:12:29Z</time>
      </trkpt>
      <trkpt lat="45.05684" lon="0.59283">
        <ele>174</ele>
        <time>2014-04-27T08:12:33Z</time>
      </trkpt>
      <trkpt lat="45.05716" lon="0.59263">
        <ele>172</ele>
        <time>2014-04-27T08:12:37Z</time>
      </trkpt>
      <trkpt lat="45.0573" lon="0.59255">
        <ele>171</ele>
        <time>2014-04-27T08:12:39Z</time>
      </trkpt>
      <trkpt lat="45.05758" lon="0.59236">
        <ele>165</ele>
        <time>2014-04-27T08:12:43Z</time>
      </trkpt>
      <trkpt lat="45.05765" lon="0.59229">
        <ele>164</ele>
        <time>2014-04-27T08:12:44Z</time>
      </trkpt>
      <trkpt lat="45.05778" lon="0.59213">
        <ele>163</ele>
        <time>2014-04-27T08:12:46Z</time>
      </trkpt>
      <trkpt lat="45.05794" lon="0.59179">
        <ele>162</ele>
        <time>2014-04-27T08:12:50Z</time>
      </trkpt>
      <trkpt lat="45.05798" lon="0.5915">
        <ele>160</ele>
        <time>2014-04-27T08:12:54Z</time>
      </trkpt>
      <trkpt lat="45.05801" lon="0.59129">
        <ele>159</ele>
        <time>2014-04-27T08:12:57Z</time>
      </trkpt>
      <trkpt lat="45.05804" lon="0.59113">
        <ele>158</ele>
        <time>2014-04-27T08:12:59Z</time>
      </trkpt>
      <trkpt lat="45.05806" lon="0.59104">
        <ele>158</ele>
        <time>2014-04-27T08:13:00Z</time>
      </trkpt>
      <trkpt lat="45.05805" lon="0.59065">
        <ele>156</ele>
        <time>2014-04-27T08:13:04Z</time>
      </trkpt>
      <trkpt lat="45.05792" lon="0.59021">
        <ele>156</ele>
        <time>2014-04-27T08:13:09Z</time>
      </trkpt>
      <trkpt lat="45.05776" lon="0.58997">
        <ele>158</ele>
        <time>2014-04-27T08:13:13Z</time>
      </trkpt>
      <trkpt lat="45.05765" lon="0.58983">
        <ele>159</ele>
        <time>2014-04-27T08:13:16Z</time>
      </trkpt>
      <trkpt lat="45.0577" lon="0.58955">
        <ele>159</ele>
        <time>2014-04-27T08:13:23Z</time>
      </trkpt>
      <trkpt lat="45.05814" lon="0.58953">
        <ele>157</ele>
        <time>2014-04-27T08:13:35Z</time>
      </trkpt>
      <trkpt lat="45.05824" lon="0.58956">
        <ele>157</ele>
        <time>2014-04-27T08:13:39Z</time>
      </trkpt>
      <trkpt lat="45.05855" lon="0.58966">
        <ele>154</ele>
        <time>2014-04-27T08:13:53Z</time>
      </trkpt>
      <trkpt lat="45.05889" lon="0.58951">
        <ele>154</ele>
        <time>2014-04-27T08:14:07Z</time>
      </trkpt>
      <trkpt lat="45.059" lon="0.5894">
        <ele>155</ele>
        <time>2014-04-27T08:14:11Z</time>
      </trkpt>
      <trkpt lat="45.05903" lon="0.5894">
        <ele>155</ele>
        <time>2014-04-27T08:14:12Z</time>
      </trkpt>
      <trkpt lat="45.05955" lon="0.58979">
        <ele>155</ele>
        <time>2014-04-27T08:14:25Z</time>
      </trkpt>
      <trkpt lat="45.05977" lon="0.58996">
        <ele>156</ele>
        <time>2014-04-27T08:14:30Z</time>
      </trkpt>
      <trkpt lat="45.05982" lon="0.58999">
        <ele>156</ele>
        <time>2014-04-27T08:14:31Z</time>
      </trkpt>
      <trkpt lat="45.06016" lon="0.59013">
        <ele>153</ele>
        <time>2014-04-27T08:14:38Z</time>
      </trkpt>
      <trkpt lat="45.06021" lon="0.59013">
        <ele>152</ele>
        <time>2014-04-27T08:14:39Z</time>
      </trkpt>
      <trkpt lat="45.06026" lon="0.59013">
        <ele>152</ele>
        <time>2014-04-27T08:14:40Z</time>
      </trkpt>
      <trkpt lat="45.06035" lon="0.59012">
        <ele>152</ele>
        <time>2014-04-27T08:14:42Z</time>
      </trkpt>
      <trkpt lat="45.06071" lon="0.59012">
        <ele>153</ele>
        <time>2014-04-27T08:14:52Z</time>
      </trkpt>
      <trkpt lat="45.06083" lon="0.59023">
        <ele>152</ele>
        <time>2014-04-27T08:14:55Z</time>
      </trkpt>
      <trkpt lat="45.06088" lon="0.59026">
        <ele>149</ele>
        <time>2014-04-27T08:14:56Z</time>
      </trkpt>
      <trkpt lat="45.06094" lon="0.5903">
        <ele>148</ele>
        <time>2014-04-27T08:14:57Z</time>
      </trkpt>
      <trkpt lat="45.06101" lon="0.59033">
        <ele>148</ele>
        <time>2014-04-27T08:14:58Z</time>
      </trkpt>
      <trkpt lat="45.06109" lon="0.59035">
        <ele>147</ele>
        <time>2014-04-27T08:14:59Z</time>
      </trkpt>
      <trkpt lat="45.06134" lon="0.59045">
        <ele>146</ele>
        <time>2014-04-27T08:15:02Z</time>
      </trkpt>
      <trkpt lat="45.06161" lon="0.59048">
        <ele>145</ele>
        <time>2014-04-27T08:15:05Z</time>
      </trkpt>
      <trkpt lat="45.0617" lon="0.59046">
        <ele>140</ele>
        <time>2014-04-27T08:15:06Z</time>
      </trkpt>
      <trkpt lat="45.06178" lon="0.59042">
        <ele>140</ele>
        <time>2014-04-27T08:15:07Z</time>
      </trkpt>
      <trkpt lat="45.06186" lon="0.59037">
        <ele>140</ele>
        <time>2014-04-27T08:15:08Z</time>
      </trkpt>
      <trkpt lat="45.06193" lon="0.59031">
        <ele>140</ele>
        <time>2014-04-27T08:15:09Z</time>
      </trkpt>
      <trkpt lat="45.06208" lon="0.59016">
        <ele>140</ele>
        <time>2014-04-27T08:15:11Z</time>
      </trkpt>
      <trkpt lat="45.06214" lon="0.59008">
        <ele>139</ele>
        <time>2014-04-27T08:15:12Z</time>
      </trkpt>
      <trkpt lat="45.0622" lon="0.58998">
        <ele>141</ele>
        <time>2014-04-27T08:15:13Z</time>
      </trkpt>
      <trkpt lat="45.06235" lon="0.5897">
        <ele>140</ele>
        <time>2014-04-27T08:15:16Z</time>
      </trkpt>
      <trkpt lat="45.06238" lon="0.58962">
        <ele>140</ele>
        <time>2014-04-27T08:15:17Z</time>
      </trkpt>
      <trkpt lat="45.06241" lon="0.58953">
        <ele>140</ele>
        <time>2014-04-27T08:15:18Z</time>
      </trkpt>
      <trkpt lat="45.06247" lon="0.58918">
        <ele>138</ele>
        <time>2014-04-27T08:15:22Z</time>
      </trkpt>
      <trkpt lat="45.0626" lon="0.58881">
        <ele>131</ele>
        <time>2014-04-27T08:15:26Z</time>
      </trkpt>
      <trkpt lat="45.06275" lon="0.58859">
        <ele>129</ele>
        <time>2014-04-27T08:15:29Z</time>
      </trkpt>
      <trkpt lat="45.0628" lon="0.58858">
        <ele>129</ele>
        <time>2014-04-27T08:15:30Z</time>
      </trkpt>
      <trkpt lat="45.06305" lon="0.58858">
        <ele>127</ele>
        <time>2014-04-27T08:15:34Z</time>
      </trkpt>
      <trkpt lat="45.06337" lon="0.58839">
        <ele>122</ele>
        <time>2014-04-27T08:15:39Z</time>
      </trkpt>
      <trkpt lat="45.06365" lon="0.58823">
        <ele>123</ele>
        <time>2014-04-27T08:15:44Z</time>
      </trkpt>
      <trkpt lat="45.06434" lon="0.5886">
        <ele>116</ele>
        <time>2014-04-27T08:15:56Z</time>
      </trkpt>
      <trkpt lat="45.0644" lon="0.58861">
        <ele>116</ele>
        <time>2014-04-27T08:15:57Z</time>
      </trkpt>
      <trkpt lat="45.06446" lon="0.58862">
        <ele>116</ele>
        <time>2014-04-27T08:15:58Z</time>
      </trkpt>
      <trkpt lat="45.06452" lon="0.58862">
        <ele>116</ele>
        <time>2014-04-27T08:15:59Z</time>
      </trkpt>
      <trkpt lat="45.06457" lon="0.58862">
        <ele>116</ele>
        <time>2014-04-27T08:16:00Z</time>
      </trkpt>
      <trkpt lat="45.06482" lon="0.58861">
        <ele>115</ele>
        <time>2014-04-27T08:16:05Z</time>
      </trkpt>
      <trkpt lat="45.06487" lon="0.58862">
        <ele>115</ele>
        <time>2014-04-27T08:16:06Z</time>
      </trkpt>
      <trkpt lat="45.06493" lon="0.58863">
        <ele>115</ele>
        <time>2014-04-27T08:16:07Z</time>
      </trkpt>
      <trkpt lat="45.06499" lon="0.58863">
        <ele>115</ele>
        <time>2014-04-27T08:16:08Z</time>
      </trkpt>
      <trkpt lat="45.06505" lon="0.58864">
        <ele>114</ele>
        <time>2014-04-27T08:16:09Z</time>
      </trkpt>
      <trkpt lat="45.06511" lon="0.58864">
        <ele>114</ele>
        <time>2014-04-27T08:16:10Z</time>
      </trkpt>
      <trkpt lat="45.06571" lon="0.58858">
        <ele>113</ele>
        <time>2014-04-27T08:16:22Z</time>
      </trkpt>
      <trkpt lat="45.06598" lon="0.58859">
        <ele>111</ele>
        <time>2014-04-27T08:16:27Z</time>
      </trkpt>
      <trkpt lat="45.06603" lon="0.5886">
        <ele>111</ele>
        <time>2014-04-27T08:16:28Z</time>
      </trkpt>
      <trkpt lat="45.06607" lon="0.58861">
        <ele>110</ele>
        <time>2014-04-27T08:16:29Z</time>
      </trkpt>
      <trkpt lat="45.06611" lon="0.58859">
        <ele>110</ele>
        <time>2014-04-27T08:16:30Z</time>
      </trkpt>
      <trkpt lat="45.06614" lon="0.58856">
        <ele>110</ele>
        <time>2014-04-27T08:16:31Z</time>
      </trkpt>
      <trkpt lat="45.06617" lon="0.58854">
        <ele>110</ele>
        <time>2014-04-27T08:16:32Z</time>
      </trkpt>
      <trkpt lat="45.06619" lon="0.58851">
        <ele>110</ele>
        <time>2014-04-27T08:16:33Z</time>
      </trkpt>
      <trkpt lat="45.06643" lon="0.58807">
        <ele>112</ele>
        <time>2014-04-27T08:16:45Z</time>
      </trkpt>
      <trkpt lat="45.0669" lon="0.58756">
        <ele>110</ele>
        <time>2014-04-27T08:17:00Z</time>
      </trkpt>
      <trkpt lat="45.06735" lon="0.58699">
        <ele>112</ele>
        <time>2014-04-27T08:17:14Z</time>
      </trkpt>
      <trkpt lat="45.06788" lon="0.58644">
        <ele>113</ele>
        <time>2014-04-27T08:17:31Z</time>
      </trkpt>
      <trkpt lat="45.06794" lon="0.58638">
        <ele>113</ele>
        <time>2014-04-27T08:17:33Z</time>
      </trkpt>
      <trkpt lat="45.06797" lon="0.58635">
        <ele>113</ele>
        <time>2014-04-27T08:17:34Z</time>
      </trkpt>
      <trkpt lat="45.06818" lon="0.58609">
        <ele>114</ele>
        <time>2014-04-27T08:17:41Z</time>
      </trkpt>
      <trkpt lat="45.06821" lon="0.58606">
        <ele>114</ele>
        <time>2014-04-27T08:17:42Z</time>
      </trkpt>
      <trkpt lat="45.06864" lon="0.58536">
        <ele>113</ele>
        <time>2014-04-27T08:17:56Z</time>
      </trkpt>
      <trkpt lat="45.06867" lon="0.58529">
        <ele>113</ele>
        <time>2014-04-27T08:17:57Z</time>
      </trkpt>
      <trkpt lat="45.0688" lon="0.58494">
        <ele>112</ele>
        <time>2014-04-27T08:18:02Z</time>
      </trkpt>
      <trkpt lat="45.06893" lon="0.58419">
        <ele>111</ele>
        <time>2014-04-27T08:18:10Z</time>
      </trkpt>
      <trkpt lat="45.06894" lon="0.58409">
        <ele>111</ele>
        <time>2014-04-27T08:18:11Z</time>
      </trkpt>
      <trkpt lat="45.06894" lon="0.58399">
        <ele>111</ele>
        <time>2014-04-27T08:18:12Z</time>
      </trkpt>
      <trkpt lat="45.06893" lon="0.58331">
        <ele>113</ele>
        <time>2014-04-27T08:18:21Z</time>
      </trkpt>
      <trkpt lat="45.06879" lon="0.58241">
        <ele>118</ele>
        <time>2014-04-27T08:18:36Z</time>
      </trkpt>
      <trkpt lat="45.06865" lon="0.58192">
        <ele>120</ele>
        <time>2014-04-27T08:18:48Z</time>
      </trkpt>
      <trkpt lat="45.06861" lon="0.58142">
        <ele>122</ele>
        <time>2014-04-27T08:19:00Z</time>
      </trkpt>
      <trkpt lat="45.06854" lon="0.58068">
        <ele>124</ele>
        <time>2014-04-27T08:19:16Z</time>
      </trkpt>
      <trkpt lat="45.0684" lon="0.57998">
        <ele>127</ele>
        <time>2014-04-27T08:19:31Z</time>
      </trkpt>
      <trkpt lat="45.06835" lon="0.57935">
        <ele>127</ele>
        <time>2014-04-27T08:19:46Z</time>
      </trkpt>
      <trkpt lat="45.06843" lon="0.57878">
        <ele>127</ele>
        <time>2014-04-27T08:19:57Z</time>
      </trkpt>
      <trkpt lat="45.06845" lon="0.57862">
        <ele>127</ele>
        <time>2014-04-27T08:19:59Z</time>
      </trkpt>
      <trkpt lat="45.06849" lon="0.57825">
        <ele>127</ele>
        <time>2014-04-27T08:20:03Z</time>
      </trkpt>
      <trkpt lat="45.06852" lon="0.57802">
        <ele>127</ele>
        <time>2014-04-27T08:20:05Z</time>
      </trkpt>
      <trkpt lat="45.0687" lon="0.57758">
        <ele>127</ele>
        <time>2014-04-27T08:20:10Z</time>
      </trkpt>
      <trkpt lat="45.06878" lon="0.57749">
        <ele>128</ele>
        <time>2014-04-27T08:20:12Z</time>
      </trkpt>
      <trkpt lat="45.06881" lon="0.577">
        <ele>129</ele>
        <time>2014-04-27T08:20:22Z</time>
      </trkpt>
      <trkpt lat="45.06876" lon="0.57685">
        <ele>130</ele>
        <time>2014-04-27T08:20:25Z</time>
      </trkpt>
      <trkpt lat="45.06867" lon="0.57661">
        <ele>133</ele>
        <time>2014-04-27T08:20:29Z</time>
      </trkpt>
      <trkpt lat="45.06872" lon="0.57623">
        <ele>133</ele>
        <time>2014-04-27T08:20:34Z</time>
      </trkpt>
      <trkpt lat="45.06881" lon="0.57619">
        <ele>133</ele>
        <time>2014-04-27T08:20:36Z</time>
      </trkpt>
      <trkpt lat="45.069" lon="0.57597">
        <ele>132</ele>
        <time>2014-04-27T08:20:42Z</time>
      </trkpt>
      <trkpt lat="45.06916" lon="0.57557">
        <ele>135</ele>
        <time>2014-04-27T08:20:51Z</time>
      </trkpt>
      <trkpt lat="45.06922" lon="0.57515">
        <ele>139</ele>
        <time>2014-04-27T08:21:03Z</time>
      </trkpt>
      <trkpt lat="45.06909" lon="0.57486">
        <ele>140</ele>
        <time>2014-04-27T08:21:14Z</time>
      </trkpt>
      <trkpt lat="45.06887" lon="0.57452">
        <ele>142</ele>
        <time>2014-04-27T08:21:27Z</time>
      </trkpt>
      <trkpt lat="45.06865" lon="0.57424">
        <ele>142</ele>
        <time>2014-04-27T08:21:38Z</time>
      </trkpt>
      <trkpt lat="45.06835" lon="0.57387">
        <ele>147</ele>
        <time>2014-04-27T08:21:53Z</time>
      </trkpt>
      <trkpt lat="45.06818" lon="0.57337">
        <ele>147</ele>
        <time>2014-04-27T08:22:08Z</time>
      </trkpt>
      <trkpt lat="45.06809" lon="0.57288">
        <ele>150</ele>
        <time>2014-04-27T08:22:24Z</time>
      </trkpt>
      <trkpt lat="45.06813" lon="0.57231">
        <ele>154</ele>
        <time>2014-04-27T08:22:39Z</time>
      </trkpt>
      <trkpt lat="45.06827" lon="0.57181">
        <ele>155</ele>
        <time>2014-04-27T08:22:52Z</time>
      </trkpt>
      <trkpt lat="45.06848" lon="0.57147">
        <ele>160</ele>
        <time>2014-04-27T08:23:05Z</time>
      </trkpt>
      <trkpt lat="45.06872" lon="0.57111">
        <ele>163</ele>
        <time>2014-04-27T08:23:19Z</time>
      </trkpt>
      <trkpt lat="45.06898" lon="0.57073">
        <ele>168</ele>
        <time>2014-04-27T08:23:33Z</time>
      </trkpt>
      <trkpt lat="45.06919" lon="0.57026">
        <ele>171</ele>
        <time>2014-04-27T08:23:48Z</time>
      </trkpt>
      <trkpt lat="45.06944" lon="0.56995">
        <ele>173</ele>
        <time>2014-04-27T08:24:01Z</time>
      </trkpt>
      <trkpt lat="45.0697" lon="0.5697">
        <ele>173</ele>
        <time>2014-04-27T08:24:14Z</time>
      </trkpt>
      <trkpt lat="45.07008" lon="0.56946">
        <ele>173</ele>
        <time>2014-04-27T08:24:30Z</time>
      </trkpt>
      <trkpt lat="45.0704" lon="0.56933">
        <ele>174</ele>
        <time>2014-04-27T08:24:42Z</time>
      </trkpt>
      <trkpt lat="45.07078" lon="0.56917">
        <ele>175</ele>
        <time>2014-04-27T08:24:56Z</time>
      </trkpt>
      <trkpt lat="45.0711" lon="0.56866">
        <ele>174</ele>
        <time>2014-04-27T08:25:09Z</time>
      </trkpt>
      <trkpt lat="45.07127" lon="0.56844">
        <ele>174</ele>
        <time>2014-04-27T08:25:14Z</time>
      </trkpt>
      <trkpt lat="45.07139" lon="0.56832">
        <ele>176</ele>
        <time>2014-04-27T08:25:17Z</time>
      </trkpt>
      <trkpt lat="45.07161" lon="0.56817">
        <ele>175</ele>
        <time>2014-04-27T08:25:22Z</time>
      </trkpt>
      <trkpt lat="45.07164" lon="0.56814">
        <ele>176</ele>
        <time>2014-04-27T08:25:23Z</time>
      </trkpt>
      <trkpt lat="45.07166" lon="0.5681">
        <ele>176</ele>
        <time>2014-04-27T08:25:24Z</time>
      </trkpt>
      <trkpt lat="45.07167" lon="0.56806">
        <ele>175</ele>
        <time>2014-04-27T08:25:25Z</time>
      </trkpt>
      <trkpt lat="45.07166" lon="0.56803">
        <ele>177</ele>
        <time>2014-04-27T08:25:26Z</time>
      </trkpt>
      <trkpt lat="45.07164" lon="0.568">
        <ele>177</ele>
        <time>2014-04-27T08:25:27Z</time>
      </trkpt>
      <trkpt lat="45.07162" lon="0.56797">
        <ele>177</ele>
        <time>2014-04-27T08:25:28Z</time>
      </trkpt>
      <trkpt lat="45.07127" lon="0.56756">
        <ele>179</ele>
        <time>2014-04-27T08:25:41Z</time>
      </trkpt>
      <trkpt lat="45.07096" lon="0.56723">
        <ele>182</ele>
        <time>2014-04-27T08:25:52Z</time>
      </trkpt>
      <trkpt lat="45.07056" lon="0.56683">
        <ele>184</ele>
        <time>2014-04-27T08:26:06Z</time>
      </trkpt>
      <trkpt lat="45.06996" lon="0.56624">
        <ele>185</ele>
        <time>2014-04-27T08:26:24Z</time>
      </trkpt>
      <trkpt lat="45.0694" lon="0.56571">
        <ele>185</ele>
        <time>2014-04-27T08:26:38Z</time>
      </trkpt>
      <trkpt lat="45.06897" lon="0.56531">
        <ele>188</ele>
        <time>2014-04-27T08:26:49Z</time>
      </trkpt>
      <trkpt lat="45.0684" lon="0.56473">
        <ele>188</ele>
        <time>2014-04-27T08:27:03Z</time>
      </trkpt>
      <trkpt lat="45.06837" lon="0.56467">
        <ele>187</ele>
        <time>2014-04-27T08:27:04Z</time>
      </trkpt>
      <trkpt lat="45.06834" lon="0.56461">
        <ele>187</ele>
        <time>2014-04-27T08:27:05Z</time>
      </trkpt>
      <trkpt lat="45.06831" lon="0.56454">
        <ele>188</ele>
        <time>2014-04-27T08:27:06Z</time>
      </trkpt>
      <trkpt lat="45.06829" lon="0.56447">
        <ele>188</ele>
        <time>2014-04-27T08:27:07Z</time>
      </trkpt>
      <trkpt lat="45.06827" lon="0.5644">
        <ele>188</ele>
        <time>2014-04-27T08:27:08Z</time>
      </trkpt>
      <trkpt lat="45.06825" lon="0.56432">
        <ele>188</ele>
        <time>2014-04-27T08:27:09Z</time>
      </trkpt>
      <trkpt lat="45.06825" lon="0.56424">
        <ele>188</ele>
        <time>2014-04-27T08:27:10Z</time>
      </trkpt>
      <trkpt lat="45.06825" lon="0.56417">
        <ele>187</ele>
        <time>2014-04-27T08:27:11Z</time>
      </trkpt>
      <trkpt lat="45.06825" lon="0.56409">
        <ele>187</ele>
        <time>2014-04-27T08:27:12Z</time>
      </trkpt>
      <trkpt lat="45.06825" lon="0.56401">
        <ele>187</ele>
        <time>2014-04-27T08:27:13Z</time>
      </trkpt>
      <trkpt lat="45.06826" lon="0.56393">
        <ele>187</ele>
        <time>2014-04-27T08:27:14Z</time>
      </trkpt>
      <trkpt lat="45.06827" lon="0.56385">
        <ele>187</ele>
        <time>2014-04-27T08:27:15Z</time>
      </trkpt>
      <trkpt lat="45.06829" lon="0.56377">
        <ele>187</ele>
        <time>2014-04-27T08:27:16Z</time>
      </trkpt>
      <trkpt lat="45.0683" lon="0.56371">
        <ele>188</ele>
        <time>2014-04-27T08:27:17Z</time>
      </trkpt>
      <trkpt lat="45.06847" lon="0.56286">
        <ele>189</ele>
        <time>2014-04-27T08:27:29Z</time>
      </trkpt>
      <trkpt lat="45.06866" lon="0.56169">
        <ele>190</ele>
        <time>2014-04-27T08:27:43Z</time>
      </trkpt>
      <trkpt lat="45.06869" lon="0.56082">
        <ele>190</ele>
        <time>2014-04-27T08:27:54Z</time>
      </trkpt>
      <trkpt lat="45.06867" lon="0.56025">
        <ele>190</ele>
        <time>2014-04-27T08:28:02Z</time>
      </trkpt>
      <trkpt lat="45.06866" lon="0.56019">
        <ele>190</ele>
        <time>2014-04-27T08:28:03Z</time>
      </trkpt>
      <trkpt lat="45.06863" lon="0.55981">
        <ele>190</ele>
        <time>2014-04-27T08:28:09Z</time>
      </trkpt>
      <trkpt lat="45.06872" lon="0.55866">
        <ele>191</ele>
        <time>2014-04-27T08:28:25Z</time>
      </trkpt>
      <trkpt lat="45.06911" lon="0.55744">
        <ele>191</ele>
        <time>2014-04-27T08:28:41Z</time>
      </trkpt>
      <trkpt lat="45.06968" lon="0.55643">
        <ele>190</ele>
        <time>2014-04-27T08:28:56Z</time>
      </trkpt>
      <trkpt lat="45.07027" lon="0.5557">
        <ele>190</ele>
        <time>2014-04-27T08:29:09Z</time>
      </trkpt>
      <trkpt lat="45.0706" lon="0.55537">
        <ele>191</ele>
        <time>2014-04-27T08:29:17Z</time>
      </trkpt>
      <trkpt lat="45.07112" lon="0.55488">
        <ele>195</ele>
        <time>2014-04-27T08:29:31Z</time>
      </trkpt>
      <trkpt lat="45.07163" lon="0.55456">
        <ele>197</ele>
        <time>2014-04-27T08:29:44Z</time>
      </trkpt>
      <trkpt lat="45.07204" lon="0.55453">
        <ele>199</ele>
        <time>2014-04-27T08:29:56Z</time>
      </trkpt>
      <trkpt lat="45.07247" lon="0.55466">
        <ele>199</ele>
        <time>2014-04-27T08:30:09Z</time>
      </trkpt>
      <trkpt lat="45.0729" lon="0.55487">
        <ele>199</ele>
        <time>2014-04-27T08:30:22Z</time>
      </trkpt>
      <trkpt lat="45.0734" lon="0.55534">
        <ele>197</ele>
        <time>2014-04-27T08:30:35Z</time>
      </trkpt>
      <trkpt lat="45.07358" lon="0.55551">
        <ele>196</ele>
        <time>2014-04-27T08:30:39Z</time>
      </trkpt>
      <trkpt lat="45.07381" lon="0.55567">
        <ele>195</ele>
        <time>2014-04-27T08:30:43Z</time>
      </trkpt>
      <trkpt lat="45.07426" lon="0.55612">
        <ele>191</ele>
        <time>2014-04-27T08:30:50Z</time>
      </trkpt>
      <trkpt lat="45.07461" lon="0.55643">
        <ele>189</ele>
        <time>2014-04-27T08:30:55Z</time>
      </trkpt>
      <trkpt lat="45.07502" lon="0.5565">
        <ele>184</ele>
        <time>2014-04-27T08:31:00Z</time>
      </trkpt>
      <trkpt lat="45.0751" lon="0.55649">
        <ele>184</ele>
        <time>2014-04-27T08:31:01Z</time>
      </trkpt>
      <trkpt lat="45.07549" lon="0.55637">
        <ele>180</ele>
        <time>2014-04-27T08:31:07Z</time>
      </trkpt>
      <trkpt lat="45.07568" lon="0.55626">
        <ele>179</ele>
        <time>2014-04-27T08:31:10Z</time>
      </trkpt>
      <trkpt lat="45.07594" lon="0.55612">
        <ele>171</ele>
        <time>2014-04-27T08:31:14Z</time>
      </trkpt>
      <trkpt lat="45.0762" lon="0.55599">
        <ele>169</ele>
        <time>2014-04-27T08:31:18Z</time>
      </trkpt>
      <trkpt lat="45.07627" lon="0.55596">
        <ele>168</ele>
        <time>2014-04-27T08:31:19Z</time>
      </trkpt>
      <trkpt lat="45.07642" lon="0.55581">
        <ele>161</ele>
        <time>2014-04-27T08:31:23Z</time>
      </trkpt>
      <trkpt lat="45.07652" lon="0.55554">
        <ele>160</ele>
        <time>2014-04-27T08:31:28Z</time>
      </trkpt>
      <trkpt lat="45.07674" lon="0.55549">
        <ele>150</ele>
        <time>2014-04-27T08:31:31Z</time>
      </trkpt>
      <trkpt lat="45.07701" lon="0.5555">
        <ele>148</ele>
        <time>2014-04-27T08:31:34Z</time>
      </trkpt>
      <trkpt lat="45.07712" lon="0.55553">
        <ele>147</ele>
        <time>2014-04-27T08:31:35Z</time>
      </trkpt>
      <trkpt lat="45.07733" lon="0.5556">
        <ele>147</ele>
        <time>2014-04-27T08:31:37Z</time>
      </trkpt>
      <trkpt lat="45.07767" lon="0.55563">
        <ele>138</ele>
        <time>2014-04-27T08:31:40Z</time>
      </trkpt>
      <trkpt lat="45.07778" lon="0.5556">
        <ele>136</ele>
        <time>2014-04-27T08:31:41Z</time>
      </trkpt>
      <trkpt lat="45.07815" lon="0.5555">
        <ele>131</ele>
        <time>2014-04-27T08:31:44Z</time>
      </trkpt>
      <trkpt lat="45.07864" lon="0.55563">
        <ele>121</ele>
        <time>2014-04-27T08:31:49Z</time>
      </trkpt>
      <trkpt lat="45.07873" lon="0.55568">
        <ele>120</ele>
        <time>2014-04-27T08:31:50Z</time>
      </trkpt>
      <trkpt lat="45.07903" lon="0.55579">
        <ele>116</ele>
        <time>2014-04-27T08:31:53Z</time>
      </trkpt>
      <trkpt lat="45.07925" lon="0.55585">
        <ele>113</ele>
        <time>2014-04-27T08:31:55Z</time>
      </trkpt>
      <trkpt lat="45.07949" lon="0.55594">
        <ele>110</ele>
        <time>2014-04-27T08:31:57Z</time>
      </trkpt>
      <trkpt lat="45.07961" lon="0.55597">
        <ele>108</ele>
        <time>2014-04-27T08:31:58Z</time>
      </trkpt>
      <trkpt lat="45.07975" lon="0.55598">
        <ele>107</ele>
        <time>2014-04-27T08:31:59Z</time>
      </trkpt>
      <trkpt lat="45.08001" lon="0.55599">
        <ele>98</ele>
        <time>2014-04-27T08:32:01Z</time>
      </trkpt>
      <trkpt lat="45.08035" lon="0.55597">
        <ele>97</ele>
        <time>2014-04-27T08:32:04Z</time>
      </trkpt>
      <trkpt lat="45.08044" lon="0.55598">
        <ele>96</ele>
        <time>2014-04-27T08:32:05Z</time>
      </trkpt>
      <trkpt lat="45.08051" lon="0.55599">
        <ele>96</ele>
        <time>2014-04-27T08:32:06Z</time>
      </trkpt>
      <trkpt lat="45.08057" lon="0.55602">
        <ele>96</ele>
        <time>2014-04-27T08:32:07Z</time>
      </trkpt>
      <trkpt lat="45.08061" lon="0.55607">
        <ele>96</ele>
        <time>2014-04-27T08:32:08Z</time>
      </trkpt>
      <trkpt lat="45.08065" lon="0.55614">
        <ele>96</ele>
        <time>2014-04-27T08:32:09Z</time>
      </trkpt>
      <trkpt lat="45.08068" lon="0.55623">
        <ele>96</ele>
        <time>2014-04-27T08:32:10Z</time>
      </trkpt>
      <trkpt lat="45.08073" lon="0.55631">
        <ele>95</ele>
        <time>2014-04-27T08:32:11Z</time>
      </trkpt>
      <trkpt lat="45.08079" lon="0.55639">
        <ele>95</ele>
        <time>2014-04-27T08:32:12Z</time>
      </trkpt>
      <trkpt lat="45.08086" lon="0.55645">
        <ele>91</ele>
        <time>2014-04-27T08:32:13Z</time>
      </trkpt>
      <trkpt lat="45.08094" lon="0.55649">
        <ele>91</ele>
        <time>2014-04-27T08:32:14Z</time>
      </trkpt>
      <trkpt lat="45.08103" lon="0.55653">
        <ele>90</ele>
        <time>2014-04-27T08:32:15Z</time>
      </trkpt>
      <trkpt lat="45.08156" lon="0.55669">
        <ele>87</ele>
        <time>2014-04-27T08:32:21Z</time>
      </trkpt>
      <trkpt lat="45.08209" lon="0.5568">
        <ele>84</ele>
        <time>2014-04-27T08:32:27Z</time>
      </trkpt>
      <trkpt lat="45.08322" lon="0.55722">
        <ele>82</ele>
        <time>2014-04-27T08:32:41Z</time>
      </trkpt>
      <trkpt lat="45.08444" lon="0.55806">
        <ele>81</ele>
        <time>2014-04-27T08:32:59Z</time>
      </trkpt>
      <trkpt lat="45.08492" lon="0.55841">
        <ele>81</ele>
        <time>2014-04-27T08:33:07Z</time>
      </trkpt>
      <trkpt lat="45.08498" lon="0.55843">
        <ele>81</ele>
        <time>2014-04-27T08:33:08Z</time>
      </trkpt>
      <trkpt lat="45.08504" lon="0.55843">
        <ele>82</ele>
        <time>2014-04-27T08:33:09Z</time>
      </trkpt>
      <trkpt lat="45.0851" lon="0.55842">
        <ele>82</ele>
        <time>2014-04-27T08:33:10Z</time>
      </trkpt>
      <trkpt lat="45.08516" lon="0.5584">
        <ele>82</ele>
        <time>2014-04-27T08:33:11Z</time>
      </trkpt>
      <trkpt lat="45.08527" lon="0.55837">
        <ele>82</ele>
        <time>2014-04-27T08:33:13Z</time>
      </trkpt>
      <trkpt lat="45.08533" lon="0.55837">
        <ele>82</ele>
        <time>2014-04-27T08:33:14Z</time>
      </trkpt>
      <trkpt lat="45.08539" lon="0.55837">
        <ele>82</ele>
        <time>2014-04-27T08:33:15Z</time>
      </trkpt>
      <trkpt lat="45.08544" lon="0.55838">
        <ele>83</ele>
        <time>2014-04-27T08:33:16Z</time>
      </trkpt>
      <trkpt lat="45.0855" lon="0.55839">
        <ele>83</ele>
        <time>2014-04-27T08:33:17Z</time>
      </trkpt>
      <trkpt lat="45.0858" lon="0.55847">
        <ele>83</ele>
        <time>2014-04-27T08:33:23Z</time>
      </trkpt>
      <trkpt lat="45.08652" lon="0.55882">
        <ele>87</ele>
        <time>2014-04-27T08:33:40Z</time>
      </trkpt>
      <trkpt lat="45.08671" lon="0.55893">
        <ele>89</ele>
        <time>2014-04-27T08:33:52Z</time>
      </trkpt>
      <trkpt lat="45.08672" lon="0.55894">
        <ele>89</ele>
        <time>2014-04-27T08:34:10Z</time>
      </trkpt>
      <trkpt lat="45.08672" lon="0.55893">
        <ele>89</ele>
        <time>2014-04-27T08:34:47Z</time>
      </trkpt>
      <trkpt lat="45.08671" lon="0.55892">
        <ele>89</ele>
        <time>2014-04-27T08:35:20Z</time>
      </trkpt>
      <trkpt lat="45.08671" lon="0.55893">
        <ele>89</ele>
        <time>2014-04-27T08:35:49Z</time>
      </trkpt>
      <trkpt lat="45.08671" lon="0.55894">
        <ele>89</ele>
        <time>2014-04-27T08:36:25Z</time>
      </trkpt>
      <trkpt lat="45.08671" lon="0.55893">
        <ele>89</ele>
        <time>2014-04-27T08:37:01Z</time>
      </trkpt>
      <trkpt lat="45.08672" lon="0.55892">
        <ele>89</ele>
        <time>2014-04-27T08:37:28Z</time>
      </trkpt>
      <trkpt lat="45.08677" lon="0.55895">
        <ele>89</ele>
        <time>2014-04-27T08:37:46Z</time>
      </trkpt>
      <trkpt lat="45.08694" lon="0.55905">
        <ele>89</ele>
        <time>2014-04-27T08:37:51Z</time>
      </trkpt>
      <trkpt lat="45.0871" lon="0.55913">
        <ele>89</ele>
        <time>2014-04-27T08:37:55Z</time>
      </trkpt>
      <trkpt lat="45.08714" lon="0.55916">
        <ele>89</ele>
        <time>2014-04-27T08:37:56Z</time>
      </trkpt>
      <trkpt lat="45.08784" lon="0.55975">
        <ele>94</ele>
        <time>2014-04-27T08:38:13Z</time>
      </trkpt>
      <trkpt lat="45.08815" lon="0.55998">
        <ele>95</ele>
        <time>2014-04-27T08:38:21Z</time>
      </trkpt>
      <trkpt lat="45.08822" lon="0.56004">
        <ele>96</ele>
        <time>2014-04-27T08:38:23Z</time>
      </trkpt>
      <trkpt lat="45.08881" lon="0.56049">
        <ele>100</ele>
        <time>2014-04-27T08:38:40Z</time>
      </trkpt>
      <trkpt lat="45.08912" lon="0.56079">
        <ele>102</ele>
        <time>2014-04-27T08:38:51Z</time>
      </trkpt>
      <trkpt lat="45.08947" lon="0.56092">
        <ele>107</ele>
        <time>2014-04-27T08:39:03Z</time>
      </trkpt>
      <trkpt lat="45.08992" lon="0.5612">
        <ele>109</ele>
        <time>2014-04-27T08:39:18Z</time>
      </trkpt>
      <trkpt lat="45.09025" lon="0.56154">
        <ele>112</ele>
        <time>2014-04-27T08:39:32Z</time>
      </trkpt>
      <trkpt lat="45.09049" lon="0.56186">
        <ele>118</ele>
        <time>2014-04-27T08:39:45Z</time>
      </trkpt>
      <trkpt lat="45.09082" lon="0.56215">
        <ele>120</ele>
        <time>2014-04-27T08:40:01Z</time>
      </trkpt>
      <trkpt lat="45.09107" lon="0.56234">
        <ele>121</ele>
        <time>2014-04-27T08:40:14Z</time>
      </trkpt>
      <trkpt lat="45.09132" lon="0.5625">
        <ele>121</ele>
        <time>2014-04-27T08:40:27Z</time>
      </trkpt>
      <trkpt lat="45.09151" lon="0.56261">
        <ele>128</ele>
        <time>2014-04-27T08:40:37Z</time>
      </trkpt>
      <trkpt lat="45.09173" lon="0.56274">
        <ele>131</ele>
        <time>2014-04-27T08:40:49Z</time>
      </trkpt>
      <trkpt lat="45.09194" lon="0.56284">
        <ele>134</ele>
        <time>2014-04-27T08:41:00Z</time>
      </trkpt>
      <trkpt lat="45.09214" lon="0.56295">
        <ele>136</ele>
        <time>2014-04-27T08:41:11Z</time>
      </trkpt>
      <trkpt lat="45.09233" lon="0.56306">
        <ele>138</ele>
        <time>2014-04-27T08:41:22Z</time>
      </trkpt>
      <trkpt lat="45.09254" lon="0.56315">
        <ele>142</ele>
        <time>2014-04-27T08:41:33Z</time>
      </trkpt>
      <trkpt lat="45.09273" lon="0.56325">
        <ele>142</ele>
        <time>2014-04-27T08:41:45Z</time>
      </trkpt>
      <trkpt lat="45.09291" lon="0.56336">
        <ele>152</ele>
        <time>2014-04-27T08:41:56Z</time>
      </trkpt>
      <trkpt lat="45.09308" lon="0.56348">
        <ele>153</ele>
        <time>2014-04-27T08:42:07Z</time>
      </trkpt>
      <trkpt lat="45.09326" lon="0.5636">
        <ele>153</ele>
        <time>2014-04-27T08:42:19Z</time>
      </trkpt>
      <trkpt lat="45.09343" lon="0.56368">
        <ele>156</ele>
        <time>2014-04-27T08:42:29Z</time>
      </trkpt>
      <trkpt lat="45.09363" lon="0.56379">
        <ele>158</ele>
        <time>2014-04-27T08:42:42Z</time>
      </trkpt>
      <trkpt lat="45.09381" lon="0.56387">
        <ele>159</ele>
        <time>2014-04-27T08:42:53Z</time>
      </trkpt>
      <trkpt lat="45.09401" lon="0.56398">
        <ele>161</ele>
        <time>2014-04-27T08:43:05Z</time>
      </trkpt>
      <trkpt lat="45.09427" lon="0.56408">
        <ele>167</ele>
        <time>2014-04-27T08:43:18Z</time>
      </trkpt>
      <trkpt lat="45.09451" lon="0.5641">
        <ele>168</ele>
        <time>2014-04-27T08:43:29Z</time>
      </trkpt>
      <trkpt lat="45.09479" lon="0.5639">
        <ele>170</ele>
        <time>2014-04-27T08:43:43Z</time>
      </trkpt>
      <trkpt lat="45.09504" lon="0.56367">
        <ele>178</ele>
        <time>2014-04-27T08:43:57Z</time>
      </trkpt>
      <trkpt lat="45.0953" lon="0.56344">
        <ele>179</ele>
        <time>2014-04-27T08:44:10Z</time>
      </trkpt>
      <trkpt lat="45.09556" lon="0.56321">
        <ele>180</ele>
        <time>2014-04-27T08:44:23Z</time>
      </trkpt>
      <trkpt lat="45.09571" lon="0.56307">
        <ele>181</ele>
        <time>2014-04-27T08:44:30Z</time>
      </trkpt>
      <trkpt lat="45.09573" lon="0.56307">
        <ele>181</ele>
        <time>2014-04-27T08:44:31Z</time>
      </trkpt>
      <trkpt lat="45.09574" lon="0.5631">
        <ele>182</ele>
        <time>2014-04-27T08:44:32Z</time>
      </trkpt>
      <trkpt lat="45.09574" lon="0.56314">
        <ele>182</ele>
        <time>2014-04-27T08:44:33Z</time>
      </trkpt>
      <trkpt lat="45.09573" lon="0.56318">
        <ele>183</ele>
        <time>2014-04-27T08:44:34Z</time>
      </trkpt>
      <trkpt lat="45.09571" lon="0.56322">
        <ele>183</ele>
        <time>2014-04-27T08:44:35Z</time>
      </trkpt>
      <trkpt lat="45.0957" lon="0.56327">
        <ele>183</ele>
        <time>2014-04-27T08:44:36Z</time>
      </trkpt>
      <trkpt lat="45.09541" lon="0.56396">
        <ele>180</ele>
        <time>2014-04-27T08:44:47Z</time>
      </trkpt>
      <trkpt lat="45.09531" lon="0.56411">
        <ele>180</ele>
        <time>2014-04-27T08:44:49Z</time>
      </trkpt>
      <trkpt lat="45.09524" lon="0.56418">
        <ele>176</ele>
        <time>2014-04-27T08:44:50Z</time>
      </trkpt>
      <trkpt lat="45.09517" lon="0.56425">
        <ele>176</ele>
        <time>2014-04-27T08:44:51Z</time>
      </trkpt>
      <trkpt lat="45.09505" lon="0.56438">
        <ele>175</ele>
        <time>2014-04-27T08:44:54Z</time>
      </trkpt>
      <trkpt lat="45.09508" lon="0.56443">
        <ele>175</ele>
        <time>2014-04-27T08:44:56Z</time>
      </trkpt>
      <trkpt lat="45.09512" lon="0.56445">
        <ele>175</ele>
        <time>2014-04-27T08:44:57Z</time>
      </trkpt>
      <trkpt lat="45.09517" lon="0.56447">
        <ele>175</ele>
        <time>2014-04-27T08:44:58Z</time>
      </trkpt>
      <trkpt lat="45.09544" lon="0.56455">
        <ele>174</ele>
        <time>2014-04-27T08:45:02Z</time>
      </trkpt>
      <trkpt lat="45.09568" lon="0.56464">
        <ele>174</ele>
        <time>2014-04-27T08:45:05Z</time>
      </trkpt>
      <trkpt lat="45.09583" lon="0.56471">
        <ele>172</ele>
        <time>2014-04-27T08:45:07Z</time>
      </trkpt>
      <trkpt lat="45.09601" lon="0.56476">
        <ele>174</ele>
        <time>2014-04-27T08:45:10Z</time>
      </trkpt>
      <trkpt lat="45.09613" lon="0.56475">
        <ele>175</ele>
        <time>2014-04-27T08:45:12Z</time>
      </trkpt>
      <trkpt lat="45.0962" lon="0.56495">
        <ele>174</ele>
        <time>2014-04-27T08:45:17Z</time>
      </trkpt>
      <trkpt lat="45.09619" lon="0.5651">
        <ele>170</ele>
        <time>2014-04-27T08:45:19Z</time>
      </trkpt>
      <trkpt lat="45.09619" lon="0.56517">
        <ele>170</ele>
        <time>2014-04-27T08:45:20Z</time>
      </trkpt>
      <trkpt lat="45.096" lon="0.56595">
        <ele>165</ele>
        <time>2014-04-27T08:45:29Z</time>
      </trkpt>
      <trkpt lat="45.09597" lon="0.56604">
        <ele>166</ele>
        <time>2014-04-27T08:45:30Z</time>
      </trkpt>
      <trkpt lat="45.09591" lon="0.56622">
        <ele>167</ele>
        <time>2014-04-27T08:45:32Z</time>
      </trkpt>
      <trkpt lat="45.09585" lon="0.56673">
        <ele>163</ele>
        <time>2014-04-27T08:45:38Z</time>
      </trkpt>
      <trkpt lat="45.09579" lon="0.56704">
        <ele>157</ele>
        <time>2014-04-27T08:45:42Z</time>
      </trkpt>
      <trkpt lat="45.09572" lon="0.56734">
        <ele>159</ele>
        <time>2014-04-27T08:45:46Z</time>
      </trkpt>
      <trkpt lat="45.09561" lon="0.56776">
        <ele>159</ele>
        <time>2014-04-27T08:45:53Z</time>
      </trkpt>
      <trkpt lat="45.09559" lon="0.56781">
        <ele>159</ele>
        <time>2014-04-27T08:45:54Z</time>
      </trkpt>
      <trkpt lat="45.09549" lon="0.56839">
        <ele>160</ele>
        <time>2014-04-27T08:46:07Z</time>
      </trkpt>
      <trkpt lat="45.09541" lon="0.5689">
        <ele>159</ele>
        <time>2014-04-27T08:46:18Z</time>
      </trkpt>
      <trkpt lat="45.09519" lon="0.5696">
        <ele>160</ele>
        <time>2014-04-27T08:46:32Z</time>
      </trkpt>
      <trkpt lat="45.09509" lon="0.57001">
        <ele>160</ele>
        <time>2014-04-27T08:46:42Z</time>
      </trkpt>
      <trkpt lat="45.09508" lon="0.57004">
        <ele>160</ele>
        <time>2014-04-27T08:46:43Z</time>
      </trkpt>
      <trkpt lat="45.09498" lon="0.57037">
        <ele>154</ele>
        <time>2014-04-27T08:46:53Z</time>
      </trkpt>
      <trkpt lat="45.09487" lon="0.57078">
        <ele>159</ele>
        <time>2014-04-27T08:47:06Z</time>
      </trkpt>
      <trkpt lat="45.09486" lon="0.57105">
        <ele>162</ele>
        <time>2014-04-27T08:47:14Z</time>
      </trkpt>
      <trkpt lat="45.09481" lon="0.57146">
        <ele>163</ele>
        <time>2014-04-27T08:47:26Z</time>
      </trkpt>
      <trkpt lat="45.09479" lon="0.57191">
        <ele>165</ele>
        <time>2014-04-27T08:47:37Z</time>
      </trkpt>
      <trkpt lat="45.09481" lon="0.57195">
        <ele>165</ele>
        <time>2014-04-27T08:47:38Z</time>
      </trkpt>
      <trkpt lat="45.09505" lon="0.57215">
        <ele>171</ele>
        <time>2014-04-27T08:47:47Z</time>
      </trkpt>
      <trkpt lat="45.09513" lon="0.57241">
        <ele>169</ele>
        <time>2014-04-27T08:47:50Z</time>
      </trkpt>
      <trkpt lat="45.09518" lon="0.5725">
        <ele>169</ele>
        <time>2014-04-27T08:47:51Z</time>
      </trkpt>
      <trkpt lat="45.09534" lon="0.57283">
        <ele>163</ele>
        <time>2014-04-27T08:47:55Z</time>
      </trkpt>
      <trkpt lat="45.0955" lon="0.57322">
        <ele>160</ele>
        <time>2014-04-27T08:48:00Z</time>
      </trkpt>
      <trkpt lat="45.09566" lon="0.57318">
        <ele>159</ele>
        <time>2014-04-27T08:48:04Z</time>
      </trkpt>
      <trkpt lat="45.09581" lon="0.5731">
        <ele>160</ele>
        <time>2014-04-27T08:48:07Z</time>
      </trkpt>
      <trkpt lat="45.09591" lon="0.57305">
        <ele>159</ele>
        <time>2014-04-27T08:48:09Z</time>
      </trkpt>
      <trkpt lat="45.09615" lon="0.57289">
        <ele>160</ele>
        <time>2014-04-27T08:48:14Z</time>
      </trkpt>
      <trkpt lat="45.0962" lon="0.57286">
        <ele>160</ele>
        <time>2014-04-27T08:48:15Z</time>
      </trkpt>
      <trkpt lat="45.09635" lon="0.57278">
        <ele>160</ele>
        <time>2014-04-27T08:48:19Z</time>
      </trkpt>
      <trkpt lat="45.09638" lon="0.57279">
        <ele>160</ele>
        <time>2014-04-27T08:48:20Z</time>
      </trkpt>
      <trkpt lat="45.09646" lon="0.57282">
        <ele>159</ele>
        <time>2014-04-27T08:48:22Z</time>
      </trkpt>
      <trkpt lat="45.09659" lon="0.57282">
        <ele>159</ele>
        <time>2014-04-27T08:48:25Z</time>
      </trkpt>
      <trkpt lat="45.0967" lon="0.57278">
        <ele>156</ele>
        <time>2014-04-27T08:48:27Z</time>
      </trkpt>
      <trkpt lat="45.09695" lon="0.57274">
        <ele>155</ele>
        <time>2014-04-27T08:48:31Z</time>
      </trkpt>
      <trkpt lat="45.09709" lon="0.57272">
        <ele>154</ele>
        <time>2014-04-27T08:48:34Z</time>
      </trkpt>
      <trkpt lat="45.09715" lon="0.57289">
        <ele>154</ele>
        <time>2014-04-27T08:48:37Z</time>
      </trkpt>
      <trkpt lat="45.09719" lon="0.57308">
        <ele>153</ele>
        <time>2014-04-27T08:48:39Z</time>
      </trkpt>
      <trkpt lat="45.09736" lon="0.57331">
        <ele>151</ele>
        <time>2014-04-27T08:48:43Z</time>
      </trkpt>
      <trkpt lat="45.0976" lon="0.57355">
        <ele>155</ele>
        <time>2014-04-27T08:48:49Z</time>
      </trkpt>
      <trkpt lat="45.0976" lon="0.57404">
        <ele>155</ele>
        <time>2014-04-27T08:49:00Z</time>
      </trkpt>
      <trkpt lat="45.09743" lon="0.57448">
        <ele>150</ele>
        <time>2014-04-27T08:49:10Z</time>
      </trkpt>
      <trkpt lat="45.09709" lon="0.57508">
        <ele>151</ele>
        <time>2014-04-27T08:49:24Z</time>
      </trkpt>
      <trkpt lat="45.0967" lon="0.57583">
        <ele>145</ele>
        <time>2014-04-27T08:49:37Z</time>
      </trkpt>
      <trkpt lat="45.09664" lon="0.57594">
        <ele>143</ele>
        <time>2014-04-27T08:49:39Z</time>
      </trkpt>
      <trkpt lat="45.09631" lon="0.5763">
        <ele>143</ele>
        <time>2014-04-27T08:49:47Z</time>
      </trkpt>
      <trkpt lat="45.09618" lon="0.57646">
        <ele>142</ele>
        <time>2014-04-27T08:49:50Z</time>
      </trkpt>
      <trkpt lat="45.09609" lon="0.57675">
        <ele>145</ele>
        <time>2014-04-27T08:49:55Z</time>
      </trkpt>
      <trkpt lat="45.09595" lon="0.57698">
        <ele>145</ele>
        <time>2014-04-27T08:50:01Z</time>
      </trkpt>
      <trkpt lat="45.09582" lon="0.57707">
        <ele>140</ele>
        <time>2014-04-27T08:50:04Z</time>
      </trkpt>
      <trkpt lat="45.09562" lon="0.57715">
        <ele>140</ele>
        <time>2014-04-27T08:50:08Z</time>
      </trkpt>
      <trkpt lat="45.09537" lon="0.57723">
        <ele>139</ele>
        <time>2014-04-27T08:50:13Z</time>
      </trkpt>
      <trkpt lat="45.09523" lon="0.57729">
        <ele>138</ele>
        <time>2014-04-27T08:50:16Z</time>
      </trkpt>
      <trkpt lat="45.09509" lon="0.57736">
        <ele>138</ele>
        <time>2014-04-27T08:50:19Z</time>
      </trkpt>
      <trkpt lat="45.09495" lon="0.57746">
        <ele>137</ele>
        <time>2014-04-27T08:50:22Z</time>
      </trkpt>
      <trkpt lat="45.09474" lon="0.57767">
        <ele>136</ele>
        <time>2014-04-27T08:50:27Z</time>
      </trkpt>
      <trkpt lat="45.09469" lon="0.57772">
        <ele>136</ele>
        <time>2014-04-27T08:50:28Z</time>
      </trkpt>
      <trkpt lat="45.09457" lon="0.57785">
        <ele>136</ele>
        <time>2014-04-27T08:50:31Z</time>
      </trkpt>
      <trkpt lat="45.09433" lon="0.5781">
        <ele>136</ele>
        <time>2014-04-27T08:50:37Z</time>
      </trkpt>
      <trkpt lat="45.0943" lon="0.57815">
        <ele>136</ele>
        <time>2014-04-27T08:50:38Z</time>
      </trkpt>
      <trkpt lat="45.09418" lon="0.57831">
        <ele>136</ele>
        <time>2014-04-27T08:50:41Z</time>
      </trkpt>
      <trkpt lat="45.09414" lon="0.57835">
        <ele>136</ele>
        <time>2014-04-27T08:50:42Z</time>
      </trkpt>
      <trkpt lat="45.0941" lon="0.57839">
        <ele>136</ele>
        <time>2014-04-27T08:50:43Z</time>
      </trkpt>
      <trkpt lat="45.09388" lon="0.57862">
        <ele>137</ele>
        <time>2014-04-27T08:50:48Z</time>
      </trkpt>
      <trkpt lat="45.09376" lon="0.57882">
        <ele>137</ele>
        <time>2014-04-27T08:50:51Z</time>
      </trkpt>
      <trkpt lat="45.09364" lon="0.57915">
        <ele>137</ele>
        <time>2014-04-27T08:50:55Z</time>
      </trkpt>
      <trkpt lat="45.09355" lon="0.57945">
        <ele>133</ele>
        <time>2014-04-27T08:50:58Z</time>
      </trkpt>
      <trkpt lat="45.09339" lon="0.58">
        <ele>130</ele>
        <time>2014-04-27T08:51:03Z</time>
      </trkpt>
      <trkpt lat="45.09327" lon="0.58041">
        <ele>128</ele>
        <time>2014-04-27T08:51:06Z</time>
      </trkpt>
      <trkpt lat="45.09322" lon="0.58056">
        <ele>127</ele>
        <time>2014-04-27T08:51:07Z</time>
      </trkpt>
      <trkpt lat="45.09306" lon="0.58094">
        <ele>122</ele>
        <time>2014-04-27T08:51:10Z</time>
      </trkpt>
      <trkpt lat="45.09275" lon="0.58139">
        <ele>121</ele>
        <time>2014-04-27T08:51:15Z</time>
      </trkpt>
      <trkpt lat="45.09231" lon="0.58196">
        <ele>114</ele>
        <time>2014-04-27T08:51:23Z</time>
      </trkpt>
      <trkpt lat="45.09219" lon="0.58208">
        <ele>114</ele>
        <time>2014-04-27T08:51:25Z</time>
      </trkpt>
      <trkpt lat="45.09205" lon="0.58217">
        <ele>113</ele>
        <time>2014-04-27T08:51:27Z</time>
      </trkpt>
      <trkpt lat="45.09183" lon="0.5823">
        <ele>113</ele>
        <time>2014-04-27T08:51:30Z</time>
      </trkpt>
      <trkpt lat="45.09176" lon="0.58234">
        <ele>112</ele>
        <time>2014-04-27T08:51:31Z</time>
      </trkpt>
      <trkpt lat="45.09171" lon="0.5824">
        <ele>112</ele>
        <time>2014-04-27T08:51:32Z</time>
      </trkpt>
      <trkpt lat="45.09166" lon="0.58245">
        <ele>112</ele>
        <time>2014-04-27T08:51:33Z</time>
      </trkpt>
      <trkpt lat="45.09142" lon="0.58278">
        <ele>119</ele>
        <time>2014-04-27T08:51:42Z</time>
      </trkpt>
      <trkpt lat="45.09138" lon="0.58283">
        <ele>120</ele>
        <time>2014-04-27T08:51:45Z</time>
      </trkpt>
      <trkpt lat="45.09128" lon="0.58303">
        <ele>121</ele>
        <time>2014-04-27T08:51:57Z</time>
      </trkpt>
      <trkpt lat="45.09125" lon="0.58309">
        <ele>122</ele>
        <time>2014-04-27T08:52:01Z</time>
      </trkpt>
      <trkpt lat="45.09119" lon="0.58322">
        <ele>123</ele>
        <time>2014-04-27T08:52:11Z</time>
      </trkpt>
      <trkpt lat="45.09111" lon="0.58333">
        <ele>124</ele>
        <time>2014-04-27T08:52:21Z</time>
      </trkpt>
      <trkpt lat="45.09102" lon="0.58342">
        <ele>131</ele>
        <time>2014-04-27T08:52:30Z</time>
      </trkpt>
      <trkpt lat="45.09087" lon="0.58348">
        <ele>131</ele>
        <time>2014-04-27T08:52:41Z</time>
      </trkpt>
      <trkpt lat="45.09065" lon="0.58341">
        <ele>134</ele>
        <time>2014-04-27T08:52:55Z</time>
      </trkpt>
      <trkpt lat="45.09025" lon="0.58311">
        <ele>133</ele>
        <time>2014-04-27T08:53:10Z</time>
      </trkpt>
      <trkpt lat="45.08969" lon="0.58297">
        <ele>136</ele>
        <time>2014-04-27T08:53:25Z</time>
      </trkpt>
      <trkpt lat="45.08939" lon="0.58288">
        <ele>137</ele>
        <time>2014-04-27T08:53:33Z</time>
      </trkpt>
      <trkpt lat="45.08937" lon="0.58291">
        <ele>137</ele>
        <time>2014-04-27T08:53:34Z</time>
      </trkpt>
      <trkpt lat="45.08936" lon="0.58295">
        <ele>137</ele>
        <time>2014-04-27T08:53:35Z</time>
      </trkpt>
      <trkpt lat="45.08936" lon="0.58299">
        <ele>137</ele>
        <time>2014-04-27T08:53:36Z</time>
      </trkpt>
      <trkpt lat="45.08936" lon="0.58303">
        <ele>137</ele>
        <time>2014-04-27T08:53:37Z</time>
      </trkpt>
      <trkpt lat="45.08941" lon="0.58338">
        <ele>136</ele>
        <time>2014-04-27T08:53:44Z</time>
      </trkpt>
      <trkpt lat="45.08939" lon="0.58345">
        <ele>136</ele>
        <time>2014-04-27T08:53:45Z</time>
      </trkpt>
      <trkpt lat="45.08926" lon="0.58365">
        <ele>135</ele>
        <time>2014-04-27T08:53:48Z</time>
      </trkpt>
      <trkpt lat="45.08918" lon="0.58381">
        <ele>133</ele>
        <time>2014-04-27T08:53:50Z</time>
      </trkpt>
      <trkpt lat="45.08916" lon="0.58391">
        <ele>131</ele>
        <time>2014-04-27T08:53:51Z</time>
      </trkpt>
      <trkpt lat="45.08913" lon="0.5844">
        <ele>123</ele>
        <time>2014-04-27T08:53:55Z</time>
      </trkpt>
      <trkpt lat="45.0891" lon="0.58483">
        <ele>119</ele>
        <time>2014-04-27T08:53:58Z</time>
      </trkpt>
      <trkpt lat="45.08907" lon="0.58498">
        <ele>118</ele>
        <time>2014-04-27T08:53:59Z</time>
      </trkpt>
      <trkpt lat="45.08901" lon="0.58524">
        <ele>112</ele>
        <time>2014-04-27T08:54:01Z</time>
      </trkpt>
      <trkpt lat="45.08895" lon="0.58563">
        <ele>109</ele>
        <time>2014-04-27T08:54:04Z</time>
      </trkpt>
      <trkpt lat="45.08891" lon="0.5859">
        <ele>104</ele>
        <time>2014-04-27T08:54:06Z</time>
      </trkpt>
      <trkpt lat="45.08889" lon="0.5861">
        <ele>103</ele>
        <time>2014-04-27T08:54:08Z</time>
      </trkpt>
      <trkpt lat="45.08887" lon="0.58624">
        <ele>103</ele>
        <time>2014-04-27T08:54:11Z</time>
      </trkpt>
      <trkpt lat="45.08886" lon="0.58628">
        <ele>103</ele>
        <time>2014-04-27T08:54:12Z</time>
      </trkpt>
      <trkpt lat="45.08884" lon="0.58632">
        <ele>103</ele>
        <time>2014-04-27T08:54:13Z</time>
      </trkpt>
      <trkpt lat="45.08882" lon="0.58636">
        <ele>102</ele>
        <time>2014-04-27T08:54:14Z</time>
      </trkpt>
      <trkpt lat="45.08879" lon="0.58641">
        <ele>102</ele>
        <time>2014-04-27T08:54:15Z</time>
      </trkpt>
      <trkpt lat="45.08877" lon="0.58647">
        <ele>102</ele>
        <time>2014-04-27T08:54:16Z</time>
      </trkpt>
      <trkpt lat="45.08862" lon="0.58671">
        <ele>102</ele>
        <time>2014-04-27T08:54:20Z</time>
      </trkpt>
      <trkpt lat="45.08859" lon="0.58678">
        <ele>102</ele>
        <time>2014-04-27T08:54:21Z</time>
      </trkpt>
      <trkpt lat="45.08858" lon="0.58685">
        <ele>102</ele>
        <time>2014-04-27T08:54:22Z</time>
      </trkpt>
      <trkpt lat="45.08855" lon="0.58698">
        <ele>103</ele>
        <time>2014-04-27T08:54:24Z</time>
      </trkpt>
      <trkpt lat="45.08853" lon="0.58715">
        <ele>103</ele>
        <time>2014-04-27T08:54:28Z</time>
      </trkpt>
      <trkpt lat="45.08847" lon="0.58735">
        <ele>105</ele>
        <time>2014-04-27T08:54:37Z</time>
      </trkpt>
      <trkpt lat="45.08841" lon="0.58761">
        <ele>109</ele>
        <time>2014-04-27T08:54:49Z</time>
      </trkpt>
      <trkpt lat="45.08842" lon="0.58766">
        <ele>110</ele>
        <time>2014-04-27T08:54:51Z</time>
      </trkpt>
      <trkpt lat="45.08845" lon="0.58787">
        <ele>111</ele>
        <time>2014-04-27T08:55:01Z</time>
      </trkpt>
      <trkpt lat="45.08855" lon="0.58809">
        <ele>113</ele>
        <time>2014-04-27T08:55:15Z</time>
      </trkpt>
      <trkpt lat="45.0886" lon="0.58837">
        <ele>121</ele>
        <time>2014-04-27T08:55:29Z</time>
      </trkpt>
      <trkpt lat="45.08855" lon="0.5886">
        <ele>122</ele>
        <time>2014-04-27T08:55:43Z</time>
      </trkpt>
      <trkpt lat="45.08852" lon="0.58872">
        <ele>123</ele>
        <time>2014-04-27T08:55:52Z</time>
      </trkpt>
      <trkpt lat="45.08845" lon="0.58896">
        <ele>127</ele>
        <time>2014-04-27T08:56:07Z</time>
      </trkpt>
      <trkpt lat="45.08838" lon="0.58918">
        <ele>135</ele>
        <time>2014-04-27T08:56:19Z</time>
      </trkpt>
      <trkpt lat="45.08834" lon="0.58941">
        <ele>135</ele>
        <time>2014-04-27T08:56:33Z</time>
      </trkpt>
      <trkpt lat="45.08828" lon="0.5896">
        <ele>143</ele>
        <time>2014-04-27T08:56:46Z</time>
      </trkpt>
      <trkpt lat="45.08819" lon="0.58978">
        <ele>144</ele>
        <time>2014-04-27T08:56:59Z</time>
      </trkpt>
      <trkpt lat="45.08815" lon="0.58995">
        <ele>145</ele>
        <time>2014-04-27T08:57:10Z</time>
      </trkpt>
      <trkpt lat="45.0881" lon="0.59016">
        <ele>151</ele>
        <time>2014-04-27T08:57:23Z</time>
      </trkpt>
      <trkpt lat="45.08809" lon="0.59028">
        <ele>152</ele>
        <time>2014-04-27T08:57:29Z</time>
      </trkpt>
      <trkpt lat="45.08806" lon="0.5904">
        <ele>153</ele>
        <time>2014-04-27T08:57:35Z</time>
      </trkpt>
      <trkpt lat="45.08805" lon="0.59057">
        <ele>154</ele>
        <time>2014-04-27T08:57:43Z</time>
      </trkpt>
      <trkpt lat="45.08806" lon="0.59091">
        <ele>160</ele>
        <time>2014-04-27T08:57:58Z</time>
      </trkpt>
      <trkpt lat="45.08815" lon="0.59116">
        <ele>162</ele>
        <time>2014-04-27T08:58:11Z</time>
      </trkpt>
      <trkpt lat="45.08827" lon="0.59143">
        <ele>164</ele>
        <time>2014-04-27T08:58:25Z</time>
      </trkpt>
      <trkpt lat="45.08844" lon="0.59174">
        <ele>166</ele>
        <time>2014-04-27T08:58:39Z</time>
      </trkpt>
      <trkpt lat="45.08865" lon="0.59199">
        <ele>167</ele>
        <time>2014-04-27T08:58:53Z</time>
      </trkpt>
      <trkpt lat="45.08887" lon="0.59222">
        <ele>168</ele>
        <time>2014-04-27T08:59:06Z</time>
      </trkpt>
      <trkpt lat="45.08906" lon="0.59244">
        <ele>170</ele>
        <time>2014-04-27T08:59:19Z</time>
      </trkpt>
      <trkpt lat="45.08924" lon="0.59274">
        <ele>171</ele>
        <time>2014-04-27T08:59:32Z</time>
      </trkpt>
      <trkpt lat="45.08934" lon="0.59303">
        <ele>172</ele>
        <time>2014-04-27T08:59:44Z</time>
      </trkpt>
      <trkpt lat="45.08936" lon="0.59312">
        <ele>173</ele>
        <time>2014-04-27T08:59:48Z</time>
      </trkpt>
      <trkpt lat="45.0894" lon="0.5933">
        <ele>173</ele>
        <time>2014-04-27T08:59:56Z</time>
      </trkpt>
      <trkpt lat="45.08942" lon="0.59363">
        <ele>177</ele>
        <time>2014-04-27T09:00:08Z</time>
      </trkpt>
      <trkpt lat="45.08944" lon="0.59404">
        <ele>179</ele>
        <time>2014-04-27T09:00:21Z</time>
      </trkpt>
      <trkpt lat="45.0895" lon="0.59448">
        <ele>184</ele>
        <time>2014-04-27T09:00:34Z</time>
      </trkpt>
      <trkpt lat="45.08959" lon="0.59489">
        <ele>185</ele>
        <time>2014-04-27T09:00:46Z</time>
      </trkpt>
      <trkpt lat="45.08976" lon="0.59543">
        <ele>189</ele>
        <time>2014-04-27T09:01:02Z</time>
      </trkpt>
      <trkpt lat="45.09008" lon="0.59573">
        <ele>192</ele>
        <time>2014-04-27T09:01:15Z</time>
      </trkpt>
      <trkpt lat="45.09024" lon="0.59601">
        <ele>194</ele>
        <time>2014-04-27T09:01:26Z</time>
      </trkpt>
      <trkpt lat="45.09047" lon="0.59635">
        <ele>194</ele>
        <time>2014-04-27T09:01:37Z</time>
      </trkpt>
      <trkpt lat="45.09052" lon="0.59641">
        <ele>194</ele>
        <time>2014-04-27T09:01:39Z</time>
      </trkpt>
      <trkpt lat="45.09066" lon="0.59654">
        <ele>195</ele>
        <time>2014-04-27T09:01:44Z</time>
      </trkpt>
      <trkpt lat="45.09106" lon="0.59692">
        <ele>193</ele>
        <time>2014-04-27T09:01:55Z</time>
      </trkpt>
      <trkpt lat="45.09115" lon="0.59701">
        <ele>193</ele>
        <time>2014-04-27T09:01:57Z</time>
      </trkpt>
      <trkpt lat="45.09129" lon="0.59718">
        <ele>192</ele>
        <time>2014-04-27T09:02:01Z</time>
      </trkpt>
      <trkpt lat="45.09143" lon="0.59736">
        <ele>192</ele>
        <time>2014-04-27T09:02:05Z</time>
      </trkpt>
      <trkpt lat="45.09177" lon="0.59776">
        <ele>190</ele>
        <time>2014-04-27T09:02:14Z</time>
      </trkpt>
      <trkpt lat="45.09235" lon="0.59837">
        <ele>190</ele>
        <time>2014-04-27T09:02:29Z</time>
      </trkpt>
      <trkpt lat="45.09264" lon="0.59859">
        <ele>189</ele>
        <time>2014-04-27T09:02:35Z</time>
      </trkpt>
      <trkpt lat="45.09285" lon="0.5988">
        <ele>189</ele>
        <time>2014-04-27T09:02:39Z</time>
      </trkpt>
      <trkpt lat="45.09297" lon="0.59891">
        <ele>189</ele>
        <time>2014-04-27T09:02:41Z</time>
      </trkpt>
      <trkpt lat="45.0931" lon="0.59903">
        <ele>188</ele>
        <time>2014-04-27T09:02:43Z</time>
      </trkpt>
      <trkpt lat="45.09344" lon="0.59946">
        <ele>182</ele>
        <time>2014-04-27T09:02:48Z</time>
      </trkpt>
      <trkpt lat="45.09381" lon="0.59977">
        <ele>180</ele>
        <time>2014-04-27T09:02:52Z</time>
      </trkpt>
      <trkpt lat="45.09391" lon="0.59984">
        <ele>179</ele>
        <time>2014-04-27T09:02:53Z</time>
      </trkpt>
      <trkpt lat="45.09452" lon="0.60067">
        <ele>177</ele>
        <time>2014-04-27T09:03:03Z</time>
      </trkpt>
      <trkpt lat="45.09488" lon="0.60123">
        <ele>180</ele>
        <time>2014-04-27T09:03:15Z</time>
      </trkpt>
      <trkpt lat="45.09514" lon="0.60161">
        <ele>185</ele>
        <time>2014-04-27T09:03:28Z</time>
      </trkpt>
      <trkpt lat="45.09535" lon="0.60186">
        <ele>188</ele>
        <time>2014-04-27T09:03:40Z</time>
      </trkpt>
      <trkpt lat="45.09557" lon="0.60212">
        <ele>189</ele>
        <time>2014-04-27T09:03:51Z</time>
      </trkpt>
      <trkpt lat="45.09574" lon="0.60242">
        <ele>192</ele>
        <time>2014-04-27T09:04:04Z</time>
      </trkpt>
      <trkpt lat="45.09592" lon="0.60292">
        <ele>197</ele>
        <time>2014-04-27T09:04:21Z</time>
      </trkpt>
      <trkpt lat="45.09607" lon="0.60343">
        <ele>198</ele>
        <time>2014-04-27T09:04:35Z</time>
      </trkpt>
      <trkpt lat="45.09632" lon="0.60379">
        <ele>199</ele>
        <time>2014-04-27T09:04:47Z</time>
      </trkpt>
      <trkpt lat="45.09657" lon="0.6043">
        <ele>199</ele>
        <time>2014-04-27T09:04:59Z</time>
      </trkpt>
      <trkpt lat="45.09676" lon="0.60493">
        <ele>200</ele>
        <time>2014-04-27T09:05:11Z</time>
      </trkpt>
      <trkpt lat="45.09682" lon="0.60532">
        <ele>200</ele>
        <time>2014-04-27T09:05:18Z</time>
      </trkpt>
      <trkpt lat="45.09684" lon="0.60574">
        <ele>199</ele>
        <time>2014-04-27T09:05:25Z</time>
      </trkpt>
      <trkpt lat="45.0969" lon="0.60676">
        <ele>200</ele>
        <time>2014-04-27T09:05:41Z</time>
      </trkpt>
      <trkpt lat="45.09696" lon="0.60768">
        <ele>202</ele>
        <time>2014-04-27T09:05:57Z</time>
      </trkpt>
      <trkpt lat="45.09706" lon="0.60865">
        <ele>203</ele>
        <time>2014-04-27T09:06:15Z</time>
      </trkpt>
      <trkpt lat="45.09729" lon="0.60945">
        <ele>204</ele>
        <time>2014-04-27T09:06:30Z</time>
      </trkpt>
      <trkpt lat="45.0975" lon="0.60999">
        <ele>204</ele>
        <time>2014-04-27T09:06:40Z</time>
      </trkpt>
      <trkpt lat="45.09765" lon="0.61036">
        <ele>202</ele>
        <time>2014-04-27T09:06:46Z</time>
      </trkpt>
      <trkpt lat="45.09773" lon="0.61067">
        <ele>202</ele>
        <time>2014-04-27T09:06:51Z</time>
      </trkpt>
      <trkpt lat="45.09773" lon="0.6119">
        <ele>198</ele>
        <time>2014-04-27T09:07:05Z</time>
      </trkpt>
      <trkpt lat="45.09771" lon="0.61207">
        <ele>198</ele>
        <time>2014-04-27T09:07:07Z</time>
      </trkpt>
      <trkpt lat="45.09766" lon="0.61229">
        <ele>197</ele>
        <time>2014-04-27T09:07:10Z</time>
      </trkpt>
      <trkpt lat="45.09744" lon="0.61318">
        <ele>195</ele>
        <time>2014-04-27T09:07:21Z</time>
      </trkpt>
      <trkpt lat="45.09741" lon="0.61346">
        <ele>195</ele>
        <time>2014-04-27T09:07:24Z</time>
      </trkpt>
      <trkpt lat="45.09743" lon="0.61392">
        <ele>196</ele>
        <time>2014-04-27T09:07:30Z</time>
      </trkpt>
      <trkpt lat="45.09743" lon="0.61406">
        <ele>196</ele>
        <time>2014-04-27T09:07:32Z</time>
      </trkpt>
      <trkpt lat="45.09748" lon="0.61429">
        <ele>197</ele>
        <time>2014-04-27T09:07:36Z</time>
      </trkpt>
      <trkpt lat="45.0976" lon="0.61507">
        <ele>200</ele>
        <time>2014-04-27T09:07:49Z</time>
      </trkpt>
      <trkpt lat="45.09771" lon="0.61568">
        <ele>202</ele>
        <time>2014-04-27T09:08:00Z</time>
      </trkpt>
      <trkpt lat="45.09794" lon="0.61644">
        <ele>203</ele>
        <time>2014-04-27T09:08:14Z</time>
      </trkpt>
      <trkpt lat="45.09796" lon="0.61649">
        <ele>203</ele>
        <time>2014-04-27T09:08:15Z</time>
      </trkpt>
      <trkpt lat="45.09802" lon="0.6166">
        <ele>202</ele>
        <time>2014-04-27T09:08:17Z</time>
      </trkpt>
      <trkpt lat="45.09841" lon="0.61715">
        <ele>197</ele>
        <time>2014-04-27T09:08:26Z</time>
      </trkpt>
      <trkpt lat="45.09848" lon="0.61728">
        <ele>197</ele>
        <time>2014-04-27T09:08:28Z</time>
      </trkpt>
      <trkpt lat="45.09899" lon="0.61817">
        <ele>198</ele>
        <time>2014-04-27T09:08:42Z</time>
      </trkpt>
      <trkpt lat="45.09902" lon="0.61823">
        <ele>199</ele>
        <time>2014-04-27T09:08:43Z</time>
      </trkpt>
      <trkpt lat="45.09912" lon="0.61842">
        <ele>199</ele>
        <time>2014-04-27T09:08:46Z</time>
      </trkpt>
      <trkpt lat="45.09963" lon="0.61922">
        <ele>201</ele>
        <time>2014-04-27T09:09:01Z</time>
      </trkpt>
      <trkpt lat="45.09974" lon="0.61937">
        <ele>201</ele>
        <time>2014-04-27T09:09:04Z</time>
      </trkpt>
      <trkpt lat="45.0998" lon="0.61948">
        <ele>201</ele>
        <time>2014-04-27T09:09:06Z</time>
      </trkpt>
      <trkpt lat="45.09997" lon="0.6203">
        <ele>201</ele>
        <time>2014-04-27T09:09:19Z</time>
      </trkpt>
      <trkpt lat="45.09998" lon="0.62037">
        <ele>201</ele>
        <time>2014-04-27T09:09:20Z</time>
      </trkpt>
      <trkpt lat="45.10009" lon="0.62062">
        <ele>202</ele>
        <time>2014-04-27T09:09:24Z</time>
      </trkpt>
      <trkpt lat="45.10032" lon="0.62113">
        <ele>199</ele>
        <time>2014-04-27T09:09:32Z</time>
      </trkpt>
      <trkpt lat="45.10036" lon="0.62118">
        <ele>199</ele>
        <time>2014-04-27T09:09:33Z</time>
      </trkpt>
      <trkpt lat="45.1004" lon="0.62122">
        <ele>199</ele>
        <time>2014-04-27T09:09:34Z</time>
      </trkpt>
      <trkpt lat="45.10044" lon="0.62125">
        <ele>199</ele>
        <time>2014-04-27T09:09:35Z</time>
      </trkpt>
      <trkpt lat="45.10048" lon="0.62127">
        <ele>199</ele>
        <time>2014-04-27T09:09:36Z</time>
      </trkpt>
      <trkpt lat="45.10115" lon="0.62173">
        <ele>201</ele>
        <time>2014-04-27T09:09:52Z</time>
      </trkpt>
      <trkpt lat="45.10176" lon="0.62218">
        <ele>202</ele>
        <time>2014-04-27T09:10:07Z</time>
      </trkpt>
      <trkpt lat="45.10224" lon="0.62232">
        <ele>203</ele>
        <time>2014-04-27T09:10:21Z</time>
      </trkpt>
      <trkpt lat="45.10256" lon="0.62238">
        <ele>205</ele>
        <time>2014-04-27T09:10:32Z</time>
      </trkpt>
      <trkpt lat="45.10292" lon="0.62224">
        <ele>206</ele>
        <time>2014-04-27T09:10:44Z</time>
      </trkpt>
      <trkpt lat="45.10337" lon="0.62211">
        <ele>208</ele>
        <time>2014-04-27T09:10:57Z</time>
      </trkpt>
      <trkpt lat="45.10378" lon="0.62201">
        <ele>209</ele>
        <time>2014-04-27T09:11:09Z</time>
      </trkpt>
      <trkpt lat="45.10415" lon="0.62209">
        <ele>209</ele>
        <time>2014-04-27T09:11:20Z</time>
      </trkpt>
      <trkpt lat="45.10452" lon="0.62199">
        <ele>212</ele>
        <time>2014-04-27T09:11:31Z</time>
      </trkpt>
      <trkpt lat="45.1047" lon="0.62151">
        <ele>210</ele>
        <time>2014-04-27T09:11:42Z</time>
      </trkpt>
      <trkpt lat="45.10499" lon="0.62088">
        <ele>210</ele>
        <time>2014-04-27T09:11:55Z</time>
      </trkpt>
      <trkpt lat="45.10507" lon="0.62075">
        <ele>210</ele>
        <time>2014-04-27T09:11:58Z</time>
      </trkpt>
      <trkpt lat="45.10525" lon="0.62046">
        <ele>209</ele>
        <time>2014-04-27T09:12:04Z</time>
      </trkpt>
      <trkpt lat="45.10531" lon="0.62038">
        <ele>209</ele>
        <time>2014-04-27T09:12:06Z</time>
      </trkpt>
      <trkpt lat="45.10544" lon="0.62028">
        <ele>209</ele>
        <time>2014-04-27T09:12:09Z</time>
      </trkpt>
      <trkpt lat="45.10577" lon="0.62035">
        <ele>210</ele>
        <time>2014-04-27T09:12:16Z</time>
      </trkpt>
      <trkpt lat="45.10614" lon="0.62079">
        <ele>209</ele>
        <time>2014-04-27T09:12:26Z</time>
      </trkpt>
      <trkpt lat="45.10644" lon="0.62126">
        <ele>210</ele>
        <time>2014-04-27T09:12:34Z</time>
      </trkpt>
      <trkpt lat="45.10653" lon="0.62154">
        <ele>210</ele>
        <time>2014-04-27T09:12:38Z</time>
      </trkpt>
      <trkpt lat="45.10654" lon="0.62161">
        <ele>210</ele>
        <time>2014-04-27T09:12:39Z</time>
      </trkpt>
      <trkpt lat="45.10654" lon="0.62167">
        <ele>211</ele>
        <time>2014-04-27T09:12:40Z</time>
      </trkpt>
      <trkpt lat="45.10653" lon="0.62173">
        <ele>211</ele>
        <time>2014-04-27T09:12:41Z</time>
      </trkpt>
      <trkpt lat="45.10653" lon="0.6218">
        <ele>211</ele>
        <time>2014-04-27T09:12:42Z</time>
      </trkpt>
      <trkpt lat="45.10655" lon="0.62222">
        <ele>211</ele>
        <time>2014-04-27T09:12:49Z</time>
      </trkpt>
      <trkpt lat="45.10654" lon="0.62234">
        <ele>211</ele>
        <time>2014-04-27T09:12:51Z</time>
      </trkpt>
      <trkpt lat="45.10655" lon="0.62307">
        <ele>209</ele>
        <time>2014-04-27T09:13:02Z</time>
      </trkpt>
      <trkpt lat="45.10662" lon="0.624">
        <ele>207</ele>
        <time>2014-04-27T09:13:14Z</time>
      </trkpt>
      <trkpt lat="45.10669" lon="0.62444">
        <ele>205</ele>
        <time>2014-04-27T09:13:19Z</time>
      </trkpt>
      <trkpt lat="45.10671" lon="0.62453">
        <ele>205</ele>
        <time>2014-04-27T09:13:20Z</time>
      </trkpt>
      <trkpt lat="45.10673" lon="0.62461">
        <ele>205</ele>
        <time>2014-04-27T09:13:21Z</time>
      </trkpt>
      <trkpt lat="45.10676" lon="0.62469">
        <ele>205</ele>
        <time>2014-04-27T09:13:22Z</time>
      </trkpt>
      <trkpt lat="45.10679" lon="0.62476">
        <ele>205</ele>
        <time>2014-04-27T09:13:23Z</time>
      </trkpt>
      <trkpt lat="45.10738" lon="0.62561">
        <ele>207</ele>
        <time>2014-04-27T09:13:37Z</time>
      </trkpt>
      <trkpt lat="45.10741" lon="0.62568">
        <ele>207</ele>
        <time>2014-04-27T09:13:38Z</time>
      </trkpt>
      <trkpt lat="45.10742" lon="0.62575">
        <ele>207</ele>
        <time>2014-04-27T09:13:39Z</time>
      </trkpt>
      <trkpt lat="45.1074" lon="0.62581">
        <ele>207</ele>
        <time>2014-04-27T09:13:40Z</time>
      </trkpt>
      <trkpt lat="45.10736" lon="0.62585">
        <ele>208</ele>
        <time>2014-04-27T09:13:41Z</time>
      </trkpt>
      <trkpt lat="45.10731" lon="0.62588">
        <ele>208</ele>
        <time>2014-04-27T09:13:42Z</time>
      </trkpt>
      <trkpt lat="45.10722" lon="0.62595">
        <ele>208</ele>
        <time>2014-04-27T09:13:44Z</time>
      </trkpt>
      <trkpt lat="45.10719" lon="0.62599">
        <ele>208</ele>
        <time>2014-04-27T09:13:45Z</time>
      </trkpt>
      <trkpt lat="45.10716" lon="0.62604">
        <ele>208</ele>
        <time>2014-04-27T09:13:46Z</time>
      </trkpt>
      <trkpt lat="45.10714" lon="0.62609">
        <ele>208</ele>
        <time>2014-04-27T09:13:47Z</time>
      </trkpt>
      <trkpt lat="45.10713" lon="0.62616">
        <ele>208</ele>
        <time>2014-04-27T09:13:48Z</time>
      </trkpt>
      <trkpt lat="45.10713" lon="0.62622">
        <ele>208</ele>
        <time>2014-04-27T09:13:49Z</time>
      </trkpt>
      <trkpt lat="45.10712" lon="0.62628">
        <ele>208</ele>
        <time>2014-04-27T09:13:50Z</time>
      </trkpt>
      <trkpt lat="45.1071" lon="0.62635">
        <ele>208</ele>
        <time>2014-04-27T09:13:51Z</time>
      </trkpt>
      <trkpt lat="45.10708" lon="0.62641">
        <ele>208</ele>
        <time>2014-04-27T09:13:52Z</time>
      </trkpt>
      <trkpt lat="45.10704" lon="0.62646">
        <ele>208</ele>
        <time>2014-04-27T09:13:53Z</time>
      </trkpt>
      <trkpt lat="45.10681" lon="0.62682">
        <ele>207</ele>
        <time>2014-04-27T09:13:59Z</time>
      </trkpt>
      <trkpt lat="45.10679" lon="0.62689">
        <ele>206</ele>
        <time>2014-04-27T09:14:00Z</time>
      </trkpt>
      <trkpt lat="45.10678" lon="0.62696">
        <ele>206</ele>
        <time>2014-04-27T09:14:01Z</time>
      </trkpt>
      <trkpt lat="45.10679" lon="0.62702">
        <ele>206</ele>
        <time>2014-04-27T09:14:02Z</time>
      </trkpt>
      <trkpt lat="45.10682" lon="0.62708">
        <ele>206</ele>
        <time>2014-04-27T09:14:03Z</time>
      </trkpt>
      <trkpt lat="45.10685" lon="0.62712">
        <ele>206</ele>
        <time>2014-04-27T09:14:04Z</time>
      </trkpt>
      <trkpt lat="45.10687" lon="0.62715">
        <ele>206</ele>
        <time>2014-04-27T09:14:05Z</time>
      </trkpt>
      <trkpt lat="45.10689" lon="0.62718">
        <ele>206</ele>
        <time>2014-04-27T09:14:06Z</time>
      </trkpt>
      <trkpt lat="45.10718" lon="0.6276">
        <ele>203</ele>
        <time>2014-04-27T09:14:16Z</time>
      </trkpt>
      <trkpt lat="45.10781" lon="0.62865">
        <ele>203</ele>
        <time>2014-04-27T09:14:31Z</time>
      </trkpt>
      <trkpt lat="45.10862" lon="0.62944">
        <ele>204</ele>
        <time>2014-04-27T09:14:46Z</time>
      </trkpt>
      <trkpt lat="45.10932" lon="0.62996">
        <ele>204</ele>
        <time>2014-04-27T09:15:00Z</time>
      </trkpt>
      <trkpt lat="45.10967" lon="0.63019">
        <ele>202</ele>
        <time>2014-04-27T09:15:06Z</time>
      </trkpt>
      <trkpt lat="45.10973" lon="0.63025">
        <ele>202</ele>
        <time>2014-04-27T09:15:07Z</time>
      </trkpt>
      <trkpt lat="45.10978" lon="0.63032">
        <ele>202</ele>
        <time>2014-04-27T09:15:08Z</time>
      </trkpt>
      <trkpt lat="45.11053" lon="0.63153">
        <ele>203</ele>
        <time>2014-04-27T09:15:25Z</time>
      </trkpt>
      <trkpt lat="45.11085" lon="0.63204">
        <ele>208</ele>
        <time>2014-04-27T09:15:34Z</time>
      </trkpt>
      <trkpt lat="45.11117" lon="0.63256">
        <ele>212</ele>
        <time>2014-04-27T09:15:45Z</time>
      </trkpt>
      <trkpt lat="45.11145" lon="0.63335">
        <ele>214</ele>
        <time>2014-04-27T09:16:01Z</time>
      </trkpt>
      <trkpt lat="45.11148" lon="0.63418">
        <ele>213</ele>
        <time>2014-04-27T09:16:16Z</time>
      </trkpt>
      <trkpt lat="45.11149" lon="0.6342">
        <ele>213</ele>
        <time>2014-04-27T09:16:17Z</time>
      </trkpt>
      <trkpt lat="45.11151" lon="0.63421">
        <ele>213</ele>
        <time>2014-04-27T09:16:18Z</time>
      </trkpt>
      <trkpt lat="45.11153" lon="0.63423">
        <ele>213</ele>
        <time>2014-04-27T09:16:19Z</time>
      </trkpt>
      <trkpt lat="45.11154" lon="0.63423">
        <ele>213</ele>
        <time>2014-04-27T09:16:20Z</time>
      </trkpt>
      <trkpt lat="45.11154" lon="0.63422">
        <ele>213</ele>
        <time>2014-04-27T09:16:30Z</time>
      </trkpt>
      <trkpt lat="45.11151" lon="0.63422">
        <ele>213</ele>
        <time>2014-04-27T09:17:15Z</time>
      </trkpt>
      <trkpt lat="45.1115" lon="0.63422">
        <ele>213</ele>
        <time>2014-04-27T09:17:53Z</time>
      </trkpt>
      <trkpt lat="45.11149" lon="0.63422">
        <ele>213</ele>
        <time>2014-04-27T09:18:19Z</time>
      </trkpt>
      <trkpt lat="45.1115" lon="0.63422">
        <ele>213</ele>
        <time>2014-04-27T09:18:52Z</time>
      </trkpt>
      <trkpt lat="45.11152" lon="0.63425">
        <ele>213</ele>
        <time>2014-04-27T09:19:17Z</time>
      </trkpt>
      <trkpt lat="45.11153" lon="0.63428">
        <ele>213</ele>
        <time>2014-04-27T09:19:18Z</time>
      </trkpt>
      <trkpt lat="45.11155" lon="0.6343">
        <ele>213</ele>
        <time>2014-04-27T09:19:19Z</time>
      </trkpt>
      <trkpt lat="45.11158" lon="0.63433">
        <ele>213</ele>
        <time>2014-04-27T09:19:20Z</time>
      </trkpt>
      <trkpt lat="45.11161" lon="0.63437">
        <ele>213</ele>
        <time>2014-04-27T09:19:21Z</time>
      </trkpt>
      <trkpt lat="45.11166" lon="0.63441">
        <ele>213</ele>
        <time>2014-04-27T09:19:22Z</time>
      </trkpt>
      <trkpt lat="45.11193" lon="0.63469">
        <ele>212</ele>
        <time>2014-04-27T09:19:27Z</time>
      </trkpt>
      <trkpt lat="45.11198" lon="0.63475">
        <ele>212</ele>
        <time>2014-04-27T09:19:28Z</time>
      </trkpt>
      <trkpt lat="45.11249" lon="0.63519">
        <ele>211</ele>
        <time>2014-04-27T09:19:37Z</time>
      </trkpt>
      <trkpt lat="45.11275" lon="0.63542">
        <ele>208</ele>
        <time>2014-04-27T09:19:42Z</time>
      </trkpt>
      <trkpt lat="45.11299" lon="0.63563">
        <ele>208</ele>
        <time>2014-04-27T09:19:47Z</time>
      </trkpt>
      <trkpt lat="45.11349" lon="0.63618">
        <ele>210</ele>
        <time>2014-04-27T09:20:00Z</time>
      </trkpt>
      <trkpt lat="45.11355" lon="0.63626">
        <ele>210</ele>
        <time>2014-04-27T09:20:02Z</time>
      </trkpt>
      <trkpt lat="45.1137" lon="0.63626">
        <ele>210</ele>
        <time>2014-04-27T09:20:06Z</time>
      </trkpt>
      <trkpt lat="45.11387" lon="0.63618">
        <ele>209</ele>
        <time>2014-04-27T09:20:10Z</time>
      </trkpt>
      <trkpt lat="45.1143" lon="0.63591">
        <ele>209</ele>
        <time>2014-04-27T09:20:23Z</time>
      </trkpt>
      <trkpt lat="45.11475" lon="0.63548">
        <ele>212</ele>
        <time>2014-04-27T09:20:37Z</time>
      </trkpt>
      <trkpt lat="45.11515" lon="0.6351">
        <ele>216</ele>
        <time>2014-04-27T09:20:50Z</time>
      </trkpt>
      <trkpt lat="45.11569" lon="0.63485">
        <ele>216</ele>
        <time>2014-04-27T09:21:06Z</time>
      </trkpt>
      <trkpt lat="45.11605" lon="0.63473">
        <ele>217</ele>
        <time>2014-04-27T09:21:18Z</time>
      </trkpt>
      <trkpt lat="45.11655" lon="0.6345">
        <ele>219</ele>
        <time>2014-04-27T09:21:33Z</time>
      </trkpt>
      <trkpt lat="45.11689" lon="0.6345">
        <ele>220</ele>
        <time>2014-04-27T09:21:43Z</time>
      </trkpt>
      <trkpt lat="45.11716" lon="0.63477">
        <ele>220</ele>
        <time>2014-04-27T09:21:52Z</time>
      </trkpt>
      <trkpt lat="45.11728" lon="0.63475">
        <ele>220</ele>
        <time>2014-04-27T09:21:55Z</time>
      </trkpt>
      <trkpt lat="45.11752" lon="0.63458">
        <ele>220</ele>
        <time>2014-04-27T09:22:01Z</time>
      </trkpt>
      <trkpt lat="45.11808" lon="0.63415">
        <ele>220</ele>
        <time>2014-04-27T09:22:15Z</time>
      </trkpt>
      <trkpt lat="45.11841" lon="0.63384">
        <ele>220</ele>
        <time>2014-04-27T09:22:22Z</time>
      </trkpt>
      <trkpt lat="45.11854" lon="0.63385">
        <ele>219</ele>
        <time>2014-04-27T09:22:25Z</time>
      </trkpt>
      <trkpt lat="45.11858" lon="0.6339">
        <ele>219</ele>
        <time>2014-04-27T09:22:26Z</time>
      </trkpt>
      <trkpt lat="45.11863" lon="0.63395">
        <ele>219</ele>
        <time>2014-04-27T09:22:27Z</time>
      </trkpt>
      <trkpt lat="45.11868" lon="0.634">
        <ele>219</ele>
        <time>2014-04-27T09:22:28Z</time>
      </trkpt>
      <trkpt lat="45.11874" lon="0.63405">
        <ele>219</ele>
        <time>2014-04-27T09:22:29Z</time>
      </trkpt>
      <trkpt lat="45.1188" lon="0.63409">
        <ele>219</ele>
        <time>2014-04-27T09:22:30Z</time>
      </trkpt>
      <trkpt lat="45.11886" lon="0.63411">
        <ele>219</ele>
        <time>2014-04-27T09:22:31Z</time>
      </trkpt>
      <trkpt lat="45.11893" lon="0.63411">
        <ele>219</ele>
        <time>2014-04-27T09:22:32Z</time>
      </trkpt>
      <trkpt lat="45.119" lon="0.63411">
        <ele>219</ele>
        <time>2014-04-27T09:22:33Z</time>
      </trkpt>
      <trkpt lat="45.11906" lon="0.6341">
        <ele>219</ele>
        <time>2014-04-27T09:22:34Z</time>
      </trkpt>
      <trkpt lat="45.11919" lon="0.63408">
        <ele>219</ele>
        <time>2014-04-27T09:22:36Z</time>
      </trkpt>
      <trkpt lat="45.11945" lon="0.63402">
        <ele>219</ele>
        <time>2014-04-27T09:22:41Z</time>
      </trkpt>
      <trkpt lat="45.11953" lon="0.63398">
        <ele>220</ele>
        <time>2014-04-27T09:22:43Z</time>
      </trkpt>
      <trkpt lat="45.12006" lon="0.63368">
        <ele>220</ele>
        <time>2014-04-27T09:22:56Z</time>
      </trkpt>
      <trkpt lat="45.12027" lon="0.63322">
        <ele>218</ele>
        <time>2014-04-27T09:23:04Z</time>
      </trkpt>
      <trkpt lat="45.12052" lon="0.63239">
        <ele>214</ele>
        <time>2014-04-27T09:23:15Z</time>
      </trkpt>
      <trkpt lat="45.12058" lon="0.63222">
        <ele>213</ele>
        <time>2014-04-27T09:23:17Z</time>
      </trkpt>
      <trkpt lat="45.12068" lon="0.63195">
        <ele>213</ele>
        <time>2014-04-27T09:23:20Z</time>
      </trkpt>
      <trkpt lat="45.12108" lon="0.63135">
        <ele>208</ele>
        <time>2014-04-27T09:23:28Z</time>
      </trkpt>
      <trkpt lat="45.12111" lon="0.63128">
        <ele>208</ele>
        <time>2014-04-27T09:23:29Z</time>
      </trkpt>
      <trkpt lat="45.12113" lon="0.6312">
        <ele>208</ele>
        <time>2014-04-27T09:23:30Z</time>
      </trkpt>
      <trkpt lat="45.12118" lon="0.63102">
        <ele>207</ele>
        <time>2014-04-27T09:23:32Z</time>
      </trkpt>
      <trkpt lat="45.1216" lon="0.62979">
        <ele>210</ele>
        <time>2014-04-27T09:23:46Z</time>
      </trkpt>
      <trkpt lat="45.12184" lon="0.62919">
        <ele>205</ele>
        <time>2014-04-27T09:23:53Z</time>
      </trkpt>
      <trkpt lat="45.122" lon="0.62895">
        <ele>204</ele>
        <time>2014-04-27T09:23:56Z</time>
      </trkpt>
      <trkpt lat="45.12233" lon="0.6285">
        <ele>202</ele>
        <time>2014-04-27T09:24:01Z</time>
      </trkpt>
      <trkpt lat="45.12265" lon="0.62795">
        <ele>195</ele>
        <time>2014-04-27T09:24:06Z</time>
      </trkpt>
      <trkpt lat="45.1227" lon="0.62782">
        <ele>195</ele>
        <time>2014-04-27T09:24:07Z</time>
      </trkpt>
      <trkpt lat="45.12273" lon="0.62768">
        <ele>195</ele>
        <time>2014-04-27T09:24:08Z</time>
      </trkpt>
      <trkpt lat="45.12275" lon="0.62754">
        <ele>195</ele>
        <time>2014-04-27T09:24:09Z</time>
      </trkpt>
      <trkpt lat="45.12274" lon="0.6274">
        <ele>194</ele>
        <time>2014-04-27T09:24:10Z</time>
      </trkpt>
      <trkpt lat="45.12272" lon="0.62727">
        <ele>193</ele>
        <time>2014-04-27T09:24:11Z</time>
      </trkpt>
      <trkpt lat="45.1227" lon="0.62715">
        <ele>192</ele>
        <time>2014-04-27T09:24:12Z</time>
      </trkpt>
      <trkpt lat="45.12269" lon="0.62703">
        <ele>192</ele>
        <time>2014-04-27T09:24:13Z</time>
      </trkpt>
      <trkpt lat="45.1227" lon="0.62692">
        <ele>191</ele>
        <time>2014-04-27T09:24:14Z</time>
      </trkpt>
      <trkpt lat="45.12272" lon="0.62681">
        <ele>191</ele>
        <time>2014-04-27T09:24:15Z</time>
      </trkpt>
      <trkpt lat="45.12288" lon="0.62654">
        <ele>186</ele>
        <time>2014-04-27T09:24:18Z</time>
      </trkpt>
      <trkpt lat="45.12325" lon="0.62616">
        <ele>184</ele>
        <time>2014-04-27T09:24:23Z</time>
      </trkpt>
      <trkpt lat="45.12332" lon="0.62609">
        <ele>184</ele>
        <time>2014-04-27T09:24:24Z</time>
      </trkpt>
      <trkpt lat="45.12361" lon="0.62609">
        <ele>180</ele>
        <time>2014-04-27T09:24:28Z</time>
      </trkpt>
      <trkpt lat="45.12369" lon="0.62612">
        <ele>179</ele>
        <time>2014-04-27T09:24:29Z</time>
      </trkpt>
      <trkpt lat="45.12393" lon="0.626">
        <ele>177</ele>
        <time>2014-04-27T09:24:33Z</time>
      </trkpt>
      <trkpt lat="45.12418" lon="0.62572">
        <ele>172</ele>
        <time>2014-04-27T09:24:37Z</time>
      </trkpt>
      <trkpt lat="45.12434" lon="0.62547">
        <ele>169</ele>
        <time>2014-04-27T09:24:40Z</time>
      </trkpt>
      <trkpt lat="45.12438" lon="0.62535">
        <ele>169</ele>
        <time>2014-04-27T09:24:41Z</time>
      </trkpt>
      <trkpt lat="45.12454" lon="0.62484">
        <ele>165</ele>
        <time>2014-04-27T09:24:45Z</time>
      </trkpt>
      <trkpt lat="45.12464" lon="0.62456">
        <ele>163</ele>
        <time>2014-04-27T09:24:47Z</time>
      </trkpt>
      <trkpt lat="45.12475" lon="0.6243">
        <ele>160</ele>
        <time>2014-04-27T09:24:49Z</time>
      </trkpt>
      <trkpt lat="45.12504" lon="0.62401">
        <ele>154</ele>
        <time>2014-04-27T09:24:53Z</time>
      </trkpt>
      <trkpt lat="45.12523" lon="0.62394">
        <ele>153</ele>
        <time>2014-04-27T09:24:55Z</time>
      </trkpt>
      <trkpt lat="45.12554" lon="0.62387">
        <ele>153</ele>
        <time>2014-04-27T09:24:59Z</time>
      </trkpt>
      <trkpt lat="45.12647" lon="0.62341">
        <ele>152</ele>
        <time>2014-04-27T09:25:13Z</time>
      </trkpt>
      <trkpt lat="45.12747" lon="0.62283">
        <ele>151</ele>
        <time>2014-04-27T09:25:28Z</time>
      </trkpt>
      <trkpt lat="45.12787" lon="0.62261">
        <ele>154</ele>
        <time>2014-04-27T09:25:34Z</time>
      </trkpt>
      <trkpt lat="45.128" lon="0.62252">
        <ele>154</ele>
        <time>2014-04-27T09:25:36Z</time>
      </trkpt>
      <trkpt lat="45.12844" lon="0.62226">
        <ele>154</ele>
        <time>2014-04-27T09:25:43Z</time>
      </trkpt>
      <trkpt lat="45.12911" lon="0.62132">
        <ele>148</ele>
        <time>2014-04-27T09:25:57Z</time>
      </trkpt>
      <trkpt lat="45.12976" lon="0.61984">
        <ele>144</ele>
        <time>2014-04-27T09:26:13Z</time>
      </trkpt>
      <trkpt lat="45.13052" lon="0.61853">
        <ele>141</ele>
        <time>2014-04-27T09:26:28Z</time>
      </trkpt>
      <trkpt lat="45.13059" lon="0.61846">
        <ele>140</ele>
        <time>2014-04-27T09:26:29Z</time>
      </trkpt>
      <trkpt lat="45.13079" lon="0.61826">
        <ele>138</ele>
        <time>2014-04-27T09:26:32Z</time>
      </trkpt>
      <trkpt lat="45.1316" lon="0.61793">
        <ele>138</ele>
        <time>2014-04-27T09:26:44Z</time>
      </trkpt>
      <trkpt lat="45.1326" lon="0.61767">
        <ele>138</ele>
        <time>2014-04-27T09:27:00Z</time>
      </trkpt>
      <trkpt lat="45.13338" lon="0.61741">
        <ele>135</ele>
        <time>2014-04-27T09:27:13Z</time>
      </trkpt>
      <trkpt lat="45.13368" lon="0.61736">
        <ele>133</ele>
        <time>2014-04-27T09:27:18Z</time>
      </trkpt>
      <trkpt lat="45.13382" lon="0.61738">
        <ele>132</ele>
        <time>2014-04-27T09:27:21Z</time>
      </trkpt>
      <trkpt lat="45.13402" lon="0.61714">
        <ele>132</ele>
        <time>2014-04-27T09:27:27Z</time>
      </trkpt>
      <trkpt lat="45.13403" lon="0.61686">
        <ele>131</ele>
        <time>2014-04-27T09:27:30Z</time>
      </trkpt>
      <trkpt lat="45.13405" lon="0.61677">
        <ele>130</ele>
        <time>2014-04-27T09:27:31Z</time>
      </trkpt>
      <trkpt lat="45.13425" lon="0.61657">
        <ele>130</ele>
        <time>2014-04-27T09:27:36Z</time>
      </trkpt>
      <trkpt lat="45.13464" lon="0.61668">
        <ele>132</ele>
        <time>2014-04-27T09:27:47Z</time>
      </trkpt>
      <trkpt lat="45.1348" lon="0.61691">
        <ele>133</ele>
        <time>2014-04-27T09:27:56Z</time>
      </trkpt>
      <trkpt lat="45.13498" lon="0.61747">
        <ele>134</ele>
        <time>2014-04-27T09:28:11Z</time>
      </trkpt>
      <trkpt lat="45.13515" lon="0.61783">
        <ele>140</ele>
        <time>2014-04-27T09:28:24Z</time>
      </trkpt>
      <trkpt lat="45.13534" lon="0.61815">
        <ele>142</ele>
        <time>2014-04-27T09:28:37Z</time>
      </trkpt>
      <trkpt lat="45.13546" lon="0.61848">
        <ele>141</ele>
        <time>2014-04-27T09:28:50Z</time>
      </trkpt>
      <trkpt lat="45.13567" lon="0.61886">
        <ele>142</ele>
        <time>2014-04-27T09:29:07Z</time>
      </trkpt>
      <trkpt lat="45.13589" lon="0.61908">
        <ele>147</ele>
        <time>2014-04-27T09:29:19Z</time>
      </trkpt>
      <trkpt lat="45.13606" lon="0.61937">
        <ele>149</ele>
        <time>2014-04-27T09:29:32Z</time>
      </trkpt>
      <trkpt lat="45.13619" lon="0.61963">
        <ele>151</ele>
        <time>2014-04-27T09:29:45Z</time>
      </trkpt>
      <trkpt lat="45.13629" lon="0.61982">
        <ele>153</ele>
        <time>2014-04-27T09:29:58Z</time>
      </trkpt>
      <trkpt lat="45.13638" lon="0.61999">
        <ele>155</ele>
        <time>2014-04-27T09:30:09Z</time>
      </trkpt>
      <trkpt lat="45.13649" lon="0.6202">
        <ele>157</ele>
        <time>2014-04-27T09:30:24Z</time>
      </trkpt>
      <trkpt lat="45.13655" lon="0.6204">
        <ele>158</ele>
        <time>2014-04-27T09:30:37Z</time>
      </trkpt>
      <trkpt lat="45.13661" lon="0.62066">
        <ele>162</ele>
        <time>2014-04-27T09:30:52Z</time>
      </trkpt>
      <trkpt lat="45.13668" lon="0.62096">
        <ele>173</ele>
        <time>2014-04-27T09:31:07Z</time>
      </trkpt>
      <trkpt lat="45.1367" lon="0.62109">
        <ele>176</ele>
        <time>2014-04-27T09:31:14Z</time>
      </trkpt>
      <trkpt lat="45.13675" lon="0.62142">
        <ele>176</ele>
        <time>2014-04-27T09:31:29Z</time>
      </trkpt>
      <trkpt lat="45.13679" lon="0.62171">
        <ele>174</ele>
        <time>2014-04-27T09:31:42Z</time>
      </trkpt>
      <trkpt lat="45.13683" lon="0.62202">
        <ele>178</ele>
        <time>2014-04-27T09:31:55Z</time>
      </trkpt>
      <trkpt lat="45.13686" lon="0.6223">
        <ele>177</ele>
        <time>2014-04-27T09:32:05Z</time>
      </trkpt>
      <trkpt lat="45.1369" lon="0.62276">
        <ele>179</ele>
        <time>2014-04-27T09:32:21Z</time>
      </trkpt>
      <trkpt lat="45.13693" lon="0.62315">
        <ele>180</ele>
        <time>2014-04-27T09:32:35Z</time>
      </trkpt>
      <trkpt lat="45.13696" lon="0.6235">
        <ele>181</ele>
        <time>2014-04-27T09:32:46Z</time>
      </trkpt>
      <trkpt lat="45.13701" lon="0.62351">
        <ele>182</ele>
        <time>2014-04-27T09:32:50Z</time>
      </trkpt>
      <trkpt lat="45.13703" lon="0.62348">
        <ele>182</ele>
        <time>2014-04-27T09:32:51Z</time>
      </trkpt>
      <trkpt lat="45.13704" lon="0.62345">
        <ele>182</ele>
        <time>2014-04-27T09:32:52Z</time>
      </trkpt>
      <trkpt lat="45.13705" lon="0.62342">
        <ele>182</ele>
        <time>2014-04-27T09:32:53Z</time>
      </trkpt>
      <trkpt lat="45.13726" lon="0.62297">
        <ele>183</ele>
        <time>2014-04-27T09:33:06Z</time>
      </trkpt>
      <trkpt lat="45.13749" lon="0.62218">
        <ele>184</ele>
        <time>2014-04-27T09:33:23Z</time>
      </trkpt>
      <trkpt lat="45.13769" lon="0.62137">
        <ele>193</ele>
        <time>2014-04-27T09:33:41Z</time>
      </trkpt>
      <trkpt lat="45.13779" lon="0.62047">
        <ele>193</ele>
        <time>2014-04-27T09:33:59Z</time>
      </trkpt>
      <trkpt lat="45.13812" lon="0.61951">
        <ele>190</ele>
        <time>2014-04-27T09:34:17Z</time>
      </trkpt>
      <trkpt lat="45.13829" lon="0.61923">
        <ele>191</ele>
        <time>2014-04-27T09:34:23Z</time>
      </trkpt>
      <trkpt lat="45.13839" lon="0.61902">
        <ele>192</ele>
        <time>2014-04-27T09:34:27Z</time>
      </trkpt>
      <trkpt lat="45.13867" lon="0.61823">
        <ele>192</ele>
        <time>2014-04-27T09:34:42Z</time>
      </trkpt>
      <trkpt lat="45.13869" lon="0.61818">
        <ele>192</ele>
        <time>2014-04-27T09:34:43Z</time>
      </trkpt>
      <trkpt lat="45.13869" lon="0.61812">
        <ele>192</ele>
        <time>2014-04-27T09:34:44Z</time>
      </trkpt>
      <trkpt lat="45.13867" lon="0.61806">
        <ele>192</ele>
        <time>2014-04-27T09:34:45Z</time>
      </trkpt>
      <trkpt lat="45.13866" lon="0.618">
        <ele>192</ele>
        <time>2014-04-27T09:34:46Z</time>
      </trkpt>
      <trkpt lat="45.13863" lon="0.61795">
        <ele>192</ele>
        <time>2014-04-27T09:34:47Z</time>
      </trkpt>
      <trkpt lat="45.13833" lon="0.61735">
        <ele>198</ele>
        <time>2014-04-27T09:35:01Z</time>
      </trkpt>
      <trkpt lat="45.13808" lon="0.61651">
        <ele>199</ele>
        <time>2014-04-27T09:35:18Z</time>
      </trkpt>
      <trkpt lat="45.13808" lon="0.61645">
        <ele>199</ele>
        <time>2014-04-27T09:35:19Z</time>
      </trkpt>
      <trkpt lat="45.1381" lon="0.6162">
        <ele>198</ele>
        <time>2014-04-27T09:35:23Z</time>
      </trkpt>
      <trkpt lat="45.1381" lon="0.61613">
        <ele>198</ele>
        <time>2014-04-27T09:35:24Z</time>
      </trkpt>
      <trkpt lat="45.1381" lon="0.61606">
        <ele>198</ele>
        <time>2014-04-27T09:35:25Z</time>
      </trkpt>
      <trkpt lat="45.13811" lon="0.616">
        <ele>198</ele>
        <time>2014-04-27T09:35:26Z</time>
      </trkpt>
      <trkpt lat="45.13811" lon="0.61579">
        <ele>196</ele>
        <time>2014-04-27T09:35:29Z</time>
      </trkpt>
      <trkpt lat="45.13811" lon="0.61572">
        <ele>195</ele>
        <time>2014-04-27T09:35:30Z</time>
      </trkpt>
      <trkpt lat="45.1381" lon="0.61564">
        <ele>195</ele>
        <time>2014-04-27T09:35:31Z</time>
      </trkpt>
      <trkpt lat="45.13812" lon="0.61556">
        <ele>195</ele>
        <time>2014-04-27T09:35:32Z</time>
      </trkpt>
      <trkpt lat="45.13814" lon="0.61548">
        <ele>194</ele>
        <time>2014-04-27T09:35:33Z</time>
      </trkpt>
      <trkpt lat="45.13816" lon="0.6154">
        <ele>194</ele>
        <time>2014-04-27T09:35:34Z</time>
      </trkpt>
      <trkpt lat="45.13854" lon="0.614">
        <ele>193</ele>
        <time>2014-04-27T09:35:50Z</time>
      </trkpt>
      <trkpt lat="45.13862" lon="0.61376">
        <ele>193</ele>
        <time>2014-04-27T09:35:53Z</time>
      </trkpt>
      <trkpt lat="45.13865" lon="0.61369">
        <ele>193</ele>
        <time>2014-04-27T09:35:54Z</time>
      </trkpt>
      <trkpt lat="45.13869" lon="0.61362">
        <ele>193</ele>
        <time>2014-04-27T09:35:55Z</time>
      </trkpt>
      <trkpt lat="45.13874" lon="0.61357">
        <ele>193</ele>
        <time>2014-04-27T09:35:56Z</time>
      </trkpt>
      <trkpt lat="45.13878" lon="0.61352">
        <ele>193</ele>
        <time>2014-04-27T09:35:57Z</time>
      </trkpt>
      <trkpt lat="45.13884" lon="0.61348">
        <ele>193</ele>
        <time>2014-04-27T09:35:58Z</time>
      </trkpt>
      <trkpt lat="45.1389" lon="0.61345">
        <ele>194</ele>
        <time>2014-04-27T09:35:59Z</time>
      </trkpt>
      <trkpt lat="45.13896" lon="0.61343">
        <ele>194</ele>
        <time>2014-04-27T09:36:00Z</time>
      </trkpt>
      <trkpt lat="45.13902" lon="0.61341">
        <ele>194</ele>
        <time>2014-04-27T09:36:01Z</time>
      </trkpt>
      <trkpt lat="45.13908" lon="0.6134">
        <ele>194</ele>
        <time>2014-04-27T09:36:02Z</time>
      </trkpt>
      <trkpt lat="45.13987" lon="0.61319">
        <ele>195</ele>
        <time>2014-04-27T09:36:16Z</time>
      </trkpt>
      <trkpt lat="45.14086" lon="0.61281">
        <ele>199</ele>
        <time>2014-04-27T09:36:34Z</time>
      </trkpt>
      <trkpt lat="45.14126" lon="0.6125">
        <ele>199</ele>
        <time>2014-04-27T09:36:43Z</time>
      </trkpt>
      <trkpt lat="45.1413" lon="0.61248">
        <ele>202</ele>
        <time>2014-04-27T09:36:44Z</time>
      </trkpt>
      <trkpt lat="45.14201" lon="0.61221">
        <ele>200</ele>
        <time>2014-04-27T09:36:56Z</time>
      </trkpt>
      <trkpt lat="45.14287" lon="0.6119">
        <ele>196</ele>
        <time>2014-04-27T09:37:09Z</time>
      </trkpt>
      <trkpt lat="45.14294" lon="0.6119">
        <ele>196</ele>
        <time>2014-04-27T09:37:10Z</time>
      </trkpt>
      <trkpt lat="45.14301" lon="0.61189">
        <ele>195</ele>
        <time>2014-04-27T09:37:11Z</time>
      </trkpt>
      <trkpt lat="45.14307" lon="0.61191">
        <ele>195</ele>
        <time>2014-04-27T09:37:12Z</time>
      </trkpt>
      <trkpt lat="45.14314" lon="0.61193">
        <ele>195</ele>
        <time>2014-04-27T09:37:13Z</time>
      </trkpt>
      <trkpt lat="45.14321" lon="0.61197">
        <ele>195</ele>
        <time>2014-04-27T09:37:14Z</time>
      </trkpt>
      <trkpt lat="45.14416" lon="0.61263">
        <ele>193</ele>
        <time>2014-04-27T09:37:29Z</time>
      </trkpt>
      <trkpt lat="45.14459" lon="0.61275">
        <ele>193</ele>
        <time>2014-04-27T09:37:35Z</time>
      </trkpt>
      <trkpt lat="45.14533" lon="0.61259">
        <ele>194</ele>
        <time>2014-04-27T09:37:46Z</time>
      </trkpt>
      <trkpt lat="45.14568" lon="0.6126">
        <ele>194</ele>
        <time>2014-04-27T09:37:51Z</time>
      </trkpt>
      <trkpt lat="45.14575" lon="0.61258">
        <ele>194</ele>
        <time>2014-04-27T09:37:52Z</time>
      </trkpt>
      <trkpt lat="45.14581" lon="0.61253">
        <ele>194</ele>
        <time>2014-04-27T09:37:53Z</time>
      </trkpt>
      <trkpt lat="45.14586" lon="0.61248">
        <ele>194</ele>
        <time>2014-04-27T09:37:54Z</time>
      </trkpt>
      <trkpt lat="45.14592" lon="0.61241">
        <ele>194</ele>
        <time>2014-04-27T09:37:55Z</time>
      </trkpt>
      <trkpt lat="45.14596" lon="0.61233">
        <ele>194</ele>
        <time>2014-04-27T09:37:56Z</time>
      </trkpt>
      <trkpt lat="45.14634" lon="0.61181">
        <ele>194</ele>
        <time>2014-04-27T09:38:03Z</time>
      </trkpt>
      <trkpt lat="45.14714" lon="0.61123">
        <ele>193</ele>
        <time>2014-04-27T09:38:16Z</time>
      </trkpt>
      <trkpt lat="45.14719" lon="0.61119">
        <ele>193</ele>
        <time>2014-04-27T09:38:17Z</time>
      </trkpt>
      <trkpt lat="45.14725" lon="0.61116">
        <ele>193</ele>
        <time>2014-04-27T09:38:18Z</time>
      </trkpt>
      <trkpt lat="45.14744" lon="0.61111">
        <ele>193</ele>
        <time>2014-04-27T09:38:21Z</time>
      </trkpt>
      <trkpt lat="45.14751" lon="0.6111">
        <ele>194</ele>
        <time>2014-04-27T09:38:22Z</time>
      </trkpt>
      <trkpt lat="45.14818" lon="0.61115">
        <ele>195</ele>
        <time>2014-04-27T09:38:32Z</time>
      </trkpt>
      <trkpt lat="45.14824" lon="0.61117">
        <ele>195</ele>
        <time>2014-04-27T09:38:33Z</time>
      </trkpt>
      <trkpt lat="45.14846" lon="0.61121">
        <ele>190</ele>
        <time>2014-04-27T09:38:36Z</time>
      </trkpt>
      <trkpt lat="45.14872" lon="0.61128">
        <ele>189</ele>
        <time>2014-04-27T09:38:39Z</time>
      </trkpt>
      <trkpt lat="45.14882" lon="0.61128">
        <ele>188</ele>
        <time>2014-04-27T09:38:40Z</time>
      </trkpt>
      <trkpt lat="45.14891" lon="0.61127">
        <ele>187</ele>
        <time>2014-04-27T09:38:41Z</time>
      </trkpt>
      <trkpt lat="45.14901" lon="0.61125">
        <ele>187</ele>
        <time>2014-04-27T09:38:42Z</time>
      </trkpt>
      <trkpt lat="45.1491" lon="0.61122">
        <ele>187</ele>
        <time>2014-04-27T09:38:43Z</time>
      </trkpt>
      <trkpt lat="45.1492" lon="0.61118">
        <ele>178</ele>
        <time>2014-04-27T09:38:44Z</time>
      </trkpt>
      <trkpt lat="45.1493" lon="0.61115">
        <ele>178</ele>
        <time>2014-04-27T09:38:45Z</time>
      </trkpt>
      <trkpt lat="45.14941" lon="0.61113">
        <ele>178</ele>
        <time>2014-04-27T09:38:46Z</time>
      </trkpt>
      <trkpt lat="45.14953" lon="0.61111">
        <ele>176</ele>
        <time>2014-04-27T09:38:47Z</time>
      </trkpt>
      <trkpt lat="45.14978" lon="0.6111">
        <ele>174</ele>
        <time>2014-04-27T09:38:49Z</time>
      </trkpt>
      <trkpt lat="45.14992" lon="0.61112">
        <ele>173</ele>
        <time>2014-04-27T09:38:50Z</time>
      </trkpt>
      <trkpt lat="45.1502" lon="0.61119">
        <ele>163</ele>
        <time>2014-04-27T09:38:52Z</time>
      </trkpt>
      <trkpt lat="45.15048" lon="0.61126">
        <ele>160</ele>
        <time>2014-04-27T09:38:54Z</time>
      </trkpt>
      <trkpt lat="45.15077" lon="0.61128">
        <ele>158</ele>
        <time>2014-04-27T09:38:56Z</time>
      </trkpt>
      <trkpt lat="45.15091" lon="0.61129">
        <ele>149</ele>
        <time>2014-04-27T09:38:57Z</time>
      </trkpt>
      <trkpt lat="45.15119" lon="0.61131">
        <ele>147</ele>
        <time>2014-04-27T09:38:59Z</time>
      </trkpt>
      <trkpt lat="45.15148" lon="0.61132">
        <ele>145</ele>
        <time>2014-04-27T09:39:01Z</time>
      </trkpt>
      <trkpt lat="45.15176" lon="0.61134">
        <ele>135</ele>
        <time>2014-04-27T09:39:03Z</time>
      </trkpt>
      <trkpt lat="45.15202" lon="0.61135">
        <ele>134</ele>
        <time>2014-04-27T09:39:05Z</time>
      </trkpt>
      <trkpt lat="45.15225" lon="0.61133">
        <ele>133</ele>
        <time>2014-04-27T09:39:07Z</time>
      </trkpt>
      <trkpt lat="45.15245" lon="0.6113">
        <ele>132</ele>
        <time>2014-04-27T09:39:09Z</time>
      </trkpt>
      <trkpt lat="45.15256" lon="0.61129">
        <ele>125</ele>
        <time>2014-04-27T09:39:10Z</time>
      </trkpt>
      <trkpt lat="45.1528" lon="0.61128">
        <ele>125</ele>
        <time>2014-04-27T09:39:12Z</time>
      </trkpt>
      <trkpt lat="45.1531" lon="0.61123">
        <ele>123</ele>
        <time>2014-04-27T09:39:15Z</time>
      </trkpt>
      <trkpt lat="45.15318" lon="0.61118">
        <ele>123</ele>
        <time>2014-04-27T09:39:16Z</time>
      </trkpt>
      <trkpt lat="45.15341" lon="0.61098">
        <ele>118</ele>
        <time>2014-04-27T09:39:19Z</time>
      </trkpt>
      <trkpt lat="45.15368" lon="0.61078">
        <ele>116</ele>
        <time>2014-04-27T09:39:22Z</time>
      </trkpt>
      <trkpt lat="45.15407" lon="0.6104">
        <ele>115</ele>
        <time>2014-04-27T09:39:27Z</time>
      </trkpt>
      <trkpt lat="45.15413" lon="0.61036">
        <ele>115</ele>
        <time>2014-04-27T09:39:28Z</time>
      </trkpt>
      <trkpt lat="45.15419" lon="0.61034">
        <ele>111</ele>
        <time>2014-04-27T09:39:29Z</time>
      </trkpt>
      <trkpt lat="45.15427" lon="0.61033">
        <ele>111</ele>
        <time>2014-04-27T09:39:30Z</time>
      </trkpt>
      <trkpt lat="45.15435" lon="0.61034">
        <ele>111</ele>
        <time>2014-04-27T09:39:31Z</time>
      </trkpt>
      <trkpt lat="45.15535" lon="0.61013">
        <ele>106</ele>
        <time>2014-04-27T09:39:42Z</time>
      </trkpt>
      <trkpt lat="45.15578" lon="0.60991">
        <ele>106</ele>
        <time>2014-04-27T09:39:47Z</time>
      </trkpt>
      <trkpt lat="45.15584" lon="0.60984">
        <ele>104</ele>
        <time>2014-04-27T09:39:48Z</time>
      </trkpt>
      <trkpt lat="45.15587" lon="0.60976">
        <ele>104</ele>
        <time>2014-04-27T09:39:49Z</time>
      </trkpt>
      <trkpt lat="45.15588" lon="0.60966">
        <ele>104</ele>
        <time>2014-04-27T09:39:50Z</time>
      </trkpt>
      <trkpt lat="45.15589" lon="0.60955">
        <ele>104</ele>
        <time>2014-04-27T09:39:51Z</time>
      </trkpt>
      <trkpt lat="45.15599" lon="0.60787">
        <ele>104</ele>
        <time>2014-04-27T09:40:06Z</time>
      </trkpt>
      <trkpt lat="45.1561" lon="0.60617">
        <ele>104</ele>
        <time>2014-04-27T09:40:22Z</time>
      </trkpt>
      <trkpt lat="45.15611" lon="0.60605">
        <ele>104</ele>
        <time>2014-04-27T09:40:23Z</time>
      </trkpt>
      <trkpt lat="45.15614" lon="0.60562">
        <ele>104</ele>
        <time>2014-04-27T09:40:27Z</time>
      </trkpt>
      <trkpt lat="45.15616" lon="0.60555">
        <ele>104</ele>
        <time>2014-04-27T09:40:28Z</time>
      </trkpt>
      <trkpt lat="45.15618" lon="0.60551">
        <ele>103</ele>
        <time>2014-04-27T09:40:29Z</time>
      </trkpt>
      <trkpt lat="45.15621" lon="0.60549">
        <ele>103</ele>
        <time>2014-04-27T09:40:30Z</time>
      </trkpt>
      <trkpt lat="45.15624" lon="0.60547">
        <ele>103</ele>
        <time>2014-04-27T09:40:31Z</time>
      </trkpt>
      <trkpt lat="45.15628" lon="0.60543">
        <ele>103</ele>
        <time>2014-04-27T09:40:32Z</time>
      </trkpt>
      <trkpt lat="45.15644" lon="0.60521">
        <ele>103</ele>
        <time>2014-04-27T09:40:36Z</time>
      </trkpt>
      <trkpt lat="45.15686" lon="0.605">
        <ele>100</ele>
        <time>2014-04-27T09:40:43Z</time>
      </trkpt>
      <trkpt lat="45.15689" lon="0.60495">
        <ele>99</ele>
        <time>2014-04-27T09:40:44Z</time>
      </trkpt>
      <trkpt lat="45.1569" lon="0.60488">
        <ele>99</ele>
        <time>2014-04-27T09:40:45Z</time>
      </trkpt>
      <trkpt lat="45.15692" lon="0.60467">
        <ele>98</ele>
        <time>2014-04-27T09:40:48Z</time>
      </trkpt>
      <trkpt lat="45.15695" lon="0.60447">
        <ele>98</ele>
        <time>2014-04-27T09:40:53Z</time>
      </trkpt>
      <trkpt lat="45.15709" lon="0.60445">
        <ele>98</ele>
        <time>2014-04-27T09:40:57Z</time>
      </trkpt>
      <trkpt lat="45.15748" lon="0.60455">
        <ele>97</ele>
        <time>2014-04-27T09:41:05Z</time>
      </trkpt>
      <trkpt lat="45.15756" lon="0.60446">
        <ele>95</ele>
        <time>2014-04-27T09:41:07Z</time>
      </trkpt>
      <trkpt lat="45.15792" lon="0.60412">
        <ele>93</ele>
        <time>2014-04-27T09:41:14Z</time>
      </trkpt>
      <trkpt lat="45.15814" lon="0.60418">
        <ele>94</ele>
        <time>2014-04-27T09:41:18Z</time>
      </trkpt>
      <trkpt lat="45.15835" lon="0.60439">
        <ele>95</ele>
        <time>2014-04-27T09:41:22Z</time>
      </trkpt>
      <trkpt lat="45.15841" lon="0.60441">
        <ele>95</ele>
        <time>2014-04-27T09:41:23Z</time>
      </trkpt>
      <trkpt lat="45.15848" lon="0.60443">
        <ele>95</ele>
        <time>2014-04-27T09:41:24Z</time>
      </trkpt>
      <trkpt lat="45.15873" lon="0.60447">
        <ele>96</ele>
        <time>2014-04-27T09:41:28Z</time>
      </trkpt>
      <trkpt lat="45.15884" lon="0.60452">
        <ele>96</ele>
        <time>2014-04-27T09:41:30Z</time>
      </trkpt>
      <trkpt lat="45.15912" lon="0.60468">
        <ele>96</ele>
        <time>2014-04-27T09:41:35Z</time>
      </trkpt>
      <trkpt lat="45.15926" lon="0.60486">
        <ele>97</ele>
        <time>2014-04-27T09:41:38Z</time>
      </trkpt>
      <trkpt lat="45.15934" lon="0.60501">
        <ele>97</ele>
        <time>2014-04-27T09:41:40Z</time>
      </trkpt>
      <trkpt lat="45.15963" lon="0.60549">
        <ele>96</ele>
        <time>2014-04-27T09:41:47Z</time>
      </trkpt>
      <trkpt lat="45.15974" lon="0.60557">
        <ele>96</ele>
        <time>2014-04-27T09:41:49Z</time>
      </trkpt>
      <trkpt lat="45.16001" lon="0.60547">
        <ele>94</ele>
        <time>2014-04-27T09:41:55Z</time>
      </trkpt>
      <trkpt lat="45.16046" lon="0.60502">
        <ele>94</ele>
        <time>2014-04-27T09:42:05Z</time>
      </trkpt>
      <trkpt lat="45.16058" lon="0.60494">
        <ele>94</ele>
        <time>2014-04-27T09:42:08Z</time>
      </trkpt>
      <trkpt lat="45.16062" lon="0.60495">
        <ele>94</ele>
        <time>2014-04-27T09:42:09Z</time>
      </trkpt>
      <trkpt lat="45.16065" lon="0.60499">
        <ele>94</ele>
        <time>2014-04-27T09:42:10Z</time>
      </trkpt>
      <trkpt lat="45.16068" lon="0.60505">
        <ele>94</ele>
        <time>2014-04-27T09:42:11Z</time>
      </trkpt>
      <trkpt lat="45.16071" lon="0.60511">
        <ele>94</ele>
        <time>2014-04-27T09:42:12Z</time>
      </trkpt>
      <trkpt lat="45.16073" lon="0.60518">
        <ele>94</ele>
        <time>2014-04-27T09:42:13Z</time>
      </trkpt>
      <trkpt lat="45.16099" lon="0.60582">
        <ele>93</ele>
        <time>2014-04-27T09:42:22Z</time>
      </trkpt>
      <trkpt lat="45.16103" lon="0.60587">
        <ele>93</ele>
        <time>2014-04-27T09:42:23Z</time>
      </trkpt>
      <trkpt lat="45.16107" lon="0.6059">
        <ele>93</ele>
        <time>2014-04-27T09:42:24Z</time>
      </trkpt>
      <trkpt lat="45.16111" lon="0.60592">
        <ele>93</ele>
        <time>2014-04-27T09:42:25Z</time>
      </trkpt>
      <trkpt lat="45.16115" lon="0.60593">
        <ele>93</ele>
        <time>2014-04-27T09:42:26Z</time>
      </trkpt>
      <trkpt lat="45.16132" lon="0.60588">
        <ele>93</ele>
        <time>2014-04-27T09:42:31Z</time>
      </trkpt>
      <trkpt lat="45.16135" lon="0.60585">
        <ele>93</ele>
        <time>2014-04-27T09:42:32Z</time>
      </trkpt>
      <trkpt lat="45.16138" lon="0.6058">
        <ele>93</ele>
        <time>2014-04-27T09:42:33Z</time>
      </trkpt>
      <trkpt lat="45.16141" lon="0.60576">
        <ele>92</ele>
        <time>2014-04-27T09:42:34Z</time>
      </trkpt>
      <trkpt lat="45.16144" lon="0.6057">
        <ele>92</ele>
        <time>2014-04-27T09:42:35Z</time>
      </trkpt>
      <trkpt lat="45.16147" lon="0.60565">
        <ele>92</ele>
        <time>2014-04-27T09:42:36Z</time>
      </trkpt>
      <trkpt lat="45.1616" lon="0.60547">
        <ele>92</ele>
        <time>2014-04-27T09:42:40Z</time>
      </trkpt>
      <trkpt lat="45.16164" lon="0.60545">
        <ele>92</ele>
        <time>2014-04-27T09:42:41Z</time>
      </trkpt>
      <trkpt lat="45.16173" lon="0.60539">
        <ele>92</ele>
        <time>2014-04-27T09:42:44Z</time>
      </trkpt>
      <trkpt lat="45.16175" lon="0.60535">
        <ele>92</ele>
        <time>2014-04-27T09:42:45Z</time>
      </trkpt>
      <trkpt lat="45.16184" lon="0.60512">
        <ele>92</ele>
        <time>2014-04-27T09:42:50Z</time>
      </trkpt>
      <trkpt lat="45.16203" lon="0.60487">
        <ele>92</ele>
        <time>2014-04-27T09:42:57Z</time>
      </trkpt>
      <trkpt lat="45.16207" lon="0.60483">
        <ele>92</ele>
        <time>2014-04-27T09:42:58Z</time>
      </trkpt>
      <trkpt lat="45.1621" lon="0.60477">
        <ele>91</ele>
        <time>2014-04-27T09:42:59Z</time>
      </trkpt>
      <trkpt lat="45.16213" lon="0.6047">
        <ele>91</ele>
        <time>2014-04-27T09:43:00Z</time>
      </trkpt>
      <trkpt lat="45.16215" lon="0.60464">
        <ele>91</ele>
        <time>2014-04-27T09:43:01Z</time>
      </trkpt>
      <trkpt lat="45.16265" lon="0.60342">
        <ele>91</ele>
        <time>2014-04-27T09:43:19Z</time>
      </trkpt>
      <trkpt lat="45.16286" lon="0.60291">
        <ele>91</ele>
        <time>2014-04-27T09:43:31Z</time>
      </trkpt>
      <trkpt lat="45.16303" lon="0.60254">
        <ele>90</ele>
        <time>2014-04-27T09:43:39Z</time>
      </trkpt>
      <trkpt lat="45.16306" lon="0.60253">
        <ele>90</ele>
        <time>2014-04-27T09:43:40Z</time>
      </trkpt>
      <trkpt lat="45.16318" lon="0.60258">
        <ele>90</ele>
        <time>2014-04-27T09:43:44Z</time>
      </trkpt>
      <trkpt lat="45.16321" lon="0.60257">
        <ele>90</ele>
        <time>2014-04-27T09:43:45Z</time>
      </trkpt>
      <trkpt lat="45.16324" lon="0.60255">
        <ele>90</ele>
        <time>2014-04-27T09:43:46Z</time>
      </trkpt>
      <trkpt lat="45.16327" lon="0.60254">
        <ele>90</ele>
        <time>2014-04-27T09:43:47Z</time>
      </trkpt>
      <trkpt lat="45.16342" lon="0.60244">
        <ele>90</ele>
        <time>2014-04-27T09:43:53Z</time>
      </trkpt>
      <trkpt lat="45.16344" lon="0.60243">
        <ele>90</ele>
        <time>2014-04-27T09:43:54Z</time>
      </trkpt>
      <trkpt lat="45.16351" lon="0.60237">
        <ele>90</ele>
        <time>2014-04-27T09:44:02Z</time>
      </trkpt>
      <trkpt lat="45.16351" lon="0.60237">
        <ele>90</ele>
        <time>2014-04-27T09:44:03Z</time>
      </trkpt>
    </trkseg>
  </trk>
</gpx>